     2              OBSERVATION DATA    GPS                 RINEX VERSION / TYPE
ASRINEXO V2.9.5 UX USGS 26-APR-99 13:42                     PGM / RUN BY / DATE
                                                            COMMENT
BIT 2 OF LLI (+4) FLAGS DATA COLLECTED UNDER "AS" CONDITION COMMENT
BIT 2 OF LLI (+4) FLAGS DATA COLLECTED UNDER "AS" CONDITION COMMENT
BIT 2 OF LLI (+4) FLAGS DATA COLLECTED UNDER "AS" CONDITION COMMENT
BIT 2 OF LLI (+4) FLAGS DATA COLLECTED UNDER "AS" CONDITION COMMENT
BIT 2 OF LLI (+4) FLAGS DATA COLLECTED UNDER "AS" CONDITION COMMENT
BIT 2 OF LLI (+4) FLAGS DATA COLLECTED UNDER "AS" CONDITION COMMENT
Original Marker Name: v511 V_511_GGB_LS_3834_LADW&P         COMMENT
Campaign Name: USGS Yucca Profile                           COMMENT
4-Character Station Name: V511                              COMMENT
6-Character Antenna Code: DMRCHT                            COMMENT
Vertical Measurement Point: BCR                             COMMENT
Vertical Offset to Rinex Ref. Point: 0.0348                 COMMENT
Radial Measurement Point: ECF                               COMMENT
Radial Offset to Rinex Ref. Point: 0.1897                   COMMENT
Antenna Height from Field Measurement: 1.2140 m             COMMENT
Additional Antenna Identification Info.:                    COMMENT
Turborogue and Ashtech Choke Ring                           COMMENT
Original XYZ: -2413174.3821 -4564265.1113 3734372.7516      COMMENT
New XYZ position is based on association with SCEC monument COMMENT
E1F4N7S1+0011. Position of that monument is believed to be  COMMENT
valid to within 1 m horizontally; vertical accuracy         COMMENT
should be no worse than 3-times this value.                 COMMENT
                                                            COMMENT
Revised Rinex header created by UCSD GPS archive for        COMMENT
GSAC on 07-Aug-2000 (2000:220) 23:51:20 GMT                 COMMENT
For assistance contact dagnew@ucsd.edu                      COMMENT
or anderson@python.ucsd.edu                                 COMMENT
                                                            COMMENT
V511                                                        MARKER NAME
GDH US GEOLOGICAL SURVEY                                    OBSERVER / AGENCY
O4579 ASHTECH Z-XII3 1E95                                   REC # / TYPE / VERS
CR16975 DORNE-MARGOL. TYPE T                                ANT # / TYPE
 -2413169.5529 -4564294.0539  3734410.1120                  APPROX POSITION XYZ
        1.1643        0.0000        0.0000                  ANTENNA: DELTA H/E/N
     1     1     0                                          WAVELENGTH FACT L1/2
     5    C1    L1    L2    P1    P2                        # / TYPES OF OBSERV
    30                                                      INTERVAL
  1999     4    14    15    47    0.000000                  TIME OF FIRST OBS
  1999     4    14    23     3   30.000000                  TIME OF LAST OBS
                                                            END OF HEADER
 99  4 14 15 47  0.0000000  0  7 19 02 07 27 26 15 13
  23415561.826    23415554.469                                    23415690.0844
  21122703.091      223453.239 9    162503.60249  21122702.118    21122708.2894
  21074843.097        4903.220 9      3431.00349  21074843.519    21074850.0954
  20390597.750      303661.011 9    220752.20749  20390597.723    20390603.2024
  22947161.533       53035.937 9     38581.28549  22947161.521    22947169.1074
  23729730.288      130504.112 9     95052.57149  23729731.329    23729736.6794
  22269954.158      491177.149 9    352487.41049  22269953.832    22269959.7764
 99  4 14 15 47 30.0000000  0  7 19 02 07 27 26 15 13
  23443333.954      160657.04049                  23443330.930    23443342.2184
  21133427.158      279809.747 9    206417.76149  21133426.263    21133432.1334
  21074478.647        2985.254 9      1936.50149  21074478.492    21074485.3494
  20405541.569      382190.649 9    281944.10849  20405541.478    20405547.0894
  22949327.061       64414.470 9     47447.68149  22949327.671    22949333.7164
  23735866.869      162748.227 9    120177.88549  23735867.631    23735875.2664
  22297374.740      635273.377 9    464770.10149  22297373.839    22297380.3034
 99  4 14 15 48  0.0000000  0  7 19 02 07 27 26 15 13
  23470820.106      840755.85819    273210.84749  23470820.069    23470827.3014
  21143845.915      334560.824 9    249080.93149  21143845.430    21143851.3874
  21073859.717        -268.255 9      -598.68849  21073859.541    21073866.1094
  20420236.672      459413.625 9    342117.82949  20420236.614    20420241.9264
  22951249.621       74516.257 9     55319.20049  22951250.450    22951256.1844
  23741767.236      193752.337 9    144336.97749  23741766.197    23741776.2654
  22324523.768      777942.965 9    575941.10549  22324524.693    22324529.2384
 99  4 14 15 48 30.0000000  0  7 19 02 07 27 26 15 13
  23498026.173      983726.564 9    384616.46549  23498027.554    23498034.8814
  21153971.320      387769.944 9    290542.57249  21153970.741    21153976.6904
  21072993.734       -4819.583 9     -4145.14449  21072993.410    21073000.2014
  20434690.601      535369.229 9    401303.98449  20434690.298    20434695.8084
  22952938.571       83391.279 9     62234.81749  22952938.551    22952945.1674
  23747440.860      223567.448 9    167569.54649  23747439.680    23747447.6424
  22351406.410      919212.562 9    686021.25249  22351408.252    22351412.4034
 99  4 14 15 49  0.0000000  0  7 19 02 07 27 26 15 13
  23524959.433     1125261.708 9    494903.47449  23524958.540    23524970.0294
  21163814.556      439496.425 9    330848.91249  21163813.827    21163820.2774
  21071890.254      -10618.376 9     -8663.65549  21071889.694    21071896.2294
  20448910.841      610096.765 9    459533.21249  20448910.594    20448916.1824
  22954403.871       91091.304 9     68234.83949  22954403.907    22954410.9434
  23752897.676      252244.761 9    189915.52949  23752894.433    23752904.4074
  22378029.522     1059117.549 9    795038.05949  22378030.422    22378035.0134
 99  4 14 15 49 30.0000000  0  7 19 02 07 27 26 15 13
  23551627.694     1265404.675 9    604105.61249  23551626.968    23551637.3444
  21173382.337      489775.742 9    370027.59049  21173381.733    21173387.9824
  21070561.526      -17601.022 9    -14104.66949  21070560.834    21070567.5474
  20462905.687      683639.902 9    516839.53049  20462905.415    20462911.0104
  22955655.401       97668.103 9     73359.64249  22955655.420    22955662.5444
  23758147.454      279831.959 9    211412.06049  23758147.007    23758153.5774
  22404398.121     1197685.248 9    903012.79349  22404397.918    22404404.3654
 99  4 14 15 50  0.0000000  0  7 19 02 07 27 26 15 13
  23578041.571     1404210.959 9    712266.21649  23578041.861    23578051.1564
  21182684.823      538660.385 9    408119.50849  21182684.203    21182690.3894
  21069020.575      -25698.704 9    -20414.53049  21069020.081    21069026.6834
  20476688.265      756067.911 9    573276.90749  20476688.104    20476693.8534
  22956705.366      103185.613 9     77659.00949  22956705.264    22956712.0534
  23763201.076      306388.865 9    232105.76949  23763199.859    23763208.6104
  22430521.079     1334961.846 9   1009981.47549  22430522.372    22430526.8754
 99  4 14 15 50 30.0000000  0  7 19 02 07 27 26 15 13
  23604201.810     1541683.850 9    819387.78649  23604202.740    23604208.9694
  21191723.639      586159.524 9    445131.80949  21191722.975    21191729.4714
  21067271.283      -34891.507 9    -27577.73749  21067270.642    21067277.4064
  20490264.351      827410.752 9    628868.69349  20490264.325    20490269.7574
  22957554.877      107649.998 9     81137.76049  22957554.995    22957561.7654
  23768060.979      331928.055 9    252006.43649  23768060.034    23768068.5144
  22456400.441     1470958.387 9   1115952.71849  22456402.076    22456406.3654
 99  4 14 15 51  0.0000000  0  7 19 02 07 27 26 15 13
  23630103.398     1677796.973 9    925449.82249  23630103.070    23630113.7194
  21200490.729      632230.622 9    481031.35749  21200490.256    21200496.3034
  21065308.390      -45206.721 9    -35615.54649  21065307.991    21065314.5314
  20503630.874      897652.096 9    683602.18249  20503630.902    20503636.4724
  22958195.167      111015.413 9     83760.17549  22958195.832    22958202.2844
  23772721.405      356419.449 9    271090.66249  23772719.349    23772727.8254
  22482033.001     1605657.988 9   1220913.36949  22482033.222    22482038.3134
 99  4 14 15 51 30.0000000  0  7 19 02 07 27 26 15 13
  23655755.054     1812596.867 9   1030488.53249  23655755.681    23655764.1574
  21208990.467      676896.885 9    515836.22649  21208989.882    21208996.1004
  21063138.309      -56610.920 9    -44501.91549  21063137.703    21063144.1954
  20516796.787      966839.140 9    737514.13149  20516796.647    20516802.4634
  22958634.595      113324.542 9     85559.50449  22958634.728    22958641.7324
  23777189.869      379900.799 9    289387.84449  23777191.293    23777198.1504
  22507426.732     1739102.317 9   1324895.85749  22507426.273    22507432.4704
 99  4 14 15 52  0.0000000  0  7 19 02 07 27 26 15 13
  23681158.837     1946094.099 9   1134512.16749  23681158.175    23681168.1044
  21217224.573      720167.192 9    549553.33649  21217223.981    21217230.1414
  21060762.522      -69095.770 9    -54230.35449  21060762.088    21060768.6334
  20529764.702     1034986.024 9    790615.56449  20529764.740    20529770.2734
  22958876.994      114598.463 9     86552.17449  22958877.350    22958884.7534
  23781468.850      402384.473 9    306907.61249  23781467.832    23781475.3904
  22532585.993     1871314.492 9   1427918.24349  22532585.935    22532592.2654
 99  4 14 15 52 30.0000000  0  7 19 02 07 27 26 15 13
  23706316.832     2078299.552 9   1237529.24249  23706315.739    23706326.1954
  21225196.038      762057.503 9    582195.12749  21225195.403    21225201.7614
  21058181.853      -82657.253 9    -64797.72349  21058181.414    21058187.9564
  20542534.087     1102089.407 9    842903.88149  20542534.040    20542539.9104
  22958924.637      114848.643 9     86747.13049  22958924.237    22958931.8634
  23785558.211      423876.644 9    323654.71149  23785558.021    23785563.2924
  22557513.320     2002308.075 9   1529991.08049  22557514.608    22557519.8614
 99  4 14 15 53  0.0000000  0  7 19 02 07 27 26 15 13
  23731243.656     2209291.038 9   1339600.35849  23731242.972    23731252.9424
  21232917.052      802631.468 9    613811.19149  21232916.648    21232922.4934
  21055409.166      -97228.136 9    -76151.64449  21055408.664    21055415.0564
  20555112.856     1168190.917 9    894411.51849  20555112.822    20555118.5244
  22958792.624      114154.960 9     86206.60249  22958793.468    22958799.0084
  23789471.369      444443.001 9    339680.44149  23789470.312    23789481.0104
  22582222.499     2132155.195 9   1631170.58149  22582223.562    22582228.5314
 99  4 14 15 53 30.0000000  0  7 19 02 07 27 26 15 13
  23755963.616     2339194.670 9   1440823.80949  23755962.899    23755973.2024
  21240410.985      842012.049 9    644497.35049  21240410.410    21240416.5204
  21052469.274     -112677.545 9    -88190.12549  21052468.809    21052475.4064
  20567523.973     1233411.433 9    945232.66549  20567523.840    20567529.7454
  22958507.407      112655.670 9     85038.32349  22958507.736    22958514.3644
  23793234.182      464216.082 9    355088.10549  23793234.117    23793237.2014
  22606735.782     2260972.911 9   1731547.92349  22606734.983    22606742.2444
 99  4 14 15 54  0.0000000  0  7 19 02 07 27 26 15 13
  23780493.069     2468097.226 9   1541267.16449  23780493.837    23780503.3054
  21247700.314      880317.617 9    674345.83149  21247699.923    21247705.9454
  21049382.086     -128900.761 9   -100831.56849  21049381.247    21049388.2794
  20579788.201     1297860.086 9    995452.35849  20579788.019    20579793.8834
  22958085.712      110439.159 9     83311.17049  22958085.658    22958093.3184
  23796866.016      483300.809 9    369959.32749  23796867.541    23796865.0254
  22631071.846     2388859.353 9   1831199.60049  22631071.295    22631077.7694
 99  4 14 15 54 30.0000000  0  7 19 02 07 27 26 15 13
  23804846.244     2596072.611 9   1640988.09049  23804846.158    23804857.4114
  21254804.336      917649.365 9    703435.49249  21254803.716    21254810.2254
  21046162.066     -145821.989 9   -114016.92849  21046161.566    21046168.1544
  20591922.811     1361627.643 9   1045141.32849  20591922.659    20591928.5354
  22957542.370      107583.476 9     81085.96149  22957542.614    22957549.2204
  23800382.644      501781.068 9    384359.53749  23800381.439    23800391.5964
  22655244.119     2515885.274 9   1930180.74149  22655245.090    22655251.2094
 99  4 14 15 55  0.0000000  0  7 19 02 07 27 26 15 13
  23829036.883     2723194.589 9   1740043.99149  23829036.231    23829045.2564
  21261740.538      954099.015 9    731837.80149  21261740.164    21261746.2484
  21042823.636     -163365.649 9   -127687.29649  21042822.957    21042829.6094
  20603943.791     1424798.039 9   1094364.97949  20603943.617    20603949.7304
  22956893.780      104175.131 9     78430.10849  22956894.073    22956900.1704
  23803800.877      519744.149 9    398356.79049  23803798.203    23803805.2644
  22679267.916     2642130.550 9   2028553.58449  22679270.758    22679272.6814
 99  4 14 15 55 30.0000000  0  7 19 02 07 27 26 15 13
  23853071.799     2849498.530 9   1838462.47949  23853071.792    23853081.0514
  21268520.517      989727.836 9    759600.51049  21268519.850    21268526.0764
  21039373.357     -181496.676 9   -141815.34849  21039372.705    21039379.4794
  20615863.286     1487435.298 9   1143173.20149  20615863.155    20615869.0434
  22956149.502      100264.424 9     75382.81749  22956150.588    22956156.3844
  23807130.070      537240.019 9    411989.91949  23807129.437    23807136.2214
  22703149.284     2767627.531 9   2126343.36349  22703150.366    22703156.9884
 99  4 14 15 56  0.0000000  0  7 19 02 07 27 26 15 13
  23876958.960     2975025.293 9   1936275.38349  23876958.835    23876967.2934
  21275154.185     1024588.185 9    786764.40949  21275153.568    21275159.7364
  21035818.998     -200174.957 9   -156369.83749  21035818.336    21035825.0744
  20627688.279     1549575.650 9   1191594.22449  20627688.199    20627693.9744
  22955319.272       95901.019 9     71982.76549  22955319.533    22955326.4324
  23810377.886      554307.669 9    425289.46549  23810375.080    23810391.0544
  22726896.693     2892420.138 9   2223584.25149  22726896.297    22726902.4514
 99  4 14 15 56 30.0000000  0  7 19 02 07 27 26 15 13
  23900712.065     3099847.545 9   2033539.27549  23900712.441    23900722.6434
  21281648.525     1058716.070 9    813357.55049  21281648.062    21281654.1204
  21032168.392     -219359.053 9   -171318.46849  21032167.913    21032174.3514
  20639425.879     1611256.891 9   1239657.48449  20639425.853    20639431.5804
  22954416.078       91153.773 9     68283.61249  22954416.438    22954423.2504
  23813554.448      571002.461 9    438298.41849  23813555.728    23813565.7924
  22750519.344     3016558.124 9   2320315.06849  22750519.013    22750526.4654
 99  4 14 15 57  0.0000000  0  7 19 02 07 27 26 15 13
  23924342.935     3224027.746 9   2130302.89349  23924343.731    23924351.8514
  21288008.893     1092139.603 9    839401.85549  21288008.548    21288014.6404
  21028432.889     -238989.301 9   -186614.74449  21028432.229    21028438.9504
  20651084.853     1672524.960 9   1287398.80049  20651084.692    20651090.6314
  22953449.484       86073.928 9     64325.29649  22953449.368    22953456.0474
  23816671.062      587379.239 9    451059.54949  23816666.255    23816677.1784
  22774027.933     3140096.505 9   2416578.62549  22774028.288    22774035.0354
 99  4 14 15 57 30.0000000  0  7 19 02 07 27 26 15 13
  23947890.762     3347771.888 9   2226726.72349  23947891.320    23947901.6484
  21294270.492     1125044.480 9    865042.00149  21294269.804    21294275.9904
  21024653.789     -258848.880 9   -202089.73249  21024653.435    21024660.0344
  20662705.383     1733590.822 9   1334982.54949  20662705.337    20662711.0414
  22952457.009       80858.498 9     60261.31749  22952456.665    22952463.5854
  23819765.238      603641.512 9    463731.47549  23819766.619    23819772.3534
  22797460.028     3263232.448 9   2512528.58149  22797461.386    22797465.6384
 99  4 14 15 58  0.0000000  0  7 19 02 07 27 26 15 13
  23971339.252     3470993.704 9   2322743.53649  23971339.827    23971348.4324
  21300415.566     1157337.013 9    890204.99949  21300414.980    21300421.3154
  21020816.943     -279011.881 9   -217801.14149  21020816.332    21020823.3564
  20674271.331     1794369.989 9   1382342.90349  20674271.180    20674277.2074
  22951419.694       75407.467 9     56013.76649  22951419.503    22951426.5394
  23822822.752      619705.916 9    476249.13549  23822823.243    23822829.9654
  22820799.912     3385883.468 9   2608100.70349  22820800.379    22820806.0054
 99  4 14 15 58 30.0000000  0  7 19 02 07 27 26 15 13
  23994672.202     3593608.550 9   2418287.38849  23994673.273    23994682.1574
  21306429.836     1188941.970 9    914832.23249  21306429.296    21306435.7754
  21016907.758     -299554.976 9   -233808.72949  21016906.978    21016913.7684
  20685770.847     1854800.021 9   1429431.20849  20685770.619    20685776.4804
  22950320.722       69631.545 9     51513.05449  22950321.393    22950327.8794
  23825827.439      635493.432 9    488551.09649  23825825.184    23825833.7604
  22844031.109     3507963.569 9   2703227.94849  22844032.196    22844037.5964
 99  4 14 15 59  0.0010000  0  7 19 02 07 27 26 15 13
  24017894.225     3715640.183 9   2513376.75949  24017895.107    24017903.0424
  21312322.080     1219905.849 9    938959.91749  21312321.777    21312327.5714
  21012936.071     -320426.100 9   -250071.93249  21012935.897    21012942.4214
  20697212.970     1914928.578 9   1476284.60049  20697212.708    20697218.5774
  22949165.650       63561.145 9     46782.87649  22949165.843    22949172.3904
  23828784.648      651036.354 9    500662.49649  23828782.817    23828791.6334
  22867160.173     3629507.424 9   2797937.33449  22867162.263    22867166.3434
 99  4 14 15 59 30.0010000  0  7 19 02 07 27 26 15 13
  24041014.268     3837135.984 9   2608048.62849  24041014.652    24041023.4614
  21318108.017     1250310.812 9    962652.08149  21318107.621    21318113.7364
  21008914.207     -341561.496 9   -266541.05749  21008913.612    21008920.4914
  20708610.744     1974824.049 9   1522956.36149  20708610.727    20708616.3604
  22947967.059       57262.485 9     41874.83649  22947967.423    22947973.6814
  23831708.288      666399.032 9    512633.42249  23831706.933    23831715.0674
  22890194.920     3750555.578 9   2892260.48449  22890195.827    22890202.5884
 99  4 14 16  0  0.0010000  0  7 19 02 07 27 26 15 13
  24064033.221     3958100.516 9   2702306.51349  24064033.676    24064043.7764
  21323789.048     1280164.620 9    985914.77549  21323788.748    21323794.6994
  21004840.572     -362968.624 9   -283221.92049  21004839.852    21004846.3964
  20719963.437     2034482.578 9   1569443.49049  20719963.148    20719969.0394
  22946725.926       50740.299 9     36792.61849  22946725.353    22946732.6454
  23834596.805      681579.181 9    524462.12849  23834597.921    23834605.1354
  22913135.086     3871106.604 9   2986196.25249  22913136.426    22913143.0474
 99  4 14 16  0 30.0010000  0  7 19 02 07 27 26 15 13
  24086957.327     4078567.214 9   2796176.44149  24086957.246    24086968.0554
  21329369.298     1309489.094 9   1008764.99649  21329368.725    21329375.0784
  21000721.905     -384612.113 9   -300086.96149  21000721.333    21000727.9614
  20731275.630     2093928.264 9   1615764.76549  20731275.667    20731281.5274
  22945451.699       44044.026 9     31574.74849  22945451.864    22945458.5154
  23837456.376      696605.696 9    536171.07849  23837457.791    23837466.3994
  22935983.901     3991177.706 9   3079758.03249  22935985.258    22935990.6894
 99  4 14 16  1  0.0010000  0  7 19 02 07 27 26 15 13
  24109794.031     4198574.812 9   2889688.67449  24109794.686    24109803.5344
  21334851.455     1338297.947 9   1031213.43849  21334850.850    21334857.1854
  20996564.220     -406460.811 9   -317111.90549  20996563.631    20996570.2664
  20742552.166     2153186.669 9   1661940.10249  20742552.120    20742557.9344
  22944151.669       37212.474 9     26251.46249  22944151.514    22944158.1944
  23840294.624      711518.639 9    547791.58649  23840291.879    23840301.5674
  22958747.695     4110800.862 9   3172970.78549  22958747.810    22958753.4474
 99  4 14 16  1 30.0010000  0  7 19 02 07 27 26 15 13
  24132548.657     4318150.107 9   2982864.01849  24132549.414    24132558.9854
  21340238.621     1366607.349 9   1053272.69849  21340238.330    21340244.5084
  20992372.319     -428489.770 9   -334277.32049  20992371.753    20992378.2854
  20753796.626     2212276.680 9   1707984.23349  20753796.676    20753802.3794
  22942830.530       30269.470 9     20841.33249  22942830.779    22942837.0014
  23843116.550      726347.985 9    559346.91749  23843116.764    23843124.3024
  22981431.585     4230004.305 9   3265856.43749  22981433.165    22981436.6494
 99  4 14 16  2  0.0010000  0  7 19 02 07 27 26 15 13
  24155226.617     4437323.031 9   3075725.80649  24155227.574    24155238.2004
  21345532.481     1394426.506 9   1074949.95149  21345532.216    21345538.1804
  20988151.315     -450671.476 9   -351561.74749  20988150.826    20988157.3334
  20765011.327     2271209.780 9   1753906.09649  20765011.522    20765017.1724
  22941493.665       23244.397 9     15367.25349  22941493.644    22941500.6604
  23845926.805      741115.384 9    570853.99749  23845926.479    23845932.5124
  23004042.084     4348822.279 9   3358441.74549  23004041.803    23004049.3054
 99  4 14 16  2 30.0010000  0  7 19 02 07 27 26 15 13
  24177831.980     4556113.486 9   3168289.57249  24177832.435    24177844.0624
  21350737.692     1421779.525 9   1096263.97549  21350737.182    21350743.4254
  20983906.630     -472977.542 9   -368943.08849  20983905.884    20983912.3744
  20776199.670     2330004.275 9   1799719.94149  20776199.626    20776205.3784
  22940143.979       16151.628 9      9840.42749  22940144.369    22940151.0614
  23848729.818      755847.206 9    582333.34649  23848729.898    23848739.2284
  23026584.470     4467282.467 9   3450748.30349  23026583.498    23026592.5324
 99  4 14 16  3  0.0010000  0  7 19 02 07 27 26 15 13
  24200365.164     4674526.324 9   3260559.06749  24200364.986    24200376.3244
  21355858.383     1448688.870 9   1117232.28349  21355857.937    21355863.9204
  20979640.221     -495397.556 9   -386413.21249  20979639.808    20979646.1594
  20787362.062     2388662.877 9   1845427.90349  20787361.769    20787367.8214
  22938781.318        8990.510 9      4260.33349  22938780.942    22938787.6644
  23851529.339      770557.655 9    593796.01549  23851530.289    23851538.5184
  23049062.281     4585404.144 9   3542791.01449  23049064.095    23049069.6634
 99  4 14 16  3 30.0010000  0  7 19 02 07 27 26 15 13
  24222829.460     4792575.694 9   3352545.37649  24222830.413    24222838.2854
  21360901.331     1475189.356 9   1137881.99449  21360900.836    21360906.8814
  20975355.653     -517913.329 9   -403957.96149  20975355.234    20975361.6704
  20798500.772     2447197.178 9   1891039.00449  20798500.588    20798506.7964
  22937409.410        1781.513 9     -1357.08049  22937408.942    22937416.1644
  23854327.931      785262.876 9    605254.67249  23854326.094    23854332.9924
  23071477.824     4703198.492 9   3634578.71749  23071476.159    23071483.1974
 99  4 14 16  4  0.0010000  0  7 19 02 07 27 26 15 13
  24245228.289     4910280.910 9   3444263.49049  24245227.039    24245238.3564
  21365871.362     1501306.792 9   1158233.22949  21365870.885    21365876.9134
  20971055.543     -540510.698 9   -421566.28549  20971054.981    20971061.2884
  20809620.294     2505630.352 9   1936571.30449  20809620.280    20809626.0524
  22936032.130       -5455.926 9     -6996.65649  22936032.595    22936038.5444
  23857128.994      799983.598 9    616725.34849  23857127.954    23857134.1334
  23093832.763     4820673.995 9   3726117.93649  23093835.610    23093838.2684
 99  4 14 16  4 30.0010000  0  7 19 02 07 27 26 15 13
  24267559.562     5027631.537 9   3535705.28149  24267559.958    24267571.5644
  21370771.273     1527055.833 9   1178297.40449  21370770.783    21370776.9364
  20966740.752     -563185.091 9   -439234.63249  20966740.278    20966746.6574
  20820723.209     2563976.280 9   1982035.62149  20820723.123    20820728.9144
  22934651.375      -12712.147 9    -12650.86349  22934651.481    22934657.7944
  23859935.256      814730.456 9    628216.44149  23859935.091    23859945.8754
  23116126.550     4937828.480 9   3817407.01249  23116126.109    23116134.5284
 99  4 14 16  5  0.0010000  0  7 19 02 07 27 26 15 13
  24289823.815     5144630.788 9   3626873.29449  24289822.186    24289835.9164
  21375602.167     1552442.353 9   1198079.09049  21375601.639    21375607.8804
  20962412.052     -585932.713 9   -456960.03949  20962411.604    20962418.1154
  20831814.588     2622261.561 9   2027452.68049  20831814.485    20831820.4874
  22933272.687      -19957.646 9    -18296.71349  22933273.485    22933279.4604
  23862748.793      829514.285 9    639736.31449  23862747.294    23862754.5744
  23138359.409     5054662.287 9   3908446.22349  23138361.176    23138367.2414
 99  4 14 16  5 30.0010000  0  7 19 02 07 27 26 15 13
  24312000.138     5261168.084 9   3717681.30749  24312000.742    24312010.6844
  21380340.491     1577342.146 9   1217481.50749  21380340.069    21380346.0254
  20958045.066     -608881.325 9   -474842.06349  20958044.438    20958051.0044
  20842874.466     2680381.310 9   2072740.74549  20842874.248    20842880.3884
  22931874.360      -27305.877 9    -24022.62649  22931873.814    22931880.5274
  23865545.624      844212.353 9    651189.35949  23865544.957    23865554.7524
  23160507.796     5171051.072 9   3999138.64949  23160507.384    23160513.7844
 99  4 14 16  6  0.0010000  0  7 19 02 07 27 26 15 13
  24334107.725     5377342.910 9   3808206.91049  24334109.027    24334120.3404
  21385004.930     1601853.647 9   1236581.36049  21385004.449    21385010.5724
  20953658.299     -631933.551 9   -492804.82849  20953657.785    20953664.1754
  20853923.650     2738445.025 9   2117985.14949  20853923.639    20853929.5674
  22930476.512      -34651.571 9    -29746.54649  22930476.991    22930483.6274
  23868345.669      858926.875 9    662655.18549  23868344.899    23868354.6844
  23182590.849     5287098.095 9   4089564.80549  23182592.915    23182596.3544
 99  4 14 16  6 30.0010000  0  7 19 02 07 27 26 15 13
  24356181.384     5493340.430 9   3898594.33749  24356183.465    24356193.7094
  21389629.867     1626157.771 9   1255519.62749  21389629.288    21389635.5734
  20949286.340     -654908.431 9   -510707.31149  20949285.881    20949292.2934
  20864998.390     2796642.986 9   2163334.16949  20864998.302    20865004.3514
  22929115.910      -41801.764 9    -35318.13749  22929115.933    22929121.1934
  23871184.579      873845.564 9    674280.16149  23871183.364    23871192.5284
  23204644.661     5402990.940 9   4179870.76549  23204645.348    23204649.7774
 99  4 14 16  7  0.0010000  0  7 19 02 07 27 26 15 13
  24378224.905     5609178.982 9   3988857.90749  24378225.795    24378236.9404
  21394212.934     1650241.936 9   1274286.49249  21394212.395    21394218.5934
  20944927.300     -677815.444 9   -528556.91649  20944926.749    20944933.1344
  20876095.115     2854956.510 9   2208773.22749  20876095.090    20876101.0364
  22927788.046      -48779.086 9    -40755.02449  22927788.452    22927795.2214
  23874061.223      888961.760 9    686058.98549  23874060.502    23874071.4004
  23226668.188     5518725.355 9   4270053.31149  23226669.241    23226677.1074
 99  4 14 16  7 30.0010000  0  7 19 02 07 27 26 15 13
  24400234.827     5724839.688 9   4078982.89049  24400235.778    24400245.7074
  21398751.513     1674092.244 9   1292871.12849  21398750.983    21398757.2674
  20940580.075     -700660.375 9   -546358.14749  20940579.638    20940586.1074
  20887206.258     2913345.388 9   2254271.00549  20887206.148    20887211.9774
  22926485.249      -55625.675 9    -46090.03349  22926486.214    22926492.2224
  23876971.178      904256.508 9    697976.96749  23876970.138    23876979.6484
  23248658.323     5634283.999 9   4360098.86349  23248658.089    23248666.6884
 99  4 14 16  8  0.0010000  0  7 19 02 07 27 26 15 13
  24422201.835     5840274.890 9   4168932.12649  24422202.771    24422213.0834
  21403238.198     1697669.840 9   1311243.26249  21403237.677    21403243.6774
  20936240.633     -723464.519 9   -564127.59849  20936239.993    20936246.7014
  20898322.829     2971763.300 9   2299791.40449  20898322.722    20898328.8504
  22925201.205      -62374.177 9    -51348.61649  22925202.083    22925207.9344
  23879909.706      919698.779 9    710009.91349  23879912.031    23879918.1794
  23270606.743     5749623.877 9   4449973.96249  23270608.533    23270614.6894
 99  4 14 16  8 30.0010000  0  7 19 02 07 27 26 15 13
  24444138.679     5955552.105 9   4258758.25949  24444140.414    24444149.5204
  21407685.854     1721042.239 9   1329455.50549  21407685.338    21407691.3844
  20931924.607     -746145.414 9   -581801.01049  20931924.031    20931930.7274
  20909457.192     3030274.495 9   2345384.49249  20909457.224    20909463.0164
  22923946.754      -68967.033 9    -56485.92049  22923947.272    22923953.1664
  23882890.139      935358.211 9    722212.00049  23882889.000    23882896.9364
  23292526.924     5864814.298 9   4539732.56049  23292526.390    23292534.4884
 99  4 14 16  9  0.0010000  0  7 19 02 07 27 26 15 13
  24466042.430     6070656.008 9   4348449.35649  24466042.621    24466053.6344
  21412093.860     1744206.363 9   1347505.45449  21412093.426    21412099.6614
  20927632.269     -768701.810 9   -599377.41249  20927631.722    20927638.3514
  20920608.552     3088875.041 9   2391047.20549  20920608.574    20920614.4224
  22922720.095      -75413.730 9    -61509.32449  22922720.461    22922727.2074
  23885909.236      951223.958 9    734574.97049  23885906.051    23885919.0274
  23314416.043     5979841.770 9   4629364.22449  23314416.725    23314421.8774
 99  4 14 16  9 30.0010000  0  7 19 02 07 27 26 15 13
  24487910.416     6185572.044 9   4437994.06549  24487911.102    24487921.1004
  21416465.771     1767180.758 9   1365407.56449  21416465.360    21416471.4434
  20923367.724     -791112.516 9   -616840.28749  20923367.084    20923373.4624
  20931784.334     3147603.632 9   2436809.69249  20931784.207    20931790.1534
  22921530.367      -81665.837 9    -66381.09549  22921529.745    22921536.5184
  23888971.544      967316.810 9    747114.80149  23888972.059    23888975.6134
  23336273.194     6094701.334 9   4718865.05449  23336272.165    23336277.9284
 99  4 14 16 10  0.0010000  0  7 19 02 07 27 26 15 13
  24509746.794     6300321.126 9   4527408.67149  24509748.045    24509758.9044
  21420801.720     1789966.028 9   1383162.29949  21420801.138    21420807.3344
  20919130.447     -813379.533 9   -634191.19749  20919129.968    20919136.4224
  20942989.010     3206484.573 9   2482690.89949  20942988.861    20942995.1944
  22920382.369      -87698.384 9    -71081.80049  22920382.889    22920388.0884
  23892079.473      983650.034 9    759842.00749  23892078.418    23892089.3124
  23358098.465     6209393.156 9   4808235.18649  23358098.735    23358105.8884
 99  4 14 16 10 30.0010000  0  7 19 02 07 27 26 15 13
  24531549.599     6414894.787 9   4616686.57749  24531549.312    24531561.5884
  21425100.719     1812557.680 9   1400766.16749  21425100.192    21425106.3584
  20914916.021     -835526.311 9   -651448.41249  20914915.515    20914922.1414
  20954223.262     3265520.663 9   2528692.99649  20954223.253    20954229.2004
  22919273.277      -93526.310 9    -75623.05349  22919273.717    22919279.9004
  23895232.001     1000215.657 9    772750.28749  23895230.646    23895240.7504
  23379889.623     6323905.429 9   4897465.38749  23379889.180    23379896.2604
 99  4 14 16 11  0.0010000  0  7 19 02 07 27 26 15 13
  24553315.860     6529276.686 9   4705815.05649  24553316.792    24553327.4264
  21429358.815     1834933.626 9   1418201.95149  21429358.474    21429364.3704
  20910720.115     -857576.017 9   -668629.99349  20910719.620    20910726.0424
  20965484.700     3324699.713 9   2574806.49249  20965484.537    20965490.8034
  22918203.787      -99146.568 9    -80002.48849  22918204.057    22918210.8314
  23898425.785     1017001.358 9    785830.00049  23898425.714    23898434.3514
  23401642.443     6438216.845 9   4986539.06049  23401641.731    23401648.8134
 99  4 14 16 11 30.0010000  0  7 19 02 07 27 26 15 13
  24575047.931     6643478.930 9   4794803.50349  24575049.467    24575059.7174
  21433574.992     1857089.594 9   1435466.32249  21433574.485    21433580.3524
  20906540.903     -879537.831 9   -685743.08349  20906540.273    20906546.7534
  20976769.632     3384001.908 9   2621015.93849  20976769.475    20976775.3574
  22917171.466     -104571.367 9    -84229.61149  22917172.172    22917177.9844
  23901661.973     1034005.906 9    799080.24549  23901663.772    23901671.1374
  23423357.797     6552331.622 9   5075459.55249  23423359.985    23423366.6884
 99  4 14 16 12  0.0010000  0  7 19 02 07 27 26 15 13
  24596756.605     6757556.993 9   4883695.22149  24596757.109    24596769.3034
  21437758.212     1879072.311 9   1452595.69449  21437757.429    21437763.7334
  20902384.840     -901378.198 9   -702761.54249  20902384.280    20902390.5864
  20988083.473     3443456.539 9   2667344.17449  20988083.432    20988089.4484
  22916177.436     -109795.361 9    -88300.27049  22916177.161    22916183.8954
  23904947.307     1051267.458 9    812530.75249  23904948.209    23904955.4104
  23445048.759     6666317.887 9   5164279.84849  23445049.430    23445056.8384
 99  4 14 16 12 30.0010000  0  7 19 02 07 27 26 15 13
  24618439.693     6871501.071 9   4972482.55549  24618439.959    24618451.8574
  21441911.132     1900896.018 9   1469601.16149  21441910.814    21441916.7064
  20898253.293     -923089.839 9   -719679.68949  20898252.991    20898259.1994
  20999427.685     3503070.471 9   2713796.53849  20999427.429    20999433.5104
  22915223.471     -114808.140 9    -92206.34749  22915223.341    22915230.6074
  23908282.030     1068791.708 9    826186.03949  23908279.862    23908290.7824
  23466717.490     6780187.578 9   5253009.28749  23466718.639    23466726.5104
 99  4 14 16 13  0.0010000  0  7 19 02 07 27 26 15 13
  24640095.845     6985303.543 9   5061159.54649  24640097.356    24640108.7504
  21446031.517     1922548.596 9   1486473.28149  21446031.012    21446036.9544
  20894147.048     -944668.340 9   -736494.09049  20894146.373    20894152.9774
  21010797.459     3562818.670 9   2760353.52749  21010797.508    21010803.5104
  22914308.423     -119616.788 9    -95953.36049  22914308.674    22914315.1974
  23911664.060     1086563.124 9    840033.85049  23911665.149    23911674.4564
  23488360.847     6893923.526 9   5341634.57949  23488363.804    23488370.7274
 99  4 14 16 13 30.0010000  0  7 19 02 07 27 26 15 13
  24661732.673     7099004.880 9   5149757.70449  24661733.617    24661744.7854
  21450129.428     1944083.075 9   1503253.37749  21450128.755    21450134.9774
  20890072.700     -966078.848 9   -753177.59649  20890072.044    20890078.3674
  21022197.337     3622725.267 9   2807033.94249  21022197.326    21022203.3824
  22913437.463     -124193.659 9    -99519.76949  22913438.497    22913443.8764
  23915099.477     1104614.178 9    854099.60049  23915099.781    23915107.4714
  23509981.895     7007542.071 9   5430168.35149  23509980.459    23509989.9734
 99  4 14 16 14  0.0010000  0  7 19 02 07 27 26 15 13
  24683348.292     7212595.353 9   5238269.44949  24683349.163    24683359.9244
  21454206.485     1965508.613 9   1519948.58549  21454205.782    21454212.0534
  20886034.262     -987300.976 9   -769714.31149  20886033.630    20886040.2304
  21033632.012     3682814.652 9   2853856.78349  21033632.040    21033638.2054
  22912616.392     -128508.822 9   -102882.25749  22912616.765    22912622.9264
  23918589.898     1122957.565 9    868393.03049  23918588.496    23918598.1174
  23531578.632     7121032.435 9   5518602.22949  23531577.598    23531586.6614
 99  4 14 16 14 30.0010000  0  7 19 02 07 27 26 15 13
  24704945.628     7326089.202 9   5326705.90649  24704946.511    24704958.4754
  21458264.276     1986832.247 9   1536564.38749  21458263.653    21458269.5124
  20882035.122    -1008316.652 9   -786090.15149  20882034.488    20882040.9184
  21045103.573     3743097.684 9   2900830.51949  21045103.418    21045109.5484
  22911852.035     -132526.033 9   -106012.55649  22911852.025    22911859.0754
  23922138.582     1141608.069 9    882925.94049  23922137.829    23922138.1324
  23553149.181     7234386.223 9   5606929.71949  23553150.453    23553157.7504
 99  4 14 16 15  0.0010000  0  7 19 02 07 27 26 15 13
  24726526.444     7439495.677 9   5415074.31249  24726526.172    24726539.1514
  21462304.480     2008063.373 9   1553108.10149  21462303.926    21462310.0454
  20878077.199    -1029115.853 9   -802297.31249  20878076.598    20878083.0084
  21056611.321     3803571.195 9   2947952.68149  21056611.371    21056617.2664
  22911143.453     -136250.181 9   -108914.51449  22911144.005    22911150.3334
  23925746.466     1160568.654 9    897700.44449  23925744.722    23925756.1734
  23574692.054     7347593.424 9   5695142.98549  23574693.899    23574701.2114
 99  4 14 16 15 30.0010000  0  7 19 02 07 27 26 15 13
  24748099.617     7552862.045 9   5503411.42649  24748099.537    24748112.4204
  21466337.772     2029258.455 9   1569623.73649  21466337.244    21466343.5044
  20874171.074    -1049642.987 9   -818292.47249  20874170.572    20874176.7844
  21068169.589     3864309.953 9   2995281.52449  21068169.780    21068175.5644
  22910501.560     -139623.375 9   -111542.98449  22910502.179    22910507.8484
  23929425.662     1179907.112 9    912769.24849  23929425.064    23929435.6284
  23596220.166     7460723.630 9   5783296.21449  23596220.706    23596229.6714
 99  4 14 16 16  0.0010000  0  7 19 02 07 27 26 15 13
  24769667.703     7666201.882 9   5591727.88049  24769669.485    24769680.6304
  21470363.834     2050415.463 9   1586109.69649  21470363.457    21470369.2894
  20870321.744    -1069871.206 9   -834054.70949  20870321.327    20870327.5184
  21079785.103     3925349.406 9   3042844.68249  21079785.118    21079790.9594
  22909929.468     -142629.677 9   -113885.55749  22909929.546    22909935.8194
  23933182.498     1199646.567 9    928150.67649  23933181.643    23933191.0974
  23617742.040     7573821.518 9   5871424.24349  23617743.976    23617751.7694
 99  4 14 16 16 30.0010000  0  7 19 02 07 27 26 15 13
  24791213.432     7779424.478 9   5679952.99849  24791213.440    24791226.1824
  21474366.166     2071447.512 9   1602498.29949  21474365.716    21474371.9404
  20866511.808    -1089892.812 9   -849655.94949  20866511.085    20866517.5094
  21091439.018     3986590.749 9   3090565.15849  21091438.771    21091444.8644
  22909405.975     -145381.370 9   -116029.74949  22909406.498    22909412.6874
  23936997.716     1219694.624 9    943772.52849  23936997.881    23937007.1434
  23639240.981     7686798.127 9   5959457.78149  23639243.862    23639250.7124
 99  4 14 16 17  0.0010000  0  7 19 02 07 27 26 15 13
  24812737.932     7892535.329 9   5768090.98049  24812739.408    24812749.7914
  21478347.928     2092371.664 9   1618802.81449  21478347.350    21478353.5494
  20862746.456    -1109679.758 9   -865074.33749  20862745.932    20862752.2124
  21103135.927     4048058.405 9   3138461.97649  21103135.803    21103141.9054
  22908932.935     -147867.361 9   -117966.89949  22908933.126    22908939.0944
  23940875.374     1240071.336 9    959650.45949  23940875.037    23940883.7494
  23660721.172     7799676.688 9   6047414.96149  23660723.422    23660730.4424
 99  4 14 16 17 30.0010000  0  7 19 02 07 27 26 15 13
  24834242.420     8005540.122 9   5856146.36649  24834242.891    24834256.2354
  21482308.511     2113184.433 9   1635020.53949  21482308.118    21482314.4634
  20859025.751    -1129232.165 9   -880309.97349  20859025.207    20859031.3224
  21114878.468     4109765.692 9   3186545.52249  21114878.404    21114884.4634
  22908511.861     -150079.685 9   -119690.80149  22908511.947    22908518.7224
  23944817.957     1260789.356 9    975794.32149  23944818.027    23944827.0774
  23682187.882     7912483.616 9   6135316.35149  23682187.693    23682197.8634
 99  4 14 16 18  0.0010000  0  7 19 02 07 27 26 15 13
  24855729.411     8118454.082 9   5944130.97749  24855729.227    24855741.6804
  21486253.350     2133914.515 9   1651173.83149  21486253.027    21486258.8474
  20855350.981    -1148543.386 9   -895357.66649  20855350.321    20855356.5364
  21126667.609     4171717.579 9   3234819.66349  21126667.622    21126673.8384
  22908144.705     -152009.122 9   -121194.28049  22908145.301    22908151.8064
  23948827.662     1281859.922 9    992212.91949  23948828.801    23948835.2754
  23703641.178     8025220.736 9   6223163.23749  23703641.620    23703648.2384
 99  4 14 16 18 30.0010000  0  7 19 02 07 27 26 15 13
  24877195.103     8231255.934 9   6032028.18349  24877195.956    24877207.7144
  21490181.558     2154557.185 9   1667259.01149  21490181.087    21490187.2614
  20851715.996    -1167645.281 9   -910242.25049  20851715.428    20851721.6674
  21138496.276     4233877.311 9   3283255.76149  21138496.264    21138502.3694
  22907828.254     -153672.348 9   -122490.30949  22907828.750    22907834.8034
  23952899.523     1303256.796 9   1008885.74749  23952900.612    23952907.7134
  23725072.791     8137844.158 9   6310921.57049  23725074.623    23725081.2894
 99  4 14 16 19  0.0010000  0  7 19 02 07 27 26 15 13
  24898651.139     8344006.594 9   6119885.51549  24898652.252    24898662.3584
  21494100.324     2175150.109 9   1683305.42749  21494099.854    21494105.8644
  20848125.977    -1186510.861 9   -924942.69449  20848125.263    20848131.9454
  21150372.814     4296288.958 9   3331888.15549  21150372.692    21150378.5824
  22907572.606     -155015.788 9   -123537.17049  22907573.297    22907578.8314
  23957041.410     1325021.227 9   1025845.08349  23957040.476    23957049.6974
  23746491.959     8250401.936 9   6398628.74349  23746492.815    23746498.4814
 99  4 14 16 19 30.0010000  0  7 19 02 07 27 26 15 13
  24920090.022     8456667.839 9   6207673.14449  24920090.141    24920102.8244
  21498000.284     2195644.507 9   1699275.06649  21497999.525    21498005.8204
  20844568.060    -1205207.869 9   -939511.78549  20844567.536    20844573.8814
  21162285.115     4358888.169 9   3380666.70449  21162285.125    21162291.1424
  22907368.465     -156089.237 9   -124373.63749  22907368.809    22907375.2224
  23961241.476     1347094.980 9   1043045.34549  23961238.889    23961250.7524
  23767884.632     8362820.170 9   6486227.17949  23767884.926    23767890.3594
 99  4 14 16 20  0.0010000  0  7 19 02 07 27 26 15 13
  24941523.224     8569298.907 9   6295437.33349  24941522.124    24941535.9704
  21501891.332     2216092.297 9   1715208.38649  21501890.861    21501897.0134
  20841054.292    -1223672.725 9   -953899.97849  20841053.819    20841060.1124
  21174242.024     4421721.648 9   3429627.79949  21174241.987    21174248.1244
  22907229.696     -156818.422 9   -124941.84849  22907230.394    22907236.3624
  23965509.834     1369526.514 9   1060524.41149  23965509.763    23965518.1174
  23789257.235     8475132.875 9   6573743.40149  23789257.730    23789263.0034
 99  4 14 16 20 30.0010000  0  7 19 02 07 27 26 15 13
  24962951.399     8681904.543 9   6383181.59449  24962951.828    24962963.9754
  21505767.612     2236462.159 9   1731080.98949  21505766.997    21505773.4494
  20837585.539    -1241901.178 9   -968103.95849  20837584.920    20837591.2114
  21186244.395     4484794.284 9   3478775.25349  21186244.238    21186250.4184
  22907158.504     -157192.372 9   -125233.24649  22907158.864    22907165.5384
  23969846.245     1392314.674 9   1078281.40049  23969844.942    23969855.8294
  23810609.674     8587340.091 9   6661177.39249  23810610.088    23810614.1234
 99  4 14 16 21  0.0010000  0  7 19 02 07 27 26 15 13
  24984371.928     8794469.314 9   6470894.08749  24984372.419    24984385.7794
  21509625.490     2256735.439 9   1746878.32649  21509625.026    21509630.9764
  20834163.632    -1259883.184 9   -982115.90549  20834163.059    20834169.2664
  21198293.549     4548112.997 9   3528114.45649  21198293.527    21198299.2864
  22907154.979     -157210.976 9   -125247.76549  22907155.596    22907161.6614
  23974251.895     1415466.957 9   1096322.07949  23974251.801    23974260.0884
  23831942.403     8699443.622 9   6748530.55249  23831943.978    23831949.2114
 99  4 14 16 21 30.0010000  0  7 19 02 07 27 26 15 13
  25005778.473     8906959.841 9   6558548.65049  25005778.770    25005791.7184
  21513464.272     2276908.379 9   1762597.47949  21513463.659    21513470.0824
  20830791.326    -1277604.824 9   -995924.96449  20830790.754    20830797.1344
  21210388.621     4611672.338 9   3577641.15549  21210388.893    21210394.9614
  22907216.779     -156886.568 9   -124994.99249  22907216.994    22907223.0834
  23978726.721     1438982.144 9   1114645.59749  23978725.484    23978735.2564
  23853252.596     8811428.455 9   6835791.30649  23853253.466    23853259.5954
 99  4 14 16 22  0.0010000  0  7 19 02 07 27 26 15 13
  25027168.903     9019365.887 9   6646137.44949  25027169.681    25027182.1094
  21517285.849     2296990.728 9   1778246.04049  21517285.233    21517291.3034
  20827472.436    -1295045.825 9  -1009515.34749  20827471.931    20827477.8904
  21222533.331     4675493.046 9   3627371.52549  21222532.976    21222539.3584
  22907342.856     -156224.251 9   -124478.92849  22907342.637    22907348.8414
  23983273.307     1462874.658 9   1133263.08049  23983274.055    23983282.0064
  23874544.504     8923317.736 9   6922977.60149  23874546.585    23874552.5814
 99  4 14 16 22 30.0010000  0  7 19 02 07 27 26 15 13
  25048537.496     9131656.543 9   6733636.28849  25048539.337    25048552.2234
  21521088.735     2316974.917 9   1793818.11349  21521088.311    21521094.5174
  20824200.358    -1312240.579 9  -1022913.85049  20824199.756    20824206.1474
  21234722.888     4739549.559 9   3677285.63049  21234722.777    21234729.1374
  22907522.256     -155281.217 9   -123744.12349  22907522.722    22907528.9124
  23987887.391     1487121.684 9   1152156.81849  23987886.362    23987894.9854
  23895813.455     9035086.618 9   7010070.07049  23895815.031    23895822.7484
 99  4 14 16 23  0.0010000  0  7 19 02 07 27 26 15 13
  25069890.587     9243864.782 9   6821070.92949  25069891.155    25069904.1204
  21524886.433     2336931.822 9   1809368.92149  21524885.752    21524892.1884
  20820981.543    -1329155.729 9  -1036094.47849  20820981.065    20820987.4924
  21246962.139     4803866.939 9   3727403.00849  21246962.134    21246968.2054
  22907759.387     -154034.704 9   -122772.84049  22907759.498    22907765.4744
  23992574.741     1511754.911 9   1171351.51149  23992574.996    23992584.6554
  23917066.030     9146769.179 9   7097095.28649  23917065.760    23917075.7954
 99  4 14 16 23 30.0010000  0  6 02 07 27 26 15 13
  21528682.171     2356878.413 9   1824911.69449  21528681.604    21528687.7134
  20817815.121    -1345795.349 9  -1049060.41049  20817814.507    20817820.9194
  21259251.853     4868449.458 9   3777726.98849  21259251.766    21259257.9274
  22908057.175     -152470.207 9   -121553.78549  22908056.982    22908064.3324
  23997335.258     1536770.107 9   1190843.78849  23997334.501    23997343.5514
  23938303.824     9258373.856 9   7184059.83049  23938303.957    23938313.6704
 99  4 14 16 24  0.0010000  0  6 02 07 27 26 15 13
  21532475.761     2376813.814 9   1840445.75449  21532475.387    21532481.2904
  20814700.163    -1362164.583 9  -1061815.64749  20814699.573    20814705.9564
  21271591.270     4933293.119 9   3828254.45949  21271591.194    21271597.2784
  22908419.985     -150563.538 9   -120068.09249  22908420.930    22908426.7374
  24002168.287     1562167.667 9   1210634.09749  24002167.425    24002177.3654
  23959528.562     9369910.485 9   7270971.25649  23959528.933    23959535.8224
 99  4 14 16 24 30.0010000  0  6 02 07 27 26 15 13
  21536274.652     2396777.075 9   1856001.50849  21536274.148    21536280.3514
  20811644.926    -1378219.881 9  -1074326.26549  20811644.268    20811650.5214
  21283985.614     4998425.981 9   3879007.27749  21283985.483    21283991.9244
  22908860.620     -148248.698 9   -118264.34649  22908860.456    22908867.2714
  24007081.933     1587989.252 9   1230754.73149  24007081.683    24007091.3644
  23980746.730     9481412.409 9   7357855.66249  23980746.984    23980755.8514
 99  4 14 16 25  0.0010000  0  6 02 07 27 26 15 13
  21540072.193     2416733.487 9   1871551.94049  21540071.769    21540077.9104
  20808648.891    -1393964.273 9  -1086594.60849  20808648.203    20808654.5834
  21296434.760     5063846.482 9   3929984.24049  21296434.245    21296440.8134
  22909380.881     -145514.428 9   -116133.77349  22909380.596    22909387.2994
  24012074.628     1614225.214 9   1251198.26249  24012072.658    24012083.1014
  24001956.628     9592869.573 9   7444705.26349  24001956.701    24001966.3064
 99  4 14 16 25 30.0010000  0  6 02 07 27 26 15 13
  21543862.365     2436650.331 9   1887071.52549  21543861.805    21543868.0374
  20805709.720    -1409409.586 9  -1098629.91349  20805709.127    20805715.6094
  21308938.282     5129552.767 9   3981183.87649  21308938.139    21308944.7134
  22909979.256     -142369.835 9   -113683.46349  22909979.161    22909986.0434
  24017144.459     1640867.224 9   1271958.22749  24017144.787    24017154.0694
  24023152.442     9704254.214 9   7531498.31049  24023153.617    24023163.0564
 99  4 14 16 26  0.0010000  0  6 02 07 27 26 15 13
  21547643.593     2456520.913 9   1902555.07549  21547642.817    21547649.1414
  20802824.607    -1424571.026 9  -1110444.01449  20802824.194    20802830.2694
  21321494.431     5195535.832 9   4032599.18349  21321494.227    21321500.4934
  22910648.166     -138854.973 9   -110944.64749  22910648.388    22910654.8024
  24022289.943     1667906.205 9   1293027.51349  24022289.915    24022300.0844
  24044328.414     9815533.645 9   7618209.33249  24044330.506    24044336.0364
 99  4 14 16 26 30.0010000  0  6 02 07 27 26 15 13
  21551417.983     2476355.593 9   1918010.64249  21551417.534    21551423.3744
  20799992.649    -1439453.085 9  -1122040.41549  20799992.085    20799998.3694
  21334107.719     5261818.672 9   4084248.09149  21334107.665    21334113.9864
  22911384.302     -134987.433 9   -107931.00849  22911384.768    22911391.0934
  24027512.163     1695347.995 9   1314410.64149  24027512.629    24027520.1104
  24065482.113     9926696.322 9   7704829.41249  24065483.143    24065489.5484
 99  4 14 16 27  0.0010000  0  6 02 07 27 26 15 13
  21555189.706     2496175.850 9   1933454.96949  21555189.433    21555195.3594
  20797215.689    -1454046.215 9  -1133411.68149  20797215.138    20797221.3804
  21346784.654     5328436.116 9   4136157.72549  21346784.629    21346791.1364
  22912188.744     -130761.062 9   -104637.76449  22912188.752    22912194.6874
  24032814.753     1723211.936 9   1336122.75349  24032814.759    24032822.4824
  24086616.790    10037759.980 9   7791372.28349  24086616.592    24086625.9464
 99  4 14 16 27 30.0010000  0  6 02 07 27 26 15 13
  21558962.395     2516000.942 9   1948903.06549  21558961.901    21558968.0194
  20794492.998    -1468353.952 9  -1144560.56649  20794492.362    20794498.4684
  21359521.690     5395369.363 9   4188313.43149  21359521.251    21359527.9754
  22913059.786     -126183.515 9   -101070.89349  22913060.428    22913066.5174
  24038196.844     1751493.841 9   1358160.56649  24038199.121    24038205.0054
  24107730.253    10148710.342 9   7877826.95449  24107731.725    24107740.1024
 99  4 14 16 28  0.0010000  0  6 02 07 27 26 15 13
  21562737.228     2535837.812 9   1964360.34249  21562736.768    21562743.0644
  20791829.052    -1482353.103 9  -1155468.98949  20791828.347    20791834.6054
  21372318.296     5462615.798 9   4240713.18549  21372318.312    21372324.6834
  22913999.894     -121242.964 9    -97221.13749  22913999.858    22914006.2034
  24043660.188     1780204.103 9   1380532.08049  24043658.042    24043668.0594
  24128825.342    10259564.829 9   7964206.87249  24128826.471    24128833.5824
 99  4 14 16 28 30.0010000  0  6 02 07 27 26 15 13
  21566512.739     2555678.065 9   1979820.25149  21566512.264    21566518.4324
  20789226.998    -1496026.925 9  -1166123.91349  20789226.508    20789232.5974
  21385172.609     5530165.388 9   4293349.16149  21385172.663    21385179.1444
  22915011.406     -115927.678 9    -93079.39249  22915011.927    22915018.1874
  24049205.199     1809343.710 9   1403238.22049  24049203.933    24049212.4144
  24149904.063    10370333.015 9   8050519.53349  24149905.688    24149912.2104
 99  4 14 16 29  0.0010000  0  6 02 07 27 26 15 13
  21570287.569     2575515.013 9   1995277.58349  21570286.831    21570293.2154
  20786688.859    -1509364.965 9  -1176517.18749  20786688.165    20786694.4214
  21398079.314     5597989.874 9   4346199.33949  21398079.448    21398085.6214
  22916093.439     -110241.733 9    -88648.81849  22916093.818    22916100.0924
  24054829.714     1838901.498 9   1426270.19249  24054829.778    24054838.7834
  24170963.934    10481002.322 9   8136755.10149  24170964.609    24170972.8674
 99  4 14 16 29 30.0010000  0  6 02 07 27 26 15 13
  21574059.113     2595334.643 9   2010721.42249  21574058.460    21574064.6414
  20784213.612    -1522372.450 9  -1186652.88749  20784212.779    20784219.1634
  21411034.361     5666068.850 9   4399247.81949  21411034.140    21411040.7034
  22917242.582     -104203.197 9    -83943.50149  22917242.863    22917248.8654
  24060531.454     1868864.935 9   1449618.21549  24060529.612    24060541.2624
  24192000.629    10591550.174 9   8222896.15049  24192001.286    24192010.6534
 99  4 14 16 30  0.0010000  0  6 02 07 27 26 15 13
  21577830.622     2615153.761 9   2026164.86249  21577830.269    21577836.5024
  20781804.180    -1535033.954 9  -1196518.99549  20781803.617    20781809.9264
  21424044.390     5734436.897 9   4452521.55649  21424044.143    21424051.0294
  22918463.012      -97790.084 9    -78946.30949  22918462.988    22918469.4824
  24066314.849     1899258.193 9   1473301.21549  24066312.638    24066324.7784
  24213018.977    10702001.862 9   8308962.19849  24213020.665    24213028.7994
 99  4 14 16 30 30.0010000  0  6 02 07 27 26 15 13
  21581600.253     2634963.009 9   2041600.60249  21581599.889    21581606.0764
  20779453.211    -1547388.488 9  -1206145.90349  20779452.704    20779458.8074
  21437105.253     5803072.008 9   4506003.38849  21437105.351    21437111.7284
  22919753.526      -91008.064 9    -73661.65449  22919753.865    22919760.4884
  24072175.199     1930058.798 9   1497301.62349  24072172.382    24072187.4034
  24234015.133    10812336.329 9   8394936.89949  24234016.899    24234023.1694
 99  4 14 16 31  0.0010000  0  6 02 07 27 26 15 13
  21585370.738     2654776.751 9   2057039.86049  21585370.139    21585376.5514
  20777160.104    -1559438.769 9  -1215535.73049  20777159.382    20777165.7104
  21450221.489     5871997.624 9   4559711.59249  21450221.541    21450227.6524
  22921119.072      -83832.477 9    -68070.32649  22921119.449    22921125.7704
  24078116.451     1961280.650 9   1521630.25549  24078115.497    24078128.2814
  24254990.879    10922563.908 9   8480828.27449  24254993.018    24255001.9374
 99  4 14 16 31 30.0010000  0  6 02 07 27 26 15 13
  21589145.839     2674614.919 9   2072498.14649  21589145.396    21589151.8904
  20774926.588    -1571175.928 9  -1224681.56949  20774926.198    20774932.3394
  21463398.907     5941244.729 9   4613670.30449  21463398.738    21463405.3314
  22922566.813      -76224.875 9    -62142.36649  22922566.937    22922573.3644
  24084143.591     1992951.856 9   1546309.06749  24084145.703    24084154.4524
  24275954.776    11032729.032 9   8566671.08949  24275955.945    24275965.4854
 99  4 14 16 32  0.0010000  0  6 02 07 27 26 15 13
  21592923.397     2694465.979 9   2087966.48149  21592922.960    21592929.3904
  20772749.529    -1582616.503 9  -1233596.29649  20772748.835    20772755.2814
  21476635.314     6010802.510 9   4667871.10049  21476635.055    21476641.6914
  22924096.990      -68184.376 9    -55877.07649  22924097.138    22924103.6154
  24090253.944     2025059.333 9   1571327.80649  24090254.364    24090262.5064
  24296906.200    11142828.447 9   8652462.56849  24296907.451    24296915.0904
 99  4 14 16 32 30.0010000  0  6 02 07 27 26 15 13
  21596703.125     2714328.678 9   2103443.88049  21596702.744    21596709.1784
  20770630.925    -1593749.913 9  -1242271.68549  20770630.382    20770636.7724
  21489933.922     6080686.958 9   4722326.43549  21489933.818    21489940.6584
  22925709.019      -59712.536 9    -49275.68649  22925709.661    22925715.8604
  24096447.721     2057605.198 9   1596688.12349  24096449.335    24096454.5734
  24317846.294    11252868.455 9   8738207.80149  24317846.785    24317856.5834
 99  4 14 16 33  0.0010000  0  6 02 07 27 26 15 13
  21600478.547     2734168.530 9   2118903.47949  21600478.090    21600484.6604
  20768566.367    -1604599.393 9  -1250725.82049  20768565.921    20768572.1584
  21503292.205     6150884.916 9   4777026.06649  21503292.540    21503298.9084
  22927393.853      -50858.620 9    -42376.55249  22927393.925    22927401.0074
  24102720.621     2090566.972 9   1622372.59349  24102722.163    24102729.5124
  24338769.747    11362821.314 9   8823885.22749  24338769.690    24338781.1674
 99  4 14 16 33 30.0010000  0  6 02 07 27 26 15 13
  21604256.000     2754019.044 9   2134371.38249  21604255.595    21604261.7224
  20766565.498    -1615114.161 9  -1258919.14749  20766564.986    20766570.9484
  21516715.065     6221422.038 9   4831989.97949  21516715.088    21516721.6804
  22929156.479      -41596.088 9    -35159.03049  22929156.855    22929163.2234
  24109078.855     2123977.996 9   1648407.11649  24109078.662    24109088.3094
  24359683.095    11472719.973 9   8909520.26249  24359682.523    24359691.9734
 99  4 14 16 34  0.0010000  0  6 02 07 27 26 15 13
  21608035.777     2773881.693 9   2149848.74349  21608035.378    21608041.5244
  20764630.318    -1625283.323 9  -1266843.17149  20764629.826    20764635.9834
  21530202.695     6292299.519 9   4887219.10949  21530202.871    21530209.3204
  22930992.703      -31946.781 9    -27640.12149  22930993.024    22930999.5344
  24115521.739     2157835.539 9   1674789.50649  24115521.592    24115530.6444
  24380582.460    11582545.228 9   8995098.18249  24380582.974    24380592.6314
 99  4 14 16 34 30.0010000  0  6 02 07 27 26 15 13
  21611825.635     2793797.347 9   2165367.41049  21611824.935    21611831.2124
  20762768.338    -1635068.275 9  -1274467.80649  20762767.875    20762774.0154
  21543759.112     6363538.685 9   4942730.07449  21543758.886    21543765.7414
  22932908.298      -21881.055 9    -19796.73349  22932908.278    22932914.8464
  24122056.267     2192176.294 9   1701548.45649  24122056.258    24122063.5324
  24401472.915    11692325.673 9   9080641.12749  24401473.981    24401482.5994
 99  4 14 16 35  0.0010000  0  6 02 07 27 26 15 13
  21615616.283     2813717.484 9   2180889.56149  21615615.841    21615621.9934
  20760968.280    -1644527.706 9  -1281838.79349  20760967.801    20760974.0584
  21557368.964     6435058.366 9   4998459.61349  21557368.924    21557375.3814
  22934893.829      -11447.193 9    -11666.49249  22934893.833    22934900.5944
  24128672.216     2226944.147 9   1728640.22749  24128671.658    24128681.3654
  24422342.488    11801995.181 9   9166097.62049  24422343.314    24422351.7684
 99  4 14 16 35 30.0010000  0  7 02 07 27 26 15 13 09
  21619414.865     2833679.016 9   2196443.96749  21619414.481    21619421.0674
  20759234.645    -1653638.104 9  -1288937.80749  20759234.191    20759240.4144
  21571033.805     6506867.473 9   5054414.68849  21571033.464    21571040.4914
  22936954.912        -616.109 9     -3226.72449  22936955.236    22936961.7964
  24135372.632     2262154.850 9   1756077.07649  24135374.538    24135381.3084
  24443191.683    11911557.881 9   9251470.95649  24443192.230    24443202.8124
  25014933.096    -3248458.004 9  -2297375.89349  25014933.052    25014941.9234
 99  4 14 16 36  0.0010000  0  7 02 07 27 26 15 13 09
  21623222.515     2853688.157 9   2212035.47649  21623222.085    21623228.0864
  20757561.655    -1662429.837 9  -1295788.50549  20757561.050    20757567.4564
  21584752.621     6578960.281 9   5110590.82149  21584752.657    21584759.3324
  22939089.973       10603.976 9      5516.15549  22939089.998    22939096.8874
  24142156.913     2297804.496 9   1783855.96249  24142156.233    24142165.0974
  24464018.739    12021003.223 9   9336752.80049  24464020.071    24464028.5794
  24997042.466    -3342473.564 9  -2370634.68649  24997040.899    24997050.0234
 99  4 14 16 36 30.0010000  0  7 02 07 27 26 15 13 09
  21627040.140     2873749.728 9   2227667.83649  21627039.852    21627045.8764
  20755946.977    -1670915.006 9  -1302400.33049  20755946.217    20755952.5904
  21598524.453     6651331.408 9   5166983.83449  21598524.553    21598531.4664
  22941301.245       22224.287 9     14570.90549  22941301.927    22941308.1744
  24149023.951     2333891.316 9   1811975.52649  24149024.238    24149033.4084
  24484822.117    12130324.568 9   9421938.02149  24484823.929    24484833.2604
  24979134.285    -3436580.709 9  -2443964.86849  24979134.685    24979143.0104
 99  4 14 16 37  0.0010000  0  7 02 07 27 26 15 13 09
  21630868.621     2893868.351 9   2243344.65149  21630868.202    21630874.6844
  20754393.026    -1679080.846 9  -1308763.32349  20754392.483    20754398.8524
  21612354.604     6724008.940 9   5223615.58449  21612354.788    21612361.2024
  22943590.025       34250.945 9     23942.27649  22943590.843    22943596.7044
  24155976.154     2370425.621 9   1840443.74149  24155976.665    24155986.0174
  24505602.340    12239523.723 9   9507028.04149  24505602.664    24505611.2164
  24961209.694    -3530774.660 9  -2517362.68349  24961208.985    24961217.4914
 99  4 14 16 37 30.0010000  0  7 02 07 27 26 15 13 09
  21634701.307     2914009.367 9   2259038.91349  21634700.988    21634707.2664
  20752897.180    -1686941.740 9  -1314888.69849  20752896.549    20752902.8434
  21626242.006     6796987.257 9   5280481.72449  21626242.044    21626248.6904
  22945952.386       46664.827 9     33615.39449  22945952.518    22945959.5914
  24163009.826     2407386.223 9   1869244.13749  24163007.968    24163019.4494
  24526355.817    12348583.890 9   9592009.72349  24526357.776    24526365.4844
  24943264.757    -3625076.246 9  -2590844.36249  24943264.847    24943272.8904
 99  4 14 16 38  0.0010000  0  7 02 07 27 26 15 13 09
  21638532.038     2934139.444 9   2274724.64749  21638531.676    21638537.6134
  20751457.790    -1694505.509 9  -1320782.54949  20751457.365    20751463.6494
  21640185.273     6870259.135 9   5337576.60849  21640185.182    21640192.0684
  22948385.655       59451.857 9     43579.26649  22948385.423    22948392.5594
  24170121.960     2444760.433 9   1898366.83249  24170121.833    24170130.6494
  24547082.455    12457501.267 9   9676880.19049  24547082.578    24547093.2134
  24925297.236    -3719495.963 9  -2664418.09249  24925297.236    24925303.3314
 99  4 14 16 38 30.0010000  0  7 02 07 27 26 15 13 09
  21642362.775     2954269.808 9   2290410.60949  21642362.424    21642368.8224
  20750086.000    -1701714.555 9  -1326399.98949  20750085.515    20750091.8614
  21654191.086     6943860.224 9   5394928.01749  21654191.065    21654197.7514
  22950896.170       72644.376 9     53859.10749  22950897.264    22950902.7214
  24177317.691     2482574.311 9   1927832.16049  24177315.563    24177326.3654
  24567786.716    12566302.731 9   9761660.23649  24567788.374    24567798.2574
  24907313.448    -3814000.586 9  -2738058.00749  24907315.204    24907322.1334
 99  4 14 16 39  0.0010000  0  7 02 07 27 26 15 13 09
  21646192.623     2974395.564 9   2306092.97949  21646192.333    21646198.5404
  20748784.299    -1708555.390 9  -1331730.51549  20748783.666    20748789.9974
  21668260.682     7017796.234 9   5452540.40549  21668260.625    21668267.4074
  22953484.859       86247.904 9     64459.22649  22953484.893    22953491.3044
  24184598.508     2520835.696 9   1957646.14849  24184599.050    24184607.8104
  24588473.169    12675008.888 9   9846366.19949  24588472.675    24588478.3674
  24889318.212    -3908566.251 9  -2811745.48449  24889317.884    24889326.3194
 99  4 14 16 39 30.0010000  0  7 02 07 27 26 15 13 09
  21650024.891     2994533.971 9   2321785.21149  21650024.460    21650030.7984
  20747553.698    -1715022.433 9  -1336769.77849  20747553.048    20747559.3794
  21682392.884     7092061.099 9   5510409.03349  21682392.662    21682399.5784
  22956155.545      100282.496 9     75395.22949  22956156.314    22956162.4164
  24191966.925     2559555.899 9   1987817.66049  24191966.630    24191976.2754
  24609145.793    12783645.231 9   9931017.54949  24609146.482    24609157.0174
  24871314.604    -4003175.460 9  -2885466.88149  24871313.818    24871321.9054
 99  4 14 16 40  0.0010000  0  7 02 07 27 26 15 13 09
  21653860.430     3014689.854 9   2337491.05549  21653859.765    21653866.1834
  20746389.628    -1721139.420 9  -1341536.26849  20746389.254    20746395.3274
  21696581.861     7166624.422 9   5568510.23049  21696581.899    21696588.4654
  22958902.885      114719.667 9     86644.93349  22958903.102    22958909.7994
  24199419.142     2598717.288 9   2018332.98349  24199417.822    24199428.7504
  24629801.234    12892189.400 9  10015597.19449  24629805.151    24629813.3934
  24853300.355    -4097841.134 9  -2959232.29249  24853300.458    24853308.2844
 99  4 14 16 40 30.0010000  0  7 02 07 27 26 15 13 09
  21657705.809     3034896.984 9   2353236.83449  21657705.443    21657711.6584
  20745293.114    -1726901.797 9  -1346026.44049  20745292.553    20745298.7384
  21710830.972     7241503.373 9   5626857.35849  21710831.034    21710837.7874
  22961731.691      129585.424 9     98228.59549  22961731.524    22961738.7294
  24206959.403     2638343.056 9   2049210.07849  24206958.741    24206967.7464
  24650440.815    13000651.266 9  10100112.69349  24650440.705    24650452.7554
  24835282.643    -4192523.174 9  -3033010.44849  24835281.193    24835290.8234
 99  4 14 16 41  0.0010000  0  7 02 07 27 26 15 13 09
  21661557.911     3055139.570 9   2369010.24649  21661557.626    21661563.6334
  20744253.669    -1732364.360 9  -1350282.98749  20744253.142    20744259.5014
  21725133.272     7316661.681 9   5685422.17849  21725133.563    21725140.1714
  22964635.516      144845.563 9    110119.57349  22964635.284    22964642.5134
  24214581.930     2678399.012 9   2080422.45849  24214579.316    24214591.4524
  24671056.479    13108985.587 9  10184528.77149  24671057.492    24671067.3584
  24817256.931    -4287248.440 9  -3106822.29749  24817257.850    24817266.0194
 99  4 14 16 41 30.0010000  0  7 02 07 27 26 15 13 09
  21665417.650     3075422.350 9   2384814.97649  21665417.274    21665423.6074
  20743269.557    -1737535.863 9  -1354312.73849  20743269.044    20743275.2304
  21739487.520     7392093.189 9   5744199.88149  21739487.596    21739494.2504
  22967611.673      160485.226 9    122306.27249  22967611.623    22967618.6954
  24222283.794     2718872.044 9   2111959.81649  24222283.262    24222293.7284
  24691640.888    13217157.176 9  10268818.03849  24691641.632    24691650.8094
  24799220.460    -4382030.259 9  -3180678.20649  24799219.458    24799229.6634
 99  4 14 16 42  0.0010000  0  7 02 07 27 26 15 13 09
  21669286.964     3095755.575 9   2400659.01349  21669286.245    21669292.6704
  20742344.620    -1742396.661 9  -1358100.38349  20742344.034    20742350.2304
  21753898.078     7467820.959 9   5803208.43549  21753897.930    21753904.9004
  22970661.615      176512.218 9    134794.78449  22970662.461    22970668.6304
  24230067.328     2759773.731 9   2143831.17549  24230066.924    24230076.5944
  24712193.067    13325157.056 9  10352973.59849  24712194.114    24712203.2654
  24781173.140    -4476868.889 9  -3254578.36449  24781172.611    24781182.1914
 99  4 14 16 42 30.0010000  0  7 02 07 27 26 15 13 09
  21673170.256     3116162.493 9   2416560.46749  21673169.547    21673175.9874
  20741484.636    -1746915.945 9  -1361621.90749  20741484.019    20741490.2904
  21768373.137     7543887.895 9   5862481.27549  21768373.139    21768380.3284
  22973793.244      192968.538 9    147617.84649  22973793.014    22973800.5914
  24237938.385     2801136.898 9   2176062.09349  24237937.705    24237948.0574
  24732719.907    13433025.275 9  10437026.44149  24732720.364    24732731.5914
  24763119.827    -4571740.258 9  -3328504.03849  24763120.488    24763129.3644
 99  4 14 16 43  0.0010000  0  7 02 07 27 26 15 13 09
  21677063.715     3136622.771 9   2432503.50149  21677063.251    21677069.8594
  20740687.609    -1751104.535 9  -1364885.75249  20740687.141    20740693.2364
  21782905.206     7620254.220 9   5921987.40849  21782905.069    21782912.5264
  22977000.889      209824.782 9    160752.51949  22977001.513    22977007.6934
  24245892.948     2842937.438 9   2208633.96249  24245892.638    24245902.5354
  24753219.803    13540751.443 9  10520968.60549  24753220.892    24753230.5814
  24745052.511    -4666684.136 9  -3402486.22649  24745051.427    24745062.0394
 99  4 14 16 43 30.0010000  0  8 04 02 07 27 26 15 13 09
  24901090.100    -1901852.539 9  -1458281.33349  24901088.635    24901101.4494
  21680965.585     3157126.907 9   2448480.71549  21680965.230    21680971.5614
  20739953.733    -1754961.073 9  -1367890.85049  20739953.219    20739959.4094
  21797492.653     7696911.424 9   5981720.20049  21797492.940    21797499.5964
  22980283.908      227076.883 9    174195.66549  22980285.080    22980291.0294
  24253930.320     2885174.692 9   2241545.92249  24253930.583    24253940.4524
  24773696.003    13648353.117 9  10604813.87749  24773696.747    24773706.5704
  24726969.209    -4761712.088 9  -3476533.91649  24726967.587    24726977.1174
 99  4 14 16 44  0.0010000  0  8 04 02 07 27 26 15 13 09
  24881832.974    -2003048.451 9  -1537135.09849  24881832.456    24881843.9304
  21684876.087     3177676.627 9   2464493.44849  21684875.603    21684882.0534
  20739283.355    -1758483.947 9  -1370635.95049  20739282.763    20739288.9364
  21812136.622     7773865.387 9   6041684.23749  21812136.692    21812143.7044
  22983644.629      244736.731 9    187956.53049  22983645.034    22983651.6484
  24262053.549     2927860.769 9   2274807.80849  24262055.169    24262061.9204
  24794153.936    13755859.558 9  10688584.77149  24794155.843    24794164.2474
  24708871.534    -4856816.414 9  -3550641.12149  24708872.504    24708881.2694
 99  4 14 16 44 30.0010000  0  8 04 02 07 27 26 15 13 09
  24862544.706    -2104408.824 9  -1616117.01549  24862544.379    24862556.3384
  21688797.343     3198282.536 9   2480549.96249  21688796.858    21688803.1274
  20738676.331    -1761673.969 9  -1373121.68849  20738675.654    20738681.6004
  21826838.496     7851123.486 9   6101885.25449  21826838.574    21826845.5674
  22987081.755      262798.465 9    202030.55449  22987081.854    22987088.1894
  24270263.263     2971002.506 9   2308424.60949  24270262.137    24270273.2504
  24814595.985    13863281.459 9  10772289.91849  24814597.132    24814605.9124
  24690765.073    -4951965.804 9  -3624783.42249  24690764.020    24690773.7614
 99  4 14 16 45  0.0010000  0  8 04 02 07 27 26 15 13 09
  24843225.116    -2205933.474 9  -1695226.92749  24843224.224    24843235.3074
  21692729.344     3218945.385 9   2496650.85049  21692728.936    21692735.6554
  20738134.660    -1764520.434 9  -1375339.71749  20738134.228    20738140.4274
  21841598.629     7928687.922 9   6162324.98649  21841598.856    21841605.6354
  22990593.080      281251.101 9    216409.18049  22990593.084    22990600.3354
  24278558.869     3014596.717 9   2342394.04749  24278559.943    24278567.5464
  24835017.701    13970597.317 9  10855912.38949  24835018.275    24835028.2894
  24672653.389    -5047142.404 9  -3698946.91849  24672652.898    24672661.3004
 99  4 14 16 45 30.0010000  0  8 04 02 07 27 26 15 13 09
  24823864.539    -2307672.203 9  -1774503.62749  24823863.387    24823875.3714
  21696662.095     3239611.802 9   2512754.51349  21696661.614    21696668.0634
  20737651.656    -1767058.756 9  -1377317.63449  20737650.963    20737657.3014
  21856413.993     8006542.763 9   6222991.00249  21856413.999    21856421.0414
  22994170.768      300051.975 9    231059.16349  22994171.167    22994177.9074
  24286931.785     3058596.530 9   2376679.55649  24286929.159    24286942.7864
  24855408.445    14077750.189 9  10939407.80649  24855410.128    24855419.9244
  24654531.656    -5142373.835 9  -3773153.18649  24654531.073    24654540.4714
 99  4 14 16 46  0.0010000  0  8 04 02 07 27 26 15 13 09
  24804467.554    -2409602.530 9  -1853929.61449  24804467.025    24804480.1144
  21700603.003     3260321.370 9   2528891.80349  21700602.386    21700609.1584
  20737235.888    -1769243.516 9  -1379020.04949  20737235.391    20737241.3814
  21871290.893     8084721.136 9   6283909.12149  21871290.571    21871297.6824
  22997821.699      319237.798 9    246009.09749  22997822.069    22997828.6444
  24295387.692     3103032.117 9   2411304.60149  24295388.193    24295397.2484
  24875769.078    14184743.531 9  11022779.03649  24875769.693    24875778.6974
  24636410.980    -5237600.054 9  -3847355.37249  24636410.118    24636419.6364
 99  4 14 16 46 30.0010000  0  8 04 02 07 27 26 15 13 09
  24785036.949    -2511709.971 9  -1933493.58649  24785036.097    24785049.1284
  21704554.938     3281088.902 9   2545074.25549  21704554.460    21704560.9174
  20736889.231    -1771065.065 9  -1380439.44449  20736888.591    20736894.8034
  21886231.910     8163236.264 9   6345089.64049  21886231.927    21886238.8434
  23001547.328      338816.010 9    261264.80149  23001548.249    23001554.8224
  24303927.173     3147906.595 9   2446271.70249  24303927.181    24303936.4054
  24896096.131    14291561.914 9  11106013.82049  24896097.540    24896105.6284
  24618294.072    -5332804.301 9  -3921540.42349  24618293.510    24618301.9944
 99  4 14 16 47  0.0010000  0  8 04 02 07 27 26 15 13 09
  24765585.092    -2613928.902 9  -2013144.38149  24765585.682    24765597.8004
  21708526.825     3301961.217 9   2561338.35649  21708526.140    21708532.8284
  20736620.875    -1772475.384 9  -1381538.40049  20736620.426    20736626.4994
  21901244.486     8242127.512 9   6406563.24749  21901244.394    21901251.6604
  23005360.884      358855.726 9    276880.10649  23005361.460    23005368.1974
  24312558.961     3193266.814 9   2481617.20049  24312558.056    24312567.4274
  24916399.859    14398258.447 9  11189153.67949  24916400.715    24916410.6734
  24600188.714    -5427948.508 9  -3995678.71549  24600187.335    24600197.8334
 99  4 14 16 47 30.0010000  0  8 04 02 07 27 26 15 13 09
  24746111.912    -2716261.325 9  -2092883.70449  24746111.583    24746124.2304
  21712516.943     3322929.260 9   2577677.04749  21712516.707    21712522.8734
  20736427.823    -1773490.160 9  -1382329.14049  20736427.210    20736433.4734
  21916324.521     8321373.440 9   6468313.21949  21916324.135    21916331.4744
  23009263.130      379361.858 9    292858.86349  23009263.169    23009270.7494
  24321282.075     3239107.351 9   2517337.00149  24321282.826    24321290.7294
  24936680.243    14504832.013 9  11272197.75249  24936680.295    24936690.0464
  24582091.755    -5523048.567 9  -4069782.59549  24582093.181    24582100.5474
 99  4 14 16 48  0.0010000  0  8 04 02 07 27 26 15 13 09
  24726617.603    -2818704.106 9  -2172708.90449  24726616.889    24726628.4924
  21716523.997     3343986.218 9   2594085.02449  21716523.554    21716530.0994
  20736302.333    -1774149.577 9  -1382842.97849  20736301.747    20736308.0824
  21931466.136     8400942.959 9   6530315.34049  21931466.202    21931473.2074
  23013250.833      400316.978 9    309187.47549  23013251.278    23013257.7604
  24330093.811     3285412.182 9   2553418.64049  24330093.247    24330103.1794
  24956933.581    14611262.644 9  11355130.36149  24956933.794    24956944.4784
  24563996.211    -5618140.917 9  -4143880.44249  24563996.149    24564005.1724
 99  4 14 16 48 30.0010000  0  8 04 02 07 27 26 15 13 09
  24707108.098    -2921226.774 9  -2252596.41549  24707108.105    24707119.8974
  21720549.452     3365140.109 9   2610568.53349  21720548.867    21720555.4124
  20736243.698    -1774457.763 9  -1383083.13449  20736243.138    20736249.4704
  21946673.874     8480859.583 9   6592587.93349  21946674.134    21946680.9394
  23017325.502      421728.965 9    325872.08849  23017325.997    23017332.4144
  24338997.006     3332198.450 9   2589875.36949  24338997.563    24339006.2424
  24977166.794    14717588.248 9  11437981.20049  24977167.657    24977178.2374
  24545901.157    -5713231.286 9  -4217976.78249  24545900.737    24545909.0994
 99  4 14 16 49  0.0010000  0  8 04 02 07 27 26 15 13 09
  24687583.435    -3023828.762 9  -2332545.75349  24687583.701    24687593.9624
  21724590.733     3386376.860 9   2627116.61249  21724590.189    21724596.8424
  20736253.983    -1774403.469 9  -1383040.83749  20736253.420    20736259.6474
  21961945.487     8561112.022 9   6655122.20149  21961945.801    21961952.6874
  23021488.033      443602.390 9    342916.25349  23021488.615    23021495.1724
  24347991.881     3379466.797 9   2626707.79449  24347990.647    24348001.9754
  24997382.464    14823820.735 9  11520759.50749  24997382.842    24997395.2384
  24527805.400    -5808325.260 9  -4292075.93549  24527805.594    24527812.3854
 99  4 14 16 49 30.0010000  0  8 04 02 07 27 26 15 13 09
  24668035.058    -3126555.640 9  -2412592.36249  24668034.655    24668043.4704
  21728643.052     3407671.419 9   2643709.72849  21728642.484    21728648.9054
  20736326.702    -1774021.674 9  -1382743.34849  20736326.270    20736332.5284
  21977275.679     8641672.070 9   6717896.16849  21977275.839    21977283.1614
  23025729.006      465888.231 9    360281.79249  23025729.419    23025735.8274
  24357072.110     3427183.140 9   2663889.27349  24357072.829    24357081.3724
  25017571.961    14929916.281 9  11603431.04549  25017573.864    25017582.7384
  24509705.755    -5903439.947 9  -4366191.20049  24509704.635    24509712.5134
 99  4 14 16 50  0.0010000  0  8 04 02 07 27 26 15 13 09
  24648470.591    -3229368.044 9  -2492705.68849  24648471.039    24648480.3234
  21732712.684     3429057.766 9   2660374.36449  21732712.256    21732718.6904
  20736466.766    -1773285.737 9  -1382169.90449  20736466.303    20736472.2274
  21992671.114     8722575.376 9   6780937.59549  21992671.231    21992678.4064
  23030051.866      488604.812 9    377982.97449  23030051.917    23030058.8484
  24366243.448     3475377.885 9   2701443.57249  24366243.211    24366252.2094
  25037741.946    15035908.797 9  11686022.28849  25037742.791    25037753.6694
  24491610.544    -5998531.246 9  -4440288.27949  24491611.021    24491618.7274
 99  4 14 16 50 30.0010000  0  8 04 02 07 27 26 15 13 09
  24628882.389    -3332302.035 9  -2572913.70949  24628881.580    24628893.9084
  21736792.530     3450497.331 9   2677080.47249  21736792.072    21736798.4104
  20736672.064    -1772206.860 9  -1381329.23549  20736671.511    20736677.7734
  22008125.801     8803789.611 9   6844221.30949  22008125.891    22008132.7254
  23034449.698      511715.307 9    395991.09349  23034450.562    23034456.6424
  24375499.122     3524016.585 9   2739343.76349  24375497.474    24375508.2754
  25057884.700    15141759.217 9  11768502.77949  25057884.198    25057896.8954
  24473518.223    -6093607.036 9  -4514373.25349  24473519.175    24473525.5834
 99  4 14 16 51  0.0010000  0  8 04 02 07 27 26 15 13 09
  24609269.611    -3435366.927 9  -2653223.73849  24609268.468    24609280.0474
  21740882.910     3471992.087 9   2693829.58649  21740882.590    21740888.9274
  20736943.602    -1770779.968 9  -1380217.38349  20736943.093    20736949.1204
  22023635.096     8885291.308 9   6907729.02349  22023635.235    22023642.5214
  23038922.896      535221.600 9    414307.62449  23038922.836    23038929.7344
  24384837.591     3573091.100 9   2777583.56649  24384837.898    24384847.4324
  25077996.531    15247446.501 9  11850856.19449  25077999.073    25078008.4604
  24455429.685    -6188662.662 9  -4588442.53649  24455428.319    24455436.8264
 99  4 14 16 51 30.0010000  0  8 04 02 07 27 26 15 13 09
  24589629.208    -3538577.740 9  -2733647.56249  24589629.064    24589639.2584
  21744982.603     3493535.784 9   2710616.83849  21744982.282    21744988.6394
  20737276.227    -1769031.918 9  -1378855.27949  20737275.743    20737281.9334
  22039196.137     8967064.843 9   6971448.54749  22039195.902    22039203.6194
  23043465.314      559091.889 9    432907.79249  23043465.291    23043471.8914
  24394255.889     3622582.836 9   2816148.50149  24394256.747    24394264.0044
  25098073.235    15352947.905 9  11933064.76849  25098072.816    25098085.2214
  24437343.435    -6283706.243 9  -4662502.40049  24437343.039    24437350.9204
 99  4 14 16 52  0.0010000  0  8 04 02 07 27 26 15 13 09
  24569960.969    -3641933.734 9  -2814184.44849  24569960.700    24569972.4434
  21749089.585     3515117.686 9   2727433.86049  21749089.049    21749095.4914
  20737671.966    -1766952.400 9  -1377234.88749  20737671.409    20737677.4604
  22054809.287     9049112.259 9   7035381.49249  22054809.543    22054816.6784
  23048078.260      583332.708 9    451796.69249  23048078.587    23048085.3094
  24403752.952     3672489.867 9   2855036.94549  24403752.164    24403762.9954
  25118114.090    15458262.943 9  12015128.06749  25118115.470    25118127.3184
  24419256.689    -6378751.531 9  -4736563.60049  24419257.010    24419264.1794
 99  4 14 16 52 30.0010000  0  8 04 02 07 27 26 15 13 09
  24550266.124    -3745430.922 9  -2894831.42049  24550265.205    24550276.9164
  21753207.415     3536756.871 9   2744295.51549  21753206.968    21753212.9754
  20738133.801    -1764525.163 9  -1375343.54649  20738133.209    20738139.1754
  22070475.717     9131439.558 9   7099532.53149  22070475.678    22070483.1704
  23052764.874      607960.761 9    470987.32349  23052764.253    23052771.9384
  24413330.899     3722821.757 9   2894256.56649  24413331.612    24413339.5994
  25138121.065    15563398.761 9  12097051.68649  25138122.270    25138132.8694
  24401171.985    -6473786.880 9  -4810617.03649  24401173.019    24401180.2514
 99  4 14 16 53  0.0010000  0  8 04 02 07 27 26 15 13 09
  24530532.312    -3849131.322 9  -2975636.69149  24530531.546    24530543.5904
  21757327.207     3558406.388 9   2761165.22349  21757327.016    21757333.2624
  20738649.241    -1761816.555 9  -1373232.95449  20738648.762    20738655.0704
  22086184.506     9213989.306 9   7163856.89749  22086184.593    22086192.0734
  23057514.992      632922.649 9    490438.08249  23057514.885    23057521.6884
  24422980.342     3773528.952 9   2933768.60849  24422980.013    24422989.0384
  25158085.869    15668313.390 9  12178803.02349  25158087.309    25158098.1824
  24383080.232    -6568860.879 9  -4884700.62349  24383078.776    24383088.0564
 99  4 14 16 53 30.0010000  0  8 04 02 07 27 26 15 13 09
  24510766.116    -3953001.125 9  -3056574.04549  24510764.551    24510777.6094
  21761454.219     3580093.655 9   2778064.35749  21761453.779    21761460.3224
  20739223.501    -1758799.106 9  -1370881.70249  20739222.955    20739229.2264
  22101943.002     9296800.023 9   7228384.61849  22101943.063    22101950.2944
  23062332.467      658238.591 9    510164.73049  23062332.519    23062339.2754
  24432705.983     3824638.614 9   2973594.22049  24432705.280    24432716.4344
  25178013.972    15773033.227 9  12260402.56649  25178014.243    25178025.7184
  24364988.808    -6663932.998 9  -4958782.71249  24364988.280    24364996.6494
 99  4 14 16 54  0.0010000  0  8 04 02 07 27 26 15 13 09
  24490975.566    -4056999.346 9  -3137611.37349  24490975.011    24490987.1454
  21765596.141     3601859.692 9   2795024.86549  21765595.442    21765601.9304
  20739860.284    -1755452.899 9  -1368274.28249  20739859.804    20739865.8664
  22117757.564     9379905.565 9   7293142.06749  22117757.415    22117765.0994
  23067225.420      683951.030 9    530200.34549  23067225.822    23067232.0704
  24442515.079     3876185.640 9   3013760.62149  24442514.579    24442524.5954
  25197910.916    15877591.178 9  12341875.98049  25197911.739    25197920.7154
  24346903.161    -6758972.604 9  -5032839.49949  24346903.629    24346909.6514
 99  4 14 16 54 30.0010000  0  8 04 02 07 27 26 15 13 09
  24471156.955    -4161145.112 9  -3218763.70949  24471156.331    24471167.9034
  21769747.859     3623677.143 9   2812025.44249  21769747.358    21769753.9324
  20740551.376    -1751821.318 9  -1365444.48849  20740550.795    20740556.9914
  22133620.110     9463263.198 9   7358095.94849  22133620.274    22133627.4314
  23072185.618      710017.328 9    550511.67749  23072185.079    23072192.5764
  24452400.750     3928134.403 9   3054240.16149  24452401.195    24452410.6874
  25217770.777    15981954.061 9  12423197.33549  25217771.190    25217782.5374
  24328817.892    -6854010.078 9  -5106894.62149  24328816.881    24328826.7584
 99  4 14 16 55  0.0010000  0  8 04 02 07 27 26 15 13 09
  24451323.220    -4265370.723 9  -3299978.31949  24451322.002    24451335.2794
  21773919.543     3645599.237 9   2829107.55049  21773919.419    21773925.6174
  20741308.413    -1747843.234 9  -1362344.69849  20741308.041    20741313.9914
  22149545.084     9546949.083 9   7423305.62749  22149545.069    22149552.9384
  23077226.247      736506.426 9    571152.47549  23077226.479    23077233.0764
  24462374.226     3980545.021 9   3095079.54249  24462372.892    24462383.2284
  25237605.091    16086182.771 9  12504414.13649  25237605.309    25237618.0604
  24310745.484    -6948979.945 9  -5180897.03649  24310746.021    24310752.7664
 99  4 14 16 55 30.0010000  0  7 04 02 07 27 26 15 09
  24431469.642    -4369700.987 9  -3381274.41949  24431468.336    24431481.7694
  21778103.371     3667584.811 9   2846239.13249  21778102.723    21778109.4764
  20742125.524    -1743549.442 9  -1358998.89749  20742124.856    20742131.0024
  22165526.615     9630931.955 9   7488746.70849  22165526.615    22165533.8514
  23082340.347      763380.932 9    592093.59349  23082340.878    23082347.7834
  24472427.493     4033376.109 9   3136246.49249  24472428.230    24472437.1534
  24292676.056    -7043935.796 9  -5254888.53749  24292674.381    24292682.8664
 99  4 14 16 56  0.0010000  0  7 04 02 07 27 26 15 09
  24411601.854    -4474105.658 9  -3462628.49049  24411601.960    24411612.5714
  21782301.416     3689645.431 9   2863429.18749  21782301.047    21782307.5334
  20743006.399    -1738920.208 9  -1355391.71549  20743005.946    20743012.0884
  22181570.190     9715240.945 9   7554441.91449  22181570.758    22181577.8854
  23087532.974      790668.215 9    613356.34649  23087533.403    23087540.2844
  24482564.888     4086647.510 9   3177756.66049  24482564.783    24482573.7924
  24274611.023    -7138869.488 9  -5328862.81049  24274609.038    24274618.2104
 99  4 14 16 56 30.0010000  0  7 04 02 07 27 26 15 09
  24391711.111    -4578631.907 9  -3544077.38049  24391711.599    24391722.1204
  21786500.541     3711711.797 9   2880623.72149  21786499.790    21786506.5584
  20743944.395    -1733991.479 9  -1351551.15749  20743943.936    20743950.1374
  22197665.297     9799820.807 9   7620348.18249  22197665.176    22197673.1714
  23092794.258      818316.203 9    634900.17349  23092794.971    23092801.6434
  24492774.804     4140301.452 9   3219564.76649  24492775.534    24492784.8734
  24256541.129    -7233825.069 9  -5402854.11549  24256539.857    24256548.9924
 99  4 14 16 57  0.0010000  0  7 04 02 07 27 26 15 09
  24371810.463    -4683210.940 9  -3625567.29149  24371811.376    24371820.9184
  21790712.633     3733846.480 9   2897871.48949  21790712.204    21790718.6104
  20744953.570    -1728688.452 9  -1347418.94049  20744953.038    20744959.2214
  22213825.864     9884744.884 9   7686522.67449  22213825.788    22213833.8694
  23098138.456      846399.516 9    656783.22349  23098138.801    23098145.3634
  24503071.579     4194409.691 9   3261726.97549  24503071.337    24503081.1794
  24238480.898    -7328730.562 9  -5476806.39049  24238480.539    24238489.5804
 99  4 14 16 57 30.0010000  0  7 04 02 07 27 26 15 09
  24351891.744    -4787884.390 9  -3707130.80849  24351891.127    24351901.7924
  21794927.814     3755997.004 9   2915131.60149  21794927.466    21794933.8704
  20746023.635    -1723065.412 9  -1343037.36149  20746023.027    20746029.0714
  22230038.511     9969942.943 9   7752910.66149  22230038.475    22230045.9824
  23103550.976      874842.373 9    678946.42349  23103551.584    23103558.5734
  24513443.553     4248913.840 9   3304197.61049  24513444.875    24513453.5904
  24220419.038    -7423645.809 9  -5550766.28449  24220418.793    24220426.9984
 99  4 14 16 58  0.0010000  0  7 04 02 07 27 26 15 09
  24331957.399    -4892639.447 9  -3788757.88549  24331956.367    24331967.4834
  21799149.685     3778182.914 9   2932419.29149  21799149.113    21799156.1164
  20747153.863    -1717126.102 9  -1338409.33249  20747153.185    20747159.4314
  22246303.759    10055416.787 9   7819513.53749  22246304.374    22246311.3224
  23109032.669      903648.363 9    701392.59749  23109033.379    23109039.6434
  24523891.491     4303818.023 9   3346980.01649  24523889.585    24523902.6174
  24202359.849    -7518546.905 9  -5624715.14749  24202360.045    24202368.5264
 99  4 14 16 58 30.0010000  0  7 04 02 07 27 26 15 09
  24312009.337    -4997466.298 9  -3870441.00549  24312008.866    24312020.1024
  21803385.526     3800442.240 9   2949764.17849  21803385.091    21803391.4804
  20748347.778    -1710852.188 9  -1333520.58349  20748347.288    20748353.2714
  22262619.736    10141156.867 9   7886323.87049  22262619.799    22262627.4194
  23114584.219      932821.861 9    724125.12549  23114585.176    23114591.0134
  24534418.577     4359137.916 9   3390086.31649  24534417.636    24534427.2044
  24184308.691    -7613406.279 9  -5698631.50649  24184309.271    24184316.6064
 99  4 14 16 59  0.0010000  0  7 04 02 07 27 26 15 09
  24292046.696    -5102369.855 9  -3952183.82449  24292047.126    24292056.4954
  21807637.078     3822784.191 9   2967173.45149  21807636.867    21807642.8534
  20749602.557    -1704258.406 9  -1328382.58449  20749601.979    20749608.0754
  22278983.490    10227148.643 9   7953330.32649  22278983.461    22278991.2194
  23120202.196      962344.157 9    747129.45349  23120202.027    23120209.7474
  24545024.170     4414870.865 9   3433514.46449  24545024.083    24545033.7054
  24166264.850    -7708228.200 9  -5772518.68649  24166264.373    24166273.0614
 99  4 14 16 59 30.0010000  0  7 04 02 07 27 26 15 09
  24272068.554    -5207355.081 9  -4033990.28849  24272069.406    24272080.5264
  21811902.658     3845200.010 9   2984640.29149  21811902.104    21811908.4864
  20750912.817    -1697372.931 9  -1323017.28649  20750912.192    20750918.2914
  22295390.483    10313367.637 9   8020513.83949  22295390.442    22295397.7714
  23125884.484      992204.786 9    770397.41449  23125885.133    23125891.6064
  24555703.739     4470991.553 9   3477244.84549  24555702.511    24555713.2454
  24148225.825    -7803023.524 9  -5846385.12949  24148225.771    24148233.8984
 99  4 14 17  0  0.0010000  0  7 04 02 07 27 26 15 09
  24252074.409    -5312425.660 9  -4115863.28949  24252073.609    24252084.3174
  21816184.998     3867703.739 9   3002175.62249  21816184.490    21816190.8404
  20752280.714    -1690184.897 9  -1317416.23549  20752280.205    20752286.2434
  22311842.851    10399825.417 9   8087883.42549  22311842.723    22311850.6884
  23131636.605     1022432.434 9    793951.36549  23131636.591    23131643.9634
  24566459.162     4527512.090 9   3521286.66549  24566458.944    24566468.7304
  24130193.472    -7897784.685 9  -5920224.95649  24130194.004    24130200.8844
 99  4 14 17  0 30.0010000  0  7 04 02 07 27 26 15 09
  24232063.091    -5417585.134 9  -4197805.53849  24232061.743    24232072.1034
  21820481.620     3890282.623 9   3019769.52149  21820481.145    21820487.9284
  20753707.515    -1682687.188 9  -1311573.87949  20753707.038    20753713.0404
  22328340.991    10486523.203 9   8155440.00749  22328341.201    22328348.4584
  23137459.451     1053031.145 9    817794.45349  23137460.150    23137466.6454
  24577290.801     4584432.263 9   3565639.95149  24577291.555    24577300.4444
  24112168.184    -7992508.589 9  -5994035.74849  24112167.694    24112176.8574
 99  4 14 17  1  0.0010000  0  7 04 02 07 27 26 15 09
  24212037.274    -5522820.739 9  -4279807.17249  24212038.275    24212047.6944
  21824788.724     3912916.425 9   3037406.21249  21824788.323    21824794.8664
  20755191.999    -1674886.205 9  -1305495.20449  20755191.370    20755197.2984
  22344890.009    10573488.206 9   8223204.81749  22344890.614    22344897.3784
  23143353.922     1084005.850 9    841930.51749  23143354.399    23143361.2784
  24588198.271     4641749.632 9   3610302.74649  24588198.754    24588208.3054
  24094149.245    -8087198.764 9  -6067820.25249  24094148.338    24094156.3684
 99  4 14 17  1 30.0010000  0  7 04 02 07 27 26 15 09
  24191993.507    -5628149.301 9  -4361881.25249  24191993.581    24192003.8714
  21829104.021     3935593.289 9   3055076.45649  21829103.506    21829109.6664
  20756733.042    -1666787.819 9  -1299184.79149  20756732.453    20756738.5044
  22361491.608    10660729.066 9   8291184.59549  22361491.681    22361499.2264
  23149318.258     1115348.262 9    866353.11549  23149318.410    23149325.6194
  24599178.329     4699450.235 9   3655264.16649  24599177.844    24599188.4334
  24076134.520    -8181866.934 9  -6141587.59949  24076133.809    24076143.3784
 99  4 14 17  2  0.0010000  0  7 04 02 07 27 26 15 09
  24171930.494    -5733579.561 9  -4444034.52949  24171930.661    24171941.4324
  21833428.731     3958319.931 9   3072785.48949  21833428.462    21833435.2764
  20758331.324    -1658388.811 9  -1292640.12249  20758330.617    20758336.8864
  22378146.440    10748250.368 9   8359382.88949  22378146.112    22378153.9034
  23155349.142     1147040.649 9    891048.42649  23155348.766    23155356.2474
  24610232.001     4757537.444 9   3700526.84449  24610231.341    24610242.0454
  24058126.373    -8276500.862 9  -6215328.27149  24058126.146    24058133.8224
 99  4 14 17  2 30.0010000  0  7 04 02 07 27 26 15 09
  24151853.359    -5839085.631 9  -4526246.91249  24151852.450    24151861.8744
  21837764.385     3981103.491 9   3090538.87749  21837764.210    21837770.8254
  20759987.423    -1649685.832 9  -1285858.59449  20759986.760    20759992.8184
  22394854.739    10836052.325 9   8427799.87749  22394854.685    22394862.2574
  23161447.136     1179085.951 9    916018.73049  23161446.634    23161453.3944
  24621360.092     4816016.765 9   3746095.05249  24621358.678    24621370.7114
  24040128.755    -8371079.245 9  -6289025.66649  24040127.986    24040135.9254
 99  4 14 17  3  0.0010000  0  7 04 02 07 27 26 15 09
  24131758.797    -5944683.145 9  -4608530.52649  24131758.681    24131770.3204
  21842109.618     4003937.499 9   3108331.56749  21842109.073    21842115.8924
  20761698.877    -1640692.248 9  -1278850.62149  20761698.455    20761704.4124
  22411612.180    10924112.752 9   8496418.27149  22411612.004    22411619.9034
  23167609.701     1211470.437 9    941253.34049  23167609.078    23167616.7014
  24632560.803     4874876.667 9   3791959.85749  24632561.083    24632570.1594
  24022138.761    -8465616.989 9  -6362691.40149  24022137.920    24022145.6684
 99  4 14 17  3 30.0010000  0  7 04 02 07 27 26 15 09
  24111641.822    -6050397.844 9  -4690905.41949  24111640.958    24111651.9684
  21846464.343     4026821.338 9   3126163.08449  21846464.128    21846470.7684
  20763463.198    -1631420.891 9  -1271626.20049  20763462.584    20763468.7934
  22428409.391    11012382.171 9   8565199.50149  22428409.165    22428417.0964
  23173833.325     1244176.103 9    966738.19649  23173833.279    23173840.3814
  24643830.674     4934099.873 9   3838107.70749  24643830.461    24643840.1264
  24004154.586    -8560124.460 9  -6436333.53949  24004154.450    24004162.2394
 99  4 14 17  4  0.0010000  0  7 04 02 07 27 26 15 09
  24091507.782    -6156201.839 9  -4773349.91349  24091506.537    24091516.3274
  21850830.470     4049765.249 9   3144041.41349  21850830.245    21850836.5854
  20765282.464    -1621860.587 9  -1264176.62649  20765281.904    20765287.9584
  22445245.261    11100855.134 9   8634139.36449  22445244.790    22445253.0784
  23180120.654     1277216.640 9    992483.99849  23180121.456    23180128.0414
  24655172.767     4993703.330 9   3884551.85149  24655173.019    24655183.0274
  23986180.136    -8654579.901 9  -6509935.13349  23986180.213    23986188.1524
 99  4 14 17  4 30.0010000  0  7 04 02 07 27 26 15 09
  24071362.371    -6262066.006 9  -4855841.27749  24071360.394    24071371.9144
  21855209.375     4072776.276 9   3161972.03949  21855209.134    21855215.4774
  20767162.226    -1611982.423 9  -1256479.37049  20767161.663    20767167.9554
  22462123.939    11189552.938 9   8703254.40449  22462123.675    22462131.5454
  23186474.856     1310607.740 9   1018502.97149  23186475.437    23186482.6314
  24666591.531     5053707.719 9   3931308.44249  24666590.884    24666601.6874
  23968218.558    -8748967.727 9  -6583484.04349  23968218.837    23968225.7094
 99  4 14 17  5  0.0010000  0  7 04 02 07 27 26 15 09
  24051209.551    -6367969.125 9  -4938363.04849  24051208.345    24051219.5754
  21859605.965     4095879.975 9   3179974.87349  21859605.530    21859611.8374
  20769105.520    -1601770.564 9  -1248522.09349  20769104.978    20769110.9814
  22479049.790    11278498.523 9   8772562.52749  22479049.748    22479057.8634
  23192898.295     1344362.727 9   1044805.50549  23192898.820    23192905.7784
  24678089.779     5114131.177 9   3978391.59949  24678089.274    24678099.3304
  23950272.878    -8843271.609 9  -6656967.52549  23950272.152    23950280.0644
 99  4 14 17  5 30.0010000  0  7 04 02 07 27 26 15 09
  24031053.121    -6473890.398 9  -5020898.93249  24031053.028    24031063.1254
  21864019.951     4119075.235 9   3198049.05949  21864019.524    21864026.0934
  20771111.801    -1591227.455 9  -1240306.69849  20771111.339    20771117.2444
  22496023.883    11367697.435 9   8842068.04349  22496023.637    22496032.3594
  23199390.377     1378477.634 9   1071388.48149  23199390.766    23199398.0234
  24689666.225     5174965.473 9   4025794.83749  24689665.220    24689676.5204
  23932344.436    -8937485.729 9  -6730381.08749  23932343.783    23932353.3404
 99  4 14 17  6  0.0010000  0  7 04 02 07 27 26 15 09
  24010890.155    -6579847.476 9  -5103462.72649  24010889.737    24010900.3384
  21868443.583     4142321.607 9   3216163.07049  21868443.262    21868449.6944
  20773174.797    -1580386.275 9  -1231859.04049  20773174.211    20773180.2404
  22513045.989    11457148.537 9   8911770.06649  22513046.662    22513054.3244
  23205945.393     1412923.589 9   1098229.41549  23205944.949    23205953.0184
  24701314.323     5236176.663 9   4073491.76049  24701313.926    24701324.5754
  23914426.946    -9031642.010 9  -6803749.57049  23914425.877    23914434.4034
 99  4 14 17  6 30.0010000  0  7 04 02 07 27 26 15 09
  23990726.883    -6685804.895 9  -5186026.79649  23990726.296    23990737.3234
  21872882.612     4165648.537 9   3234339.85749  21872882.259    21872888.6034
  20775299.585    -1569220.458 9  -1223158.41549  20775298.930    20775304.8984
  22530121.810    11546881.942 9   8981692.06949  22530121.551    22530130.3424
  23212572.161     1447746.876 9   1125364.35949  23212572.341    23212579.5664
  24713037.962     5297784.472 9   4121497.79249  24713037.910    24713047.9784
  23896525.013    -9125717.219 9  -6877054.87649  23896525.030    23896531.9434
 99  4 14 17  7  0.0010000  0  7 04 02 07 27 26 15 09
  23970568.311    -6791737.811 9  -5268571.75349  23970567.322    23970578.4894
  21877341.275     4189078.688 9   3252597.06649  21877340.652    21877347.4164
  20777488.373    -1557718.606 9  -1214195.94649  20777488.014    20777493.8884
  22547253.395    11636908.321 9   9051842.35649  22547252.862    22547261.3794
  23219274.929     1482969.681 9   1152810.62049  23219275.310    23219281.3884
  24724838.953     5359797.967 9   4169819.92349  24724838.490    24724849.6494
  23878641.260    -9219696.950 9  -6950285.79549  23878642.170    23878648.4964
 99  4 14 17  7 30.0010000  0  7 04 02 07 27 26 15 09
  23950412.666    -6897654.583 9  -5351104.12849  23950412.814    23950423.7104
  21881814.938     4212587.514 9   3270915.58949  21881813.975    21881821.1554
  20779738.916    -1545892.187 9  -1204980.56649  20779738.317    20779744.4174
  22564440.201    11727225.204 9   9122218.99849  22564440.533    22564448.0054
  23226048.396     1518563.913 9   1180546.32049  23226048.491    23226055.5784
  24736714.012     5422200.225 9   4218444.93649  24736714.049    24736723.3164
  23860774.388    -9313588.959 9  -7023448.35749  23860773.790    23860781.6224
 99  4 14 17  8  0.0010000  0  7 04 02 07 27 26 15 09
  23930260.394    -7003554.462 9  -5433623.33549  23930260.675    23930271.1724
  21886306.448     4236190.571 9   3289307.53749  21886305.946    21886313.0074
  20782051.183    -1533741.138 9  -1195512.23349  20782050.496    20782056.5074
  22581683.512    11817838.473 9   9192826.60649  22581683.486    22581691.2004
  23232893.926     1554537.373 9   1208577.51249  23232894.762    23232901.3184
  24748664.775     5485001.537 9   4267380.90249  24748663.387    24748674.6004
  23842925.773    -9407384.152 9  -7096535.46749  23842924.807    23842932.6474
 99  4 14 17  8 30.0010000  0  7 04 02 07 27 26 15 09
  23910110.540    -7109442.688 9  -5516133.48249  23910109.226    23910121.3244
  21890818.098     4259899.473 9   3307781.95949  21890817.432    21890824.3984
  20784421.109    -1521287.076 9  -1185807.78349  20784420.475    20784426.4854
  22598977.354    11908717.270 9   9263641.11049  22598977.074    22598985.4454
  23239807.379     1590868.127 9   1236887.11449  23239807.886    23239814.2374
  24760688.821     5548188.787 9   4316617.63249  24760688.062    24760698.6294
  23825095.371    -9501083.625 9  -7169548.00149  23825094.980    23825103.6524
 99  4 14 17  9  0.0010000  0  7 04 02 07 27 26 15 09
  23889961.110    -7215328.510 9  -5598641.77949  23889961.134    23889971.2414
  21895351.814     4283723.833 9   3326346.35049  21895351.134    21895357.8554
  20786846.805    -1508540.048 9  -1175875.04849  20786846.306    20786852.3094
  22616323.024    11999869.197 9   9334668.42749  22616323.065    22616331.4604
  23246785.489     1627538.390 9   1265461.28249  23246786.035    23246793.1454
  24772787.287     5611766.770 9   4366158.84049  24772786.697    24772798.0054
  23807285.602    -9594674.865 9  -7242476.18749  23807285.719    23807293.0274
 99  4 14 17  9 30.0010000  0  7 04 02 07 27 26 15 09
  23869804.414    -7321251.986 9  -5681179.40649  23869804.258    23869814.8144
  21899902.714     4307639.022 9   3344981.51549  21899902.313    21899909.2194
  20789321.063    -1495537.744 9  -1165743.39849  20789320.283    20789326.4464
  22633713.873    12091258.240 9   9405880.51949  22633713.966    22633721.9604
  23253824.234     1664527.287 9   1294283.71849  23253824.143    23253831.7064
  24784955.346     5675710.105 9   4415984.75949  24784955.542    24784965.7864
  23789491.973    -9688181.843 9  -7315338.73449  23789491.478    23789499.3734
 99  4 14 17 10  0.0010000  0  7 04 02 07 27 26 15 09
  23849634.175    -7427247.158 9  -5763772.91249  23849633.682    23849644.8124
  21904466.465     4331621.373 9   3363669.02049  21904466.084    21904472.6914
  20791839.210    -1482304.674 9  -1155431.93149  20791838.690    20791844.7054
  22651139.089    12182827.482 9   9477233.02249  22651139.373    22651147.9294
  23260920.952     1701820.284 9   1323343.11349  23260920.710    23260928.7324
  24797187.123     5739988.046 9   4466071.38349  24797186.985    24797197.9554
  23771708.048    -9781637.181 9  -7388161.04349  23771708.629    23771715.7464
 99  4 14 17 10 30.0010000  0  7 04 02 07 27 26 15 09
  23829461.677    -7533253.805 9  -5846375.35049  23829462.716    23829471.4384
  21909051.572     4355716.087 9   3382444.07749  21909050.870    21909057.8644
  20794415.513    -1468766.324 9  -1144882.58249  20794414.896    20794421.0394
  22668609.467    12274634.438 9   9548770.75049  22668609.898    22668618.6184
  23268085.622     1739470.972 9   1352681.23749  23268085.929    23268093.8054
  24809493.484     5804658.755 9   4516464.07449  24809493.285    24809503.4714
  23753945.104    -9874982.178 9  -7460897.36049  23753945.266    23753952.4394
 99  4 14 17 11  0.0010000  0  7 04 02 07 27 26 15 09
  23809283.030    -7639293.454 9  -5929003.54749  23809283.146    23809292.7044
  21913650.434     4379883.201 9   3401275.54549  21913649.806    21913656.6884
  20797050.567    -1454919.181 9  -1134092.61649  20797049.952    20797055.9044
  22686124.094    12366674.377 9   9620490.02249  22686124.133    22686132.3144
  23275317.368     1777473.387 9   1382293.43549  23275317.583    23275325.3214
  24821872.270     5869709.201 9   4567152.68349  24821870.217    24821882.7634
  23736199.316    -9968236.809 9  -7533563.26549  23736198.512    23736206.5434
 99  4 14 17 11 30.0010000  0  6 04 02 07 27 26 09
  23789100.208    -7745354.453 9  -6011648.34649  23789101.088    23789110.8414
  21918261.320     4404113.593 9   3420156.32249  21918261.124    21918267.7484
  20799747.740    -1440745.475 9  -1123048.18849  20799747.275    20799753.4114
  22703682.266    12458942.484 9   9692387.09949  22703682.857    22703691.0044
  23282614.680     1815820.546 9   1412174.24249  23282615.671    23282622.5854
  23718469.813   -10061405.240 9  -7606161.99149  23718469.205    23718476.7694
 99  4 14 17 12  0.0010000  0  6 04 02 07 27 26 09
  23768922.221    -7851390.732 9  -6094273.91549  23768920.799    23768932.1674
  21922889.236     4428432.874 9   3439106.36549  21922888.660    21922895.4914
  20802513.561    -1426211.143 9  -1111722.75349  20802513.250    20802519.1524
  22721290.117    12551471.210 9   9764487.23549  22721289.848    22721298.4484
  23289981.092     1854530.694 9   1442337.91049  23289981.931    23289988.9114
  23700763.064   -10154453.913 9  -7678667.42249  23700762.773    23700771.1574
 99  4 14 17 12 30.0010000  0  6 04 02 07 27 26 09
  23748737.702    -7957460.588 9  -6176925.63449  23748735.922    23748747.6594
  21927520.496     4452769.865 9   3458070.20649  21927520.364    21927526.4674
  20805331.132    -1411404.725 9  -1100185.30649  20805330.340    20805336.2654
  22738937.377    12644207.480 9   9836749.11149  22738936.682    22738946.1254
  23297402.477     1893530.068 9   1472726.94249  23297403.833    23297410.7994
  23683067.831   -10247442.625 9  -7751126.11349  23683067.703    23683074.7274
 99  4 14 17 13  0.0010000  0  6 04 02 07 27 26 09
  23728560.217    -8063492.753 9  -6259547.97549  23728558.451    23728570.3474
  21932167.828     4477191.436 9   3477099.96149  21932167.117    21932174.1464
  20808207.746    -1396288.007 9  -1088406.05649  20808207.358    20808213.3764
  22756632.478    12737195.411 9   9909207.07249  22756632.801    22756641.1474
  23304888.069     1932866.443 9   1503378.59249  23304888.871    23304896.0484
  23665395.452   -10340310.792 9  -7823490.87749  23665395.268    23665402.6684
 99  4 14 17 13 30.0010000  0  6 04 02 07 27 26 09
  23708391.795    -8169477.061 9  -6342133.04549  23708391.622    23708401.0564
  21936831.044     4501697.035 9   3496195.18049  21936830.538    21936837.3504
  20811138.871    -1380885.205 9  -1076403.89249  20811138.399    20811144.3854
  22774370.250    12830407.255 9   9981839.54149  22774370.441    22774378.8194
  23312434.935     1972524.826 9   1534281.14249  23312434.947    23312443.2704
  23647745.952   -10433059.639 9  -7895762.65249  23647745.107    23647753.1414
 99  4 14 17 14  0.0010000  0  6 04 02 07 27 26 09
  23688238.967    -8275380.183 9  -6424654.82649  23688238.943    23688249.1984
  21941517.859     4526325.952 9   3515386.50249  21941517.284    21941523.8744
  20814126.868    -1365183.428 9  -1064168.76249  20814126.340    20814132.2764
  22792155.134    12923866.894 9  10054665.05849  22792155.119    22792164.0634
  23320050.151     2012542.755 9   1565463.84449  23320050.455    23320058.0244
  23630125.714   -10525654.115 9  -7967914.14449  23630126.094    23630132.3104
 99  4 14 17 14 30.0010000  0  6 04 02 07 27 26 09
  23668093.134    -8381247.745 9  -6507148.90649  23668093.160    23668102.3924
  21946222.225     4551047.579 9   3534650.05649  21946221.717    21946228.7104
  20817163.965    -1349223.662 9  -1051732.59949  20817163.268    20817169.4054
  22809979.430    13017533.224 9  10127651.66349  22809979.520    22809988.3224
  23327727.211     2052886.069 9   1596900.10649  23327726.701    23327734.3824
  23612528.654   -10618127.511 9  -8039971.27649  23612527.767    23612536.0754
 99  4 14 17 15  0.0010000  0  6 04 02 07 27 26 09
  23647953.791    -8487080.197 9  -6589615.66849  23647954.572    23647962.7694
  21950946.398     4575873.352 9   3553994.76949  21950946.176    21950952.6124
  20820254.478    -1332982.921 9  -1039077.49549  20820253.978    20820259.8094
  22827842.581    13111404.256 9  10200797.77749  22827842.503    22827851.1414
  23335465.022     2093548.188 9   1628584.77249  23335466.653    23335473.5034
  23594955.025   -10710477.118 9  -8111931.96849  23594955.372    23594962.5794
 99  4 14 17 15 30.0010000  0  6 04 02 07 27 26 09
  23627818.652    -8592891.161 9  -6672065.67949  23627819.761    23627828.0844
  21955691.878     4600810.495 9   3573426.26249  21955691.471    21955698.2594
  20823401.938    -1316442.967 9  -1026189.24049  20823401.529    20823407.6694
  22845748.409    13205499.443 9  10274118.53749  22845748.268    22845758.0184
  23343266.965     2134547.387 9   1660532.10949  23343267.282    23343275.6704
  23577407.360   -10802691.398 9  -8183787.19549  23577406.331    23577414.6234
 99  4 14 17 16  0.0010000  0  6 04 02 07 27 26 09
  23607680.323    -8698719.097 9  -6754528.85949  23607680.513    23607689.9574
  21960454.730     4625839.373 9   3592929.24049  21960454.154    21960461.1564
  20826602.516    -1299623.985 9  -1013083.56949  20826601.904    20826607.9554
  22863693.999    13299803.741 9  10347602.24049  22863694.714    22863702.7064
  23351127.612     2175854.928 9   1692719.71549  23351128.170    23351136.0424
  23559882.431   -10894785.706 9  -8255548.94849  23559883.132    23559889.3504
 99  4 14 17 16 30.0010000  0  6 04 02 07 27 26 09
  23587546.947    -8804520.247 9  -6836971.18149  23587547.411    23587555.3684
  21965240.929     4650991.162 9   3612527.99949  21965240.191    21965247.3264
  20829866.493    -1282471.613 9   -999718.10549  20829865.864    20829872.2414
  22881689.549    13394369.948 9  10421290.03549  22881690.176    22881698.4214
  23359053.403     2217504.571 9   1725173.89349  23359053.933    23359061.6064
  23542389.176   -10986713.848 9  -8327181.20949  23542389.733    23542396.4184
 99  4 14 17 17  0.0010000  0  6 04 02 07 27 26 09
  23567418.077    -8910297.918 9  -6919395.23049  23567417.067    23567426.0354
  21970047.410     4676249.318 9   3632209.63149  21970046.733    21970053.5884
  20833192.152    -1264995.245 9   -986100.18249  20833191.522    20833197.8334
  22899733.531    13489190.696 9  10495176.16949  22899734.204    22899742.2014
  23367040.766     2259478.299 9   1757880.59349  23367041.364    23367048.7444
  23524924.753   -11078490.121 9  -8398695.14449  23524924.694    23524931.5584
 99  4 14 17 17 30.0010000  0  6 04 02 07 27 26 09
  23547295.888    -9016040.073 9  -7001791.57749  23547296.706    23547304.6694
  21974875.274     4701619.861 9   3651978.84349  21974874.711    21974881.8634
  20836579.278    -1247195.879 9   -972230.57449  20836578.727    20836584.6424
  22917826.779    13584270.387 9  10569264.05849  22917827.698    22917835.5314
  23375094.831     2301801.653 9   1790859.73549  23375094.059    23375102.2824
  23507492.206   -11170098.845 9  -8470078.51449  23507491.882    23507498.5994
 99  4 14 17 18  0.0010000  0  6 04 02 07 27 26 09
  23527188.895    -9121701.913 9  -7084125.37749  23527189.506    23527197.5524
  21979727.274     4727117.032 9   3671846.72749  21979726.942    21979733.9604
  20840028.921    -1229068.019 9   -958104.99249  20840028.558    20840034.4144
  22935971.119    13679619.372 9  10643561.78149  22935971.587    22935979.8344
  23383216.941     2344483.232 9   1824118.03149  23383217.056    23383224.3384
  23490093.104   -11261531.349 9  -8541324.58249  23490093.007    23490099.8974
 99  4 14 17 18 30.0010000  0  6 04 02 07 27 26 09
  23507089.451    -9227325.865 9  -7166429.66249  23507088.451    23507097.8584
  21984589.574     4752668.356 9   3691756.80349  21984589.156    21984595.7574
  20843529.315    -1210673.724 9   -943771.79749  20843528.875    20843534.8884
  22954154.107    13775170.558 9  10718017.07149  22954154.270    22954164.0154
  23391393.603     2387451.638 9   1857599.80149  23391393.835    23391401.1004
  23472713.240   -11352862.462 9  -8612491.64449  23472713.529    23472720.7744
 99  4 14 17 19  0.0010000  0  6 04 02 07 27 26 09
  23487009.900    -9332844.370 9  -7248651.71949  23487010.811    23487018.8444
  21989475.748     4778345.164 9   3711764.65449  21989475.173    21989482.1774
  20847089.022    -1191967.637 9   -929195.64949  20847088.401    20847094.5524
  22972382.822    13870962.923 9  10792660.27949  22972383.210    22972392.4964
  23399636.856     2430770.152 9   1891354.38749  23399637.198    23399644.7194
  23455362.358   -11444041.576 9  -8683540.29449  23455362.440    23455370.0134
 99  4 14 17 19 30.0010000  0  6 04 02 07 27 26 09
  23466942.441    -9438298.868 9  -7330823.97249  23466943.213    23466951.8394
  21994375.295     4804092.387 9   3731827.37149  21994374.981    21994381.8274
  20850696.050    -1173012.577 9   -914425.49549  20850695.414    20850701.5014
  22990646.843    13966940.901 9  10867448.13749  22990646.866    22990656.4584
  23407935.238     2474378.159 9   1925334.54849  23407936.713    23407942.7644
  23438030.470   -11535121.425 9  -8754511.56649  23438029.910    23438037.9254
 99  4 14 17 20  0.0010000  0  6 04 02 07 27 26 09
  23446902.028    -9543611.810 9  -7412885.85149  23446900.289    23446911.4454
  21999299.086     4829966.488 9   3751988.95049  21999298.533    21999305.2234
  20854360.686    -1153754.774 9   -899419.43949  20854360.167    20854366.2394
  23008959.518    14063174.195 9  10942434.93049  23008958.729    23008968.1264
  23416294.875     2518308.013 9   1959565.51549  23416294.567    23416303.4224
  23420730.412   -11626033.775 9  -8825352.32849  23420729.786    23420737.3774
 99  4 14 17 20 30.0010000  0  6 04 02 07 27 26 09
  23426879.444    -9648830.528 9  -7494874.36149  23426879.339    23426889.9334
  22004242.431     4855943.922 9   3772231.04649  22004241.900    22004248.9144
  20858077.903    -1134220.792 9   -884198.17249  20858077.294    20858083.4744
  23027314.903    14159632.156 9  11017596.78749  23027314.872    23027324.4294
  23424710.787     2562533.615 9   1994026.93749  23424712.019    23424718.7794
  23403461.096   -11716783.707 9  -8896066.55449  23403461.231    23403469.2514
 99  4 14 17 21  0.0010000  0  6 04 02 07 27 26 09
  23406875.960    -9753949.186 9  -7576784.87649  23406875.597    23406886.4784
  22009212.317     4882060.446 9   3792581.52949  22009211.920    22009219.0804
  20861851.221    -1114392.004 9   -868747.19349  20861850.751    20861856.9084
  23045716.744    14256333.825 9  11092948.55149  23045716.432    23045725.9694
  23433188.215     2607081.732 9   2028739.68149  23433188.921    23433196.6994
  23386229.764   -11807334.650 9  -8966625.69549  23386229.700    23386237.3814
 99  4 14 17 21 30.0010000  0  6 04 02 07 27 26 09
  23386887.176    -9858990.887 9  -7658635.42749  23386886.815    23386895.9954
  22014205.587     4908300.152 9   3813027.99249  22014205.143    22014212.1644
  20865679.528    -1094274.296 9   -853071.07749  20865678.981    20865685.0314
  23064163.895    14353274.137 9  11168486.25249  23064165.001    23064173.4214
  23441722.835     2651930.743 9   2063686.85749  23441722.663    23441730.3464
  23369037.193   -11897682.532 9  -9037026.61449  23369037.112    23369044.2334
 99  4 14 17 22  0.0010000  0  6 04 02 07 27 26 09
  23366904.015    -9964002.629 9  -7740462.64149  23366903.309    23366912.6214
  22019216.221     4934630.737 9   3833545.27449  22019215.694    22019222.8554
  20869558.353    -1073890.990 9   -837188.00249  20869557.606    20869563.7864
  23082646.571    14450400.459 9  11244168.91849  23082646.816    23082656.2634
  23450310.315     2697058.107 9   2098850.95049  23450310.038    23450318.1574
  23351877.591   -11987857.610 9  -9107292.87149  23351877.502    23351884.1704
 99  4 14 17 22 30.0010000  0  6 04 02 07 27 26 09
  23346932.560   -10068951.817 9  -7822241.15249  23346932.095    23346940.6364
  22024253.730     4961102.986 9   3854172.94149  22024253.407    22024260.0264
  20873495.356    -1053201.860 9   -821066.62249  20873494.840    20873500.8584
  23101167.958    14547729.920 9  11320009.86049  23101167.125    23101177.6274
  23458962.457     2742525.133 9   2134279.70149  23458962.618    23458970.4454
  23334754.629   -12077839.857 9  -9177408.87749  23334753.926    23334761.9454
 99  4 14 17 23  0.0010000  0  6 04 02 07 27 26 09
  23326975.755   -10173824.977 9  -7903960.39649  23326975.541    23326985.1314
  22029316.541     4987708.039 9   3874904.09749  22029316.422    22029323.1594
  20877488.597    -1032217.456 9   -804715.16049  20877488.136    20877494.2844
  23119723.917    14645241.375 9  11395992.62549  23119724.758    23119734.1434
  23467674.887     2788309.038 9   2169955.36449  23467675.097    23467682.7704
  23317662.828   -12167657.916 9  -9247396.93749  23317663.028    23317669.1784
 99  4 14 17 23 30.0010000  0  6 04 02 07 27 26 09
  23307036.347   -10278606.661 9  -7985608.36549  23307034.846    23307044.8124
  22034403.765     5014441.241 9   3895735.10749  22034403.210    22034410.4834
  20881537.436    -1010940.704 9   -788135.89249  20881536.833    20881542.7984
  23138314.184    14742933.004 9  11472115.78849  23138315.308    23138323.9314
  23476446.708     2834405.297 9   2205874.41649  23476448.553    23476455.2514
  23300602.770   -12257308.777 9  -9317254.69849  23300601.719    23300609.5394
 99  4 14 17 24  0.0010000  0  6 04 02 07 27 26 09
  23287117.526   -10383280.743 9  -8067172.46149  23287118.014    23287127.5164
  22039517.829     5041315.649 9   3916676.15849  22039517.579    22039524.4044
  20885641.301     -989374.955 9   -771331.42849  20885640.872    20885646.9384
  23156939.193    14840806.961 9  11548380.99949  23156940.154    23156948.4734
  23485277.563     2880810.709 9   2242034.39549  23485278.040    23485285.1724
  23283575.302   -12346788.440 9  -9386979.06949  23283574.167    23283581.9784
 99  4 14 17 24 30.0010000  0  6 04 02 07 27 26 09
  23267222.785   -10487827.461 9  -8148637.32849  23267222.857    23267231.5784
  22044660.647     5068340.968 9   3937734.79449  22044659.920    22044666.8474
  20889798.807     -967527.420 9   -754307.39549  20889798.214    20889804.1694
  23175602.094    14938880.317 9  11624801.61349  23175601.875    23175612.5204
  23494164.037     2927509.135 9   2278422.66349  23494163.889    23494171.6964
  23266579.127   -12436102.705 9  -9456574.56449  23266578.213    23266585.7944
 99  4 14 17 25  0.0010000  0  6 04 02 07 27 26 09
  23247351.906   -10592248.720 9  -8230004.44849  23247351.683    23247361.2874
  22049828.904     5095499.692 9   3958897.38349  22049828.401    22049835.4204
  20894010.660     -945393.792 9   -737060.43249  20894010.028    20894015.8654
  23194304.865    15037162.585 9  11701384.97649  23194305.836    23194315.1844
  23503101.369     2974474.575 9   2315019.02149  23503101.991    23503109.0424
  23249616.341   -12525242.567 9  -9526034.15449  23249616.376    23249623.7944
 99  4 14 17 25 30.0010000  0  6 04 02 07 27 26 09
  23227498.625   -10696577.558 9  -8311299.55249  23227499.367    23227508.0844
  22055016.375     5122759.553 9   3980138.77549  22055016.190    22055022.9684
  20898270.330     -923009.255 9   -719617.96249  20898269.689    20898276.0894
  23213044.442    15135638.387 9  11778119.15249  23213044.993    23213054.5244
  23512086.526     3021691.041 9   2351810.97649  23512086.111    23512094.0044
  23232682.391   -12614230.749 9  -9595375.55849  23232681.939    23232689.7564
 99  4 14 17 26  0.0010000  0  6 04 02 07 27 26 09
  23207678.127   -10800734.752 9  -8392460.87449  23207677.419    23207687.4984
  22060235.166     5150184.200 9   4001508.57849  22060234.647    22060241.3714
  20902590.801     -900304.924 9   -701926.29949  20902590.418    20902596.5824
  23231834.067    15234376.870 9  11855058.03549  23231832.567    23231844.1874
  23521134.709     3069239.336 9   2388861.48749  23521136.426    23521142.5714
  23215788.406   -12703009.830 9  -9664554.02449  23215787.255    23215795.6354
 99  4 14 17 26 30.0010000  0  6 04 02 07 27 26 09
  23187880.589   -10904771.583 9  -8473528.42749  23187881.704    23187888.7294
  22065470.861     5177698.077 9   4022947.91749  22065470.403    22065477.0764
  20906962.519     -877331.681 9   -684025.09349  20906961.722    20906967.8984
  23250662.994    15333322.978 9  11932158.65849  23250663.071    23250673.0144
  23530237.592     3117074.760 9   2426135.75649  23530239.054    23530244.5014
  23198924.589   -12791629.650 9  -9733608.39949  23198924.259    23198931.8914
 99  4 14 17 27  0.0010000  0  6 04 02 07 27 26 09
  23168097.739   -11008731.275 9  -8554535.86149  23168096.870    23168105.6194
  22070716.332     5205263.054 9   4044427.06649  22070715.751    22070723.2034
  20911377.262     -854132.114 9   -665947.53249  20911376.585    20911382.8414
  23269522.800    15432432.382 9  12009386.57049  23269522.445    23269533.4494
  23539389.679     3165168.797 9   2463611.53649  23539388.211    23539396.6814
  23182088.691   -12880102.998 9  -9802548.63049  23182087.885    23182095.4534
 99  4 14 17 27 30.0010000  0  6 04 02 07 27 26 09
  23148326.370   -11112630.541 9  -8635496.21649  23148327.266    23148335.5714
  22075968.272     5232861.623 9   4065932.39149  22075967.995    22075974.5374
  20915828.281     -830741.980 9   -647721.48049  20915827.634    20915833.8214
  23288409.304    15531681.039 9  12086722.96649  23288409.550    23288419.8674
  23548588.973     3213511.282 9   2501280.87449  23548588.511    23548597.1924
  23165279.272   -12968437.519 9  -9871380.70349  23165279.421    23165285.7844
 99  4 14 17 28  0.0010000  0  6 04 02 07 27 26 09
  23128589.223   -11216348.798 9  -8716315.49949  23128588.691    23128599.1274
  22081251.251     5260623.845 9   4087565.23749  22081250.938    22081257.9784
  20920338.688     -807039.622 9   -629252.13049  20920338.011    20920344.1904
  23307344.620    15631185.743 9  12164258.87549  23307344.621    23307353.3674
  23557856.281     3262212.001 9   2539229.38349  23557857.465    23557865.5954
  23148523.466   -13056490.334 9  -9939993.26349  23148522.791    23148530.4814
 99  4 14 17 28 30.0010000  0  6 04 02 07 27 26 09
  23108872.689   -11319958.899 9  -8797050.52949  23108873.080    23108882.3104
  22086556.251     5288501.454 9   4109287.99349  22086556.005    22086562.9284
  20924894.725     -783097.461 9   -610595.93149  20924894.227    20924900.2814
  23326316.255    15730880.949 9  12241943.24849  23326316.387    23326327.3124
  23567177.401     3311194.101 9   2577397.16849  23567177.892    23567187.1784
  23131812.981   -13144304.584 9 -10008419.93349  23131813.169    23131819.2924
 99  4 14 17 29  0.0010000  0  6 04 02 07 27 26 09
  23089167.772   -11423508.683 9  -8877738.54849  23089167.752    23089175.5294
  22091877.265     5316463.150 9   4131076.27149  22091876.902    22091883.4804
  20929486.208     -758969.154 9   -591794.67549  20929485.639    20929491.9794
  23345313.780    15830713.068 9  12319734.26349  23345313.666    23345321.8154
  23576540.957     3360399.482 9   2615738.90249  23576541.610    23576551.7104
  23115137.188   -13231936.424 9 -10076704.45449  23115136.644    23115144.0044
 99  4 14 17 29 30.0010000  0  6 04 02 07 27 26 09
  23069481.136   -11526962.432 9  -8958351.75049  23069480.411    23069489.7814
  22097218.026     5344528.781 9   4152945.54749  22097217.525    22097224.3644
  20934120.141     -734617.815 9   -572819.62749  20934119.501    20934125.7354
  23364343.623    15930715.071 9  12397657.68949  23364342.962    23364356.4134
  23585951.281     3409851.106 9   2654272.53649  23585954.224    23585962.0644
  23098498.854   -13319370.935 9 -10144835.21349  23098498.732    23098505.8764
 99  4 14 17 30  0.0010000  0  6 04 02 07 27 26 09
  23049833.144   -11630213.311 9  -9038806.85849  23049833.482    23049842.5624
  22102599.425     5372808.145 9   4174981.36549  22102598.919    22102605.7334
  20938818.177     -709929.500 9   -553582.00749  20938817.608    20938823.6704
  23383423.746    16030980.536 9  12475786.39149  23383423.163    23383435.2034
  23595426.781     3459644.438 9   2693072.46749  23595428.055    23595437.0614
  23081914.893   -13406519.679 9 -10212743.30049  23081914.393    23081921.4194
 99  4 14 17 30 30.0010000  0  6 04 02 07 27 26 09
  23030205.700   -11733356.060 9  -9119177.70549  23030205.441    23030213.8584
  22107998.500     5401180.372 9   4197089.53549  22107998.001    22108005.3894
  20943561.275     -685004.486 9   -534159.95149  20943560.805    20943566.7964
  23402530.000    16131383.571 9  12554022.28749  23402531.485    23402538.1474
  23604946.599     3509670.041 9   2732053.33649  23604944.787    23604955.3864
  23065361.085   -13493510.174 9 -10280528.07749  23065360.783    23065368.1824
 99  4 14 17 31  0.0010000  0  6 04 02 07 27 26 09
  23010608.813   -11836337.590 9  -9199422.96649  23010609.357    23010617.2964
  22113421.110     5429676.343 9   4219294.13349  22113420.887    22113427.3244
  20948359.755     -659788.448 9   -514511.11649  20948359.373    20948365.5514
  23421668.041    16231953.877 9  12632388.53249  23421667.627    23421677.9284
  23614518.185     3559969.257 9   2771247.39049  23614517.700    23614527.4424
  23048843.617   -13580310.180 9 -10348164.40249  23048843.238    23048849.7494
 99  4 14 17 31 30.0010000  0  6 04 02 07 27 26 09
  22991038.555   -11939179.610 9  -9279559.47649  22991039.115    22991048.3034
  22118862.806     5458271.799 9   4241576.24749  22118862.420    22118869.4194
  20953206.692     -634317.826 9   -494663.90649  20953206.267    20953212.2274
  23440829.851    16332649.336 9  12710852.26949  23440832.160    23440841.2604
  23624136.999     3610516.347 9   2810634.62249  23624139.029    23624146.0754
  23032360.461   -13666930.071 9 -10415660.38549  23032360.349    23032367.0374
 99  4 14 17 32  0.0010000  0  6 04 02 07 27 26 09
  22971499.833   -12041856.318 9  -9359567.18649  22971498.792    22971508.1204
  22124328.038     5486991.547 9   4263955.21149  22124327.697    22124334.1644
  20958103.081     -608587.491 9   -474614.32549  20958102.627    20958108.7944
  23460013.050    16433456.525 9  12789403.09249  23460014.350    23460023.3674
  23633805.636     3661324.738 9   2850225.49149  23633806.586    23633814.8194
  23015916.838   -13753342.137 9 -10482994.43149  23015916.702    23015923.4894
 99  4 14 17 32 30.0010000  0  6 04 02 07 27 26 09
  22951992.502   -12144368.120 9  -9439446.42749  22951991.777    22952001.4974
  22129816.612     5515833.935 9   4286429.73849  22129816.087    22129823.2554
  20963047.099     -582606.561 9   -454369.47249  20963046.445    20963052.4514
  23479216.868    16534372.076 9  12868038.34449  23479218.006    23479226.9414
  23643522.984     3712388.789 9   2890015.54749  23643523.070    23643531.9744
  22999515.664   -13839531.378 9 -10550154.84349  22999515.417    22999521.8964
 99  4 14 17 33  0.0010000  0  6 04 02 07 27 26 09
  22932502.103   -12246790.070 9  -9519255.60949  22932502.509    22932510.5334
  22135317.268     5544739.988 9   4308953.87649  22135316.769    22135324.2204
  20968022.866     -556458.779 9   -433994.60649  20968022.340    20968028.4194
  23498431.439    16635343.643 9  12946717.21349  23498432.933    23498438.9284
  23653274.687     3763634.539 9   2929947.17149  23653274.599    23653283.8064
  22983145.232   -13925558.331 9 -10617188.79449  22983144.500    22983151.3174
 99  4 14 17 33 30.0010000  0  6 04 02 07 27 26 09
  22913042.864   -12349048.850 9  -9598937.66049  22913042.081    22913049.0674
  22140843.329     5573779.764 9   4331582.21149  22140842.993    22140849.7394
  20973042.514     -530080.689 9   -413440.28449  20973041.915    20973048.1114
  23517672.931    16736456.991 9  13025506.60249  23517672.054    23517683.0624
  23663073.556     3815127.262 9   2970071.25249  23663074.065    23663081.4334
  22966821.975   -14011337.302 9 -10684029.50349  22966821.670    22966828.6854
 99  4 14 17 34  0.0010000  0  6 04 02 07 27 26 09
  22893603.511   -12451203.190 9  -9678538.35849  22893604.018    22893612.4594
  22146381.336     5602881.890 9   4354259.12849  22146381.299    22146387.8224
  20978098.623     -503511.143 9   -392736.77349  20978097.975    20978104.4234
  23536935.889    16837682.881 9  13104383.63749  23536937.707    23536947.0854
  23672907.515     3866804.840 9   3010339.35649  23672908.816    23672915.2804
  22950533.684   -14096932.770 9 -10750727.23549  22950533.376    22950539.2074
 99  4 14 17 34 30.0010000  0  6 04 02 07 27 26 09
  22874180.170   -12553272.695 9  -9758072.90349  22874179.325    22874188.9144
  22151931.392     5632047.077 9   4376985.17949  22151931.387    22151938.0264
  20983191.395     -476748.273 9   -371882.62149  20983190.579    20983196.9004
  23556226.771    16939055.242 9  13183374.84149  23556228.362    23556238.7114
  23682774.180     3918653.950 9   3050741.15549  23682774.986    23682782.4634
  22934279.614   -14182348.152 9 -10817284.63949  22934278.839    22934286.1744
 99  4 14 17 35  0.0010000  0  6 04 02 07 27 26 09
  22854780.665   -12655217.172 9  -9837510.06749  22854780.685    22854788.3524
  22157500.563     5661313.000 9   4399789.73549  22157500.242    22157507.1294
  20988328.757     -449751.363 9   -350846.10049  20988328.183    20988334.4714
  23575553.719    17040618.264 9  13262514.59549  23575555.053    23575568.2414
  23692680.143     3970709.184 9   3091303.55849  23692680.698    23692688.5134
  22918066.738   -14267547.189 9 -10883673.46649  22918066.783    22918073.1054
 99  4 14 17 35 30.0010000  0  6 04 02 07 27 26 09
  22835402.192   -12757051.138 9  -9916861.09949  22835402.520    22835411.6234
  22163086.989     5690669.676 9   4422664.99749  22163086.245    22163093.7894
  20993509.978     -422524.063 9   -329630.05349  20993509.406    20993515.7124
  23594914.203    17142357.334 9  13341791.51649  23594915.140    23594925.1954
  23702622.785     4022956.968 9   3132015.98749  23702622.656    23702631.0664
  22901892.583   -14352542.805 9 -10949903.78649  22901892.470    22901899.1114
 99  4 14 17 36  0.0010000  0  6 04 02 07 27 26 09
  22816047.295   -12858761.281 9  -9996115.65649  22816046.929    22816055.3414
  22168696.932     5720149.953 9   4445636.57949  22168696.321    22168703.5524
  20998737.568     -395053.157 9   -308224.18849  20998737.037    20998743.0614
  23614308.441    17244274.201 9  13421206.99749  23614309.584    23614322.0844
  23712604.018     4075408.387 9   3172887.08449  23712603.466    23712613.4534
  22885756.544   -14437337.621 9 -11015977.63349  22885755.571    22885763.2004
 99  4 14 17 36 30.0010000  0  6 04 02 07 27 26 09
  22796716.010   -12960347.750 9 -10075273.85149  22796715.832    22796724.5694
  22174332.726     5749766.157 9   4468714.08549  22174332.209    22174339.3994
  21004008.562     -367354.248 9   -286640.65449  21004008.018    21004014.2954
  23633730.839    17346338.690 9  13500737.49749  23633730.109    23633743.8024
  23722621.813     4128052.241 9   3213908.15849  23722623.310    23722631.2384
  22869657.252   -14521939.101 9 -11081900.83049  22869657.226    22869663.4944
 99  4 14 17 37  0.0010000  0  6 04 02 07 27 26 09
  22777413.035   -13061785.683 9 -10154316.29549  22777413.485    22777421.5674
  22179991.667     5779503.454 9   4491885.94649  22179991.302    22179998.4014
  21009321.918     -339432.286 9   -264883.30949  21009321.300    21009327.4034
  23653174.691    17448516.166 9  13580356.03649  23653176.147    23653188.1514
  23732677.390     4180894.328 9   3255083.70149  23732678.259    23732685.3894
  22853593.228   -14606356.009 9 -11147680.20449  22853592.937    22853599.4414
 99  4 14 17 37 30.0010000  0  6 04 02 07 27 26 09
  22758143.622   -13163046.855 9 -10233221.02149  22758144.085    22758151.9854
  22185676.223     5809375.738 9   4515162.98849  22185675.666    22185682.7954
  21014676.716     -311292.838 9   -242956.50349  21014675.893    21014682.0824
  23672639.263    17550802.482 9  13660059.38649  23672638.913    23672651.2874
  23742773.750     4233950.113 9   3296425.73749  23742774.399    23742782.2134
  22837566.978   -14690574.781 9 -11213305.19949  22837567.111    22837573.7524
 99  4 14 17 38  0.0010000  0  6 04 02 07 27 26 09
  22738911.961   -13264109.334 9 -10311970.91249  22738912.758    22738920.6254
  22191386.529     5839383.393 9   4538545.51249  22191386.653    22191393.2804
  21020073.262     -282933.781 9   -220858.57649  21020072.786    21020079.1704
  23692122.809    17653187.269 9  13739839.44049  23692123.564    23692134.4864
  23752913.433     4287233.366 9   3337945.01349  23752913.050    23752922.6724
  22821584.322   -14774563.907 9 -11278751.25049  22821583.856    22821591.3834
 99  4 14 17 38 30.0010000  0  6 04 02 07 27 26 09
  22719719.653   -13364965.456 9 -10390560.00249  22719717.377    22719727.4474
  22197116.982     5869496.576 9   4562010.27049  22197116.076    22197123.6014
  21025510.665     -254360.288 9   -198593.55249  21025510.242    21025516.5054
  23711623.481    17755663.050 9  13819690.41349  23711623.894    23711634.6844
  23763097.118     4340748.899 9   3379645.29249  23763096.401    23763106.5984
  22805648.654   -14858306.145 9 -11344004.91249  22805648.478    22805655.6424
 99  4 14 17 39  0.0010000  0  6 04 02 07 27 26 09
  22700572.388   -13465583.932 9 -10468963.93249  22700571.431    22700581.0924
  22202869.742     5899727.649 9   4585566.88749  22202869.363    22202876.5254
  21030990.995     -225561.157 9   -176152.70049  21030990.388    21030996.8694
  23731145.424    17858250.334 9  13899628.25749  23731146.319    23731158.6624
  23773331.089     4394528.700 9   3421551.48049  23773331.375    23773339.5084
  22789767.600   -14941761.224 9 -11409034.81349  22789767.722    22789774.8724
 99  4 14 17 39 30.0010000  0  6 04 02 07 27 26 09
  22681465.772   -13565989.761 9 -10547202.16049  22681464.579    22681473.9274
  22208643.094     5930066.776 9   4609207.70449  22208642.647    22208649.7364
  21036512.129     -196547.660 9   -153544.81649  21036511.666    21036517.8594
  23750689.416    17960952.766 9  13979655.82049  23750690.449    23750696.6774
  23783612.945     4448559.353 9   3463653.16949  23783613.297    23783622.6904
  22773943.183   -15024919.083 9 -11473833.12549  22773943.447    22773949.8764
 99  4 14 17 40  0.0010000  0  6 04 02 07 27 26 09
  22662396.850   -13666197.272 9 -10625285.86049  22662396.639    22662405.3774
  22214434.196     5960499.052 9   4632921.09849  22214433.738    22214440.8974
  21042076.301     -167307.872 9   -130760.60349  21042075.754    21042082.0744
  23770255.776    18063773.843 9  14059775.84349  23770258.083    23770268.2834
  23793940.292     4502828.239 9   3505940.48649  23793938.749    23793950.5484
  22758173.213   -15107790.908 9 -11538408.55049  22758173.914    22758180.2004
 99  4 14 17 40 30.0010000  0  6 04 02 07 27 26 09
  22643373.176   -13766167.430 9 -10703184.58849  22643372.679    22643381.2844
  22220249.786     5991059.989 9   4656734.74949  22220249.561    22220257.0144
  21047689.597     -137810.105 9   -107775.37049  21047689.188    21047695.5044
  23789853.155    18166758.287 9  14140023.16649  23789854.586    23789864.1874
  23804317.178     4557357.839 9   3548430.96849  23804314.956    23804326.5294
  22742460.276   -15190363.513 9 -11602750.81849  22742460.112    22742467.1644
 99  4 14 17 41  0.0010000  0  6 04 02 07 27 26 09
  22624386.856   -13865940.646 9 -10780929.87449  22624386.523    22624395.3974
  22226086.178     6021729.697 9   4680633.15549  22226085.471    22226093.0714
  21053343.947     -108096.477 9    -84621.92949  21053343.424    21053349.7114
  23809475.178    18269871.932 9  14220371.18849  23809473.604    23809488.8364
  23814734.602     4612101.173 9   3591087.96649  23814733.193    23814742.7194
  22726796.481   -15272677.252 9 -11666891.36749  22726795.687    22726802.9934
 99  4 14 17 41 30.0010000  0  6 04 02 07 27 26 09
  22605444.104   -13965485.031 9 -10858496.84149  22605444.107    22605452.0214
  22231950.681     6052547.570 9   4704647.01549  22231950.161    22231957.4434
  21059046.754      -78128.295 9    -61270.14449  21059046.226    21059052.4574
  23829128.978    18373152.297 9  14300849.08249  23829129.287    23829140.7214
  23825196.162     4667076.783 9   3633925.95949  23825196.220    23825204.5464
  22711186.744   -15354706.821 9 -11730810.49549  22711186.363    22711193.7754
 99  4 14 17 42  0.0010000  0  6 04 02 07 27 26 09
  22586542.345   -14064814.579 9 -10935896.42149  22586542.762    22586550.9434
  22237840.954     6083500.821 9   4728766.36549  22237840.723    22237847.9984
  21064792.251      -47935.520 9    -37743.34149  21064791.808    21064797.9394
  23848809.290    18476571.244 9  14381434.96649  23848811.561    23848820.7404
  23835693.979     4722242.443 9   3676912.03449  23835692.493    23835702.6744
  22695623.491   -15436491.965 9 -11794539.16449  22695623.027    22695629.9364
 99  4 14 17 42 30.0010000  0  6 04 02 07 27 26 09
  22567682.863   -14163920.670 9 -11013121.86349  22567683.748    22567690.4314
  22243759.678     6114603.577 9   4753002.21149  22243759.196    22243766.3804
  21070578.758      -17527.487 9    -14048.80749  21070578.042    21070584.2354
  23868515.916    18580128.761 9  14462128.81349  23868516.860    23868528.4344
  23846228.420     4777601.302 9   3720048.65249  23846227.590    23846237.9904
  22680109.918   -15518016.353 9 -11858064.65149  22680109.457    22680116.8234
 99  4 14 17 43  0.0010000  0  6 04 02 07 27 26 09
  22548863.093   -14262819.014 9 -11090185.42049  22548863.257    22548872.0754
  22249705.262     6145846.933 9   4777347.61549  22249704.860    22249712.1224
  21076402.682       13077.268 9      9799.01649  21076402.050    21076408.2324
  23888245.630    18683807.900 9  14542917.44549  23888246.171    23888256.0854
  23856796.880     4833138.712 9   3763324.45049  23856796.953    23856807.8874
  22664646.346   -15599277.160 9 -11921384.75249  22664646.102    22664652.4434
 99  4 14 17 43 30.0010000  0  6 04 02 07 27 26 09
  22530089.675   -14361473.985 9 -11167059.34349  22530090.133    22530097.2784
  22255683.793     6177264.196 9   4801828.52649  22255683.051    22255690.6724
  21082270.968       43915.243 9     33828.56749  21082270.368    21082276.6854
  23908003.910    18787637.137 9  14623823.04449  23908001.655    23908017.0544
  23867402.836     4888872.458 9   3806753.19349  23867401.812    23867409.6834
  22649237.706   -15680249.769 9 -11984480.27749  22649237.999    22649244.7264
 99  4 14 17 44  0.0010000  0  6 04 02 07 27 26 09
  22511361.501   -14459891.333 9 -11243748.11549  22511362.338    22511370.2004
  22261695.303     6208854.740 9   4826444.46349  22261694.610    22261702.1834
  21088182.239       74978.908 9     58033.98449  21088181.706    21088187.8954
  23927788.222    18891603.710 9  14704835.60049  23927786.428    23927799.7164
  23878045.995     4944802.594 9   3850334.94849  23878045.823    23878055.2934
  22633884.269   -15760932.068 9 -12047349.58649  22633884.488    22633891.3004
 99  4 14 17 44 30.0010000  0  6 04 02 07 27 26 09
  22492679.858   -14558064.040 9 -11320246.24149  22492680.082    22492686.7724
  22267742.405     6240632.142 9   4851205.99749  22267741.813    22267749.3584
  21094138.383      106278.451 9     82423.19749  21094137.712    21094144.0494
  23947597.544    18995700.836 9  14785949.96449  23947597.193    23947611.4584
  23888729.572     5000944.178 9   3894081.51449  23888729.587    23888739.6054
  22618589.817   -15841305.634 9 -12109978.32949  22618590.066    22618596.6424
 99  4 14 17 45  0.0010000  0  6 04 02 07 27 26 09
  22474039.497   -14656019.205 9 -11396574.84149  22474039.946    22474048.6984
  22273823.103     6272586.617 9   4876105.51449  22273822.893    22273829.9644
  21100136.209      137797.421 9    106983.39949  21100135.510    21100142.0884
  23967426.608    19099902.199 9  14867145.47549  23967425.617    23967438.9394
  23899448.453     5057271.693 9   3937972.95249  23899448.726    23899455.0464
  22603349.068   -15921396.669 9 -12172386.90949  22603348.947    22603355.7844
 99  4 14 17 45 30.0010000  0  6 04 02 07 27 26 09
  22455447.098   -14753722.403 9 -11472707.12849  22455447.567    22455454.6024
  22279944.944     6304756.782 9   4901173.10449  22279944.415    22279951.7974
  21106182.148      169569.060 9    131740.47849  21106181.545    21106188.1134
  23987281.114    19204237.295 9  14948445.21849  23987279.432    23987294.2334
  23910208.976     5113817.980 9   3982034.80249  23910211.425    23910218.7254
  22588164.836   -16001190.571 9 -12234563.95749  22588164.879    22588171.8554
 99  4 14 17 46  0.0010000  0  6 04 02 07 27 26 09
  22436901.409   -14851179.613 9 -11548647.73549  22436901.356    22436909.5084
  22286105.279     6337128.948 9   4926398.08949  22286104.881    22286112.3304
  21112273.315      201578.396 9    156682.77749  21112272.818    21112279.1354
  24007158.079    19308690.875 9  15029837.28649  24007160.619    24007164.5524
  23921013.196     5170594.854 9   4026276.39149  23921015.645    23921025.9194
  22573038.265   -16080680.835 9 -12296504.40549  22573037.711    22573044.7044
 99  4 14 17 46 30.0010000  0  6 04 02 07 27 26 09
  22418402.959   -14948388.860 9 -11624395.12349  22418403.412    22418411.1544
  22292300.383     6369684.543 9   4951766.01349  22292300.062    22292307.6994
  21118409.333      233823.128 9    181808.50649  21118408.940    21118415.0414
  24027059.681    19413273.634 9  15111329.99149  24027059.433    24027077.1784
  23931860.177     5227596.633 9   4070693.22649  23931861.387    23931870.3184
  22557967.261   -16159879.246 9 -12358217.43949  22557966.755    22557974.2244
 99  4 14 17 47  0.0010000  0  6 04 02 07 27 26 09
  22399953.084   -15045343.421 9 -11699944.05049  22399954.005    22399960.9004
  22298527.289     6402407.025 9   4977263.96949  22298526.781    22298534.8654
  21124589.307      266298.868 9    207114.24249  21124588.951    21124595.1344
  24046987.962    19517995.141 9  15192930.80749  24046990.325    24046996.0824
  23942750.876     5284827.443 9   4115288.41349  23942752.787    23942759.2524
  22542952.519   -16238782.377 9 -12419700.38249  22542952.069    22542959.2094
 99  4 14 17 47 30.0010000  0  6 04 02 07 27 26 09
  22381554.705   -15142027.395 9 -11775282.13949  22381555.651    22381563.4974
  22304780.885     6435269.892 9   5002871.30949  22304780.422    22304788.4144
  21130812.323      299000.791 9    232596.22049  21130811.953    21130818.0894
  24066938.641    19622835.981 9  15274624.62849  24066941.273    24066951.0344
  23953684.773     5342284.287 9   4160059.83149  23953685.049    23953695.5854
  22527994.836   -16317385.599 9 -12480949.62349  22527994.554    22528001.3694
 99  4 14 17 48  0.0010000  0  6 04 02 07 27 26 09
  22363210.062   -15238429.194 9 -11850400.35549  22363210.961    22363217.3874
  22311059.485     6468263.786 9   5028580.75749  22311059.575    22311067.1024
  21137079.335      331933.899 9    258258.34149  21137078.695    21137085.0974
  24086912.148    19727795.118 9  15356410.53749  24086915.365    24086922.5524
  23964660.958     5399963.110 9   4205004.25549  23964660.721    23964668.3344
  22513100.599   -16395655.258 9 -12541938.95549  22513100.505    22513106.9864
 99  4 14 17 48 30.0010000  0  6 04 02 07 27 26 09
  22344915.469   -15334568.212 9 -11925313.79949  22344916.396    22344923.2594
  22317358.541     6501365.194 9   5054373.97649  22317358.604    22317365.9404
  21143383.874      365064.389 9    284074.26649  21143383.330    21143389.7664
  24106902.246    19832840.773 9  15438263.96349  24106905.587    24106912.7974
  23975667.849     5457803.588 9   4250074.57749  23975665.532    23975673.9314
  22498262.568   -16473630.107 9 -12602698.54949  22498262.367    22498268.8844
 99  4 14 17 49  0.0010000  0  6 04 02 07 27 26 09
  22326691.390   -15430336.215 9 -11999938.14249  22326691.353    22326698.9074
  22323697.926     6534678.516 9   5080332.31749  22323697.446    22323705.4644
  21149740.989      398471.100 9    310105.42749  21149740.429    21149746.8024
  24126920.115    19938033.455 9  15520231.93349  24126919.191    24126935.1294
  23986720.143     5515883.702 9   4295331.65749  23986719.270    23986731.9324
  22483498.844   -16551214.391 9 -12663153.81749  22483498.668    22483505.4584
 99  4 14 17 49 30.0010000  0  6 04 02 07 27 26 09
  22308521.414   -15525819.516 9 -12074340.64949  22308521.472    22308528.9624
  22330062.947     6568125.961 9   5106395.17749  22330062.699    22330070.2064
  21156133.161      432061.787 9    336279.94349  21156132.844    21156138.8964
  24146947.823    20043279.438 9  15602241.38049  24146947.636    24146958.9284
  23997797.168     5574092.703 9   4340689.20949  23997797.291    23997807.4914
  22468793.876   -16628489.596 9 -12723368.23849  22468794.028    22468800.9874
 99  4 14 17 50  0.0010000  0  6 04 02 07 27 26 09
  22290413.817   -15620975.386 9 -12148488.01849  22290414.067    22290422.0794
  22336466.094     6601774.104 9   5132614.41949  22336465.816    22336473.2484
  21162568.910      465881.555 9    362632.96349  21162568.339    21162574.9084
  24166999.896    20148654.291 9  15684351.28249  24167001.533    24167011.5024
  24008906.581     5632472.985 9   4386180.14349  24008906.670    24008914.2034
  22454157.524   -16705403.795 9 -12783301.36249  22454157.380    22454164.5074
 99  4 14 17 50 30.0010000  0  6 04 02 07 27 26 09
  22272361.139   -15715842.698 9 -12222410.52349  22272361.315    22272369.2174
  22342901.078     6635589.986 9   5158964.36249  22342900.922    22342908.2484
  21169040.903      499892.144 9    389134.67549  21169040.348    21169046.9134
  24187069.914    20254122.166 9  15766533.70149  24187070.929    24187078.3134
  24020043.305     5690996.247 9   4431782.54249  24020044.349    24020054.0594
  22439579.477   -16782011.913 9 -12842995.97449  22439579.312    22439586.1664
 99  4 14 17 51  0.0010000  0  6 04 02 07 27 26 09
  22254367.623   -15810399.015 9 -12296090.69349  22254367.142    22254375.2444
  22349373.252     6669601.160 9   5185466.47649  22349372.991    22349380.1924
  21175558.397      534141.750 9    415822.63549  21175557.956    21175564.4374
  24207167.118    20359733.299 9  15848827.69149  24207163.859    24207177.0294
  24031217.565     5749717.210 9   4477538.98749  24031218.753    24031228.5174
  22425070.221   -16858258.690 9 -12902409.02349  22425070.377    22425077.0954
 99  4 14 17 51 30.0010000  0  6 04 02 07 27 26 09
  22236411.603   -15904758.247 9 -12369617.29949  22236411.313    22236419.5504
  22355860.795     6703692.949 9   5212031.41849  22355860.740    22355867.5914
  21182106.133      568550.099 9    442634.29149  21182105.424    21182112.0724
  24227277.908    20465415.179 9  15931176.79149  24227278.824    24227290.5104
  24042414.592     5808557.432 9   4523388.32949  24042416.451    24042424.5834
  22410614.465   -16934224.927 9 -12961603.46949  22410613.965    22410620.8794
 99  4 14 17 52  0.0010000  0  6 04 02 07 27 26 09
  22218512.672   -15998817.771 9 -12442910.37849  22218512.354    22218520.3074
  22362381.386     6737958.271 9   5238731.57549  22362380.386    22362388.5384
  21188703.930      603221.491 9    469650.90249  21188703.466    21188709.8934
  24247421.219    20571266.967 9  16013658.29049  24247422.629    24247435.6174
  24053655.450     5867627.605 9   4569416.86849  24053655.611    24053664.9794
  22396228.430   -17009823.729 9 -13020511.60949  22396227.974    22396235.3094
 99  4 14 17 52 30.0010000  0  6 04 02 07 27 26 09
  22200666.476   -16092599.180 9 -12515986.72749  22200665.889    22200674.5864
  22368930.162     6772372.270 9   5265547.59449  22368929.652    22368937.5614
  21195348.610      638139.390 9    496859.61249  21195348.036    21195354.6094
  24267588.803    20677245.972 9  16096238.92449  24267591.226    24267604.3424
  24064932.451     5926888.082 9   4615593.70449  24064933.473    24064942.8774
  22381909.319   -17085071.056 9 -13079145.87549  22381908.957    22381915.8374
 99  4 14 17 53  0.0010000  0  7 24 04 02 07 27 26 09
  24851566.280    -1029132.392 9   -782114.06749  24851566.159    24851579.1614
  22182866.906   -16186135.768 9 -12588872.31449  22182866.551    22182874.4134
  22375501.167     6806903.052 9   5292454.60949  22375500.953    22375508.6004
  21202031.729      673259.170 9    524225.62349  21202031.309    21202037.8874
  24287769.497    20783294.087 9  16178873.43149  24287772.685    24287785.0464
  24076234.618     5986280.709 9   4661873.52749  24076234.690    24076244.4214
  22367651.398   -17159996.422 9 -13137529.25949  22367651.037    22367657.9934
 99  4 14 17 53 30.0010000  0  7 24 04 02 07 27 26 09
  24828960.359    -1147927.353 9   -874681.28249  24828959.049    24828975.1884
  22165131.977   -16279333.398 9 -12661493.78749  22165132.238    22165139.8894
  22382111.810     6841641.880 9   5319523.71949  22382111.856    22382119.1894
  21208764.511      708639.949 9    551795.01849  21208763.808    21208770.4364
  24307971.390    20889453.477 9  16261594.59449  24307970.033    24307988.6964
  24087574.127     6045869.970 9   4708306.52249  24087574.819    24087583.2854
  22353465.116   -17234545.739 9 -13195619.63549  22353464.888    22353471.6804
 99  4 14 17 54  0.0010000  0  7 24 04 02 07 27 26 09
  24806337.765    -1266809.721 9   -967316.57949  24806338.839    24806351.3224
  22147451.146   -16372246.235 9 -12733893.32849  22147451.259    22147459.2454
  22388755.299     6876553.494 9   5346727.48949  22388754.628    22388762.5224
  21215532.223      744204.620 9    579507.70349  21215531.863    21215538.0964
  24328177.309    20995633.291 9  16344331.68249  24328179.042    24328194.2164
  24098934.134     6105566.335 9   4754822.99349  24098934.255    24098945.7884
  22339335.929   -17308794.547 9 -13253475.83349  22339335.610    22339342.3934
 99  4 14 17 54 30.0010000  0  7 24 04 02 07 27 26 09
  24783713.176    -1385703.011 9  -1059960.42949  24783712.933    24783727.2344
  22129837.464   -16464806.854 9 -12806018.42649  22129837.972    22129845.4654
  22395444.545     6911705.414 9   5374118.50549  22395444.137    22395452.1464
  21222346.818      780015.227 9    607412.02549  21222346.265    21222352.8974
  24348396.958    21101885.646 9  16427125.34549  24348396.656    24348412.1284
  24110328.303     6165442.627 9   4801479.66949  24110327.268    24110339.3414
  22325277.979   -17382669.652 9 -13311040.84549  22325277.622    22325284.5044
 99  4 14 17 55  0.0010000  0  7 24 04 02 07 27 26 09
  24761077.390    -1504653.995 9  -1152649.27249  24761077.703    24761090.6654
  22112285.205   -16557044.739 9 -12877892.03949  22112285.273    22112293.0644
  22402169.981     6947047.356 9   5401657.57749  22402169.861    22402177.4654
  21229196.170      816008.465 9    635458.65549  21229195.894    21229202.1794
  24368619.989    21208157.456 9  16509934.11449  24368619.905    24368636.9054
  24121751.801     6225471.934 9   4848255.61449  24121750.859    24121763.9764
  22311279.155   -17456233.661 9 -13368363.44849  22311278.963    22311285.7614
 99  4 14 17 55 30.0010000  0  7 24 04 02 07 27 26 09
  24738430.761    -1623661.274 9  -1245381.90649  24738430.301    24738444.6254
  22094793.963   -16648961.620 9 -12949515.52649  22094793.942    22094801.3784
  22408930.174     6982571.964 9   5429338.98849  22408930.270    22408937.7344
  21236078.501      852174.904 9    663640.25449  21236078.139    21236084.3574
  24388850.424    21314468.367 9  16592773.36349  24388850.410    24388864.8614
  24133204.115     6285654.015 9   4895150.55749  24133205.360    24133214.2304
  22297340.474   -17529481.859 9 -13425439.96749  22297340.293    22297346.8074
 99  4 14 17 56  0.0010000  0  7 24 04 02 07 27 26 09
  24715774.444    -1742719.350 9  -1338154.09449  24715773.516    24715788.2394
  22077364.069   -16740556.236 9 -13020887.89649  22077363.829    22077371.5264
  22415723.222     7018268.883 9   5457154.67849  22415722.368    22415731.1034
  21242994.951      888520.648 9    691961.57049  21242994.381    21243000.9794
  24409094.150    21420849.260 9  16675667.12449  24409094.795    24409107.7824
  24144685.935     6345990.433 9   4942165.71749  24144687.561    24144696.7994
  22283468.137   -17602381.958 9 -13482245.22849  22283467.936    22283474.6194
 99  4 14 17 56 30.0010000  0  7 24 04 02 07 27 26 09
  24693104.358    -1861849.719 9  -1430982.70749  24693103.180    24693118.3364
  22059996.322   -16831824.122 9 -13092005.66849  22059996.432    22060004.0654
  22422546.831     7054127.191 9   5485096.12249  22422546.544    22422554.4084
  21249942.978      925032.801 9    720412.55149  21249942.401    21249949.0394
  24429354.532    21527317.041 9  16758628.60549  24429355.549    24429369.9634
  24156197.349     6406482.146 9   4989301.95949  24156199.111    24156209.6724
  22269663.114   -17674928.273 9 -13538774.81349  22269663.063    22269669.3754
 99  4 14 17 57  0.0010000  0  7 24 04 02 07 27 26 09
  24670429.916    -1981003.381 9  -1523829.46849  24670429.337    24670444.0884
  22042700.641   -16922713.525 9 -13162828.53349  22042700.896    22042708.2534
  22429411.499     7090201.015 9   5513205.49549  22429411.671    22429419.2734
  21256931.716      961758.565 9    749029.98049  21256931.193    21256937.6884
  24449645.578    21633945.832 9  16841715.57049  24449646.222    24449663.2594
  24167747.268     6467176.970 9   5036596.44349  24167748.946    24167756.3644
  22255937.423   -17747057.162 9 -13594979.13849  22255937.125    22255943.7154
 99  4 14 17 57 30.0010000  0  7 24 04 02 07 27 26 09
  24647744.428    -2100214.560 9  -1616721.00849  24647743.682    24647758.1174
  22025467.503   -17013274.249 9 -13233395.26949  22025467.626    22025475.4384
  22436309.122     7126447.531 9   5541449.45049  22436308.427    22436317.0044
  21263955.449      998668.296 9    777790.76449  21263954.820    21263961.3194
  24469961.108    21740701.911 9  16924901.75049  24469961.208    24469977.4944
  24179327.585     6528031.609 9   5084015.39649  24179329.359    24179338.9174
  22242287.800   -17818785.782 9 -13650871.56249  22242287.725    22242294.6594
 99  4 14 17 58  0.0010000  0  7 24 04 02 07 27 26 09
  24625045.571    -2219497.021 9  -1709668.13449  24625044.986    24625060.3284
  22008293.526   -17103524.096 9 -13303719.77349  22008293.475    22008300.9344
  22443235.282     7162844.332 9   5569810.50249  22443235.042    22443242.8774
  21271012.172     1035751.475 9    806686.69949  21271011.425    21271018.2574
  24490294.877    21847553.720 9  17008162.45849  24490295.201    24490310.2624
  24190934.782     6589027.647 9   5131544.59849  24190937.173    24190945.3904
  22228707.648   -17890149.968 9 -13706479.99949  22228707.336    22228714.1104
 99  4 14 17 58 30.0010000  0  8 24 04 05 02 07 27 26 09
  24602341.752    -2338805.876 9  -1802635.81549  24602340.834    24602355.6354
  21991183.556   -17193437.237 9 -13373781.90749  21991183.690    21991190.9224
  25029793.851    -2871748.613 9  -2007664.86249  25029792.835    25029803.9464
  22450194.048     7199412.554 9   5598305.12049  22450193.494    22450201.6934
  21278108.120     1073040.972 9    835743.40449  21278107.303    21278114.0914
  24510648.459    21954511.409 9  17091505.64149  24510648.081    24510662.7324
  24202574.607     6650195.196 9   5179207.43649  24202575.206    24202586.1664
  22215198.939   -17961138.584 9 -13761795.79549  22215198.718    22215205.2954
 99  4 14 17 59  0.0010000  0  8 24 04 05 02 07 27 26 09
  24579633.098    -2458140.764 9  -1895623.82049  24579632.694    24579647.1314
  21974135.175   -17283026.630 9 -13443591.76149  21974135.093    21974142.5394
  25012063.087    -2964924.450 9  -2080269.32049  25012062.719    25012073.1724
  22457180.564     7236126.428 9   5626913.23749  22457180.368    22457188.8044
  21285241.731     1110528.170 9    864954.16249  21285241.194    21285247.6964
  24531015.479    22061540.124 9  17174904.16349  24531016.641    24531030.9554
  24214242.312     6711508.647 9   5226983.99149  24214242.289    24214251.7664
  22201759.288   -18031764.288 9 -13816828.79749  22201758.962    22201765.4514
 99  4 14 17 59 30.0010000  0  8 24 04 05 02 07 27 26 09
  24556931.694    -2577437.203 9  -1988581.87949  24556929.801    24556945.0584
  21957163.466   -17372213.587 9 -13513088.05249  21957163.362    21957171.0134
  24994327.518    -3058126.062 9  -2152893.83149  24994326.398    24994336.9684
  22464207.630     7273053.527 9   5655687.49649  22464207.533    22464215.5644
  21292425.127     1148276.721 9    894368.56149  21292424.731    21292431.2674
  24551405.925    22168691.203 9  17258398.06349  24551406.725    24551421.3774
  24225946.459     6773012.870 9   5274909.15249  24225947.266    24225958.0384
  22188400.726   -18101963.645 9 -13871529.58949  22188400.870    22188407.7154
 99  4 14 18  0  0.0010000  0  8 24 04 05 02 07 27 26 09
  24534211.863    -2696829.754 9  -2081614.79849  24534210.749    24534225.3804
  21940243.562   -17461127.964 9 -13582371.93549  21940243.495    21940250.9654
  24976563.423    -3151477.339 9  -2225634.97349  24976562.675    24976573.8524
  22471250.260     7310062.647 9   5684525.66849  22471249.837    22471258.0454
  21299631.076     1186144.093 9    923875.55749  21299630.543    21299637.0694
  24571793.597    22275827.843 9  17341880.73649  24571794.621    24571809.1504
  24237657.490     6834553.990 9   5322863.13049  24237659.168    24237670.3524
  22175095.993   -18171880.424 9 -13926010.18449  22175095.421    22175102.5454
 99  4 14 18  0 30.0010000  0  8 24 04 05 02 07 27 26 09
  24511489.277    -2816237.324 9  -2174659.47549  24511488.759    24511503.5704
  21923392.250   -17549682.003 9 -13651375.03249  21923392.131    21923399.7344
  24958783.728    -3244909.880 9  -2298439.46949  24958782.195    24958794.2214
  22478327.117     7347251.071 9   5713503.56549  22478326.678    22478335.1634
  21306872.616     1224198.439 9    953528.24349  21306871.760    21306878.4044
  24592190.806    22383012.908 9  17425401.05349  24592192.799    24592204.1794
  24249388.197     6896198.186 9   5370897.37249  24249388.038    24249397.4984
  22161864.484   -18241412.407 9 -13980190.94949  22161864.470    22161870.9774
 99  4 14 18  1  0.0010000  0  8 24 04 05 02 07 27 26 09
  24488759.360    -2935683.238 9  -2267733.95449  24488758.046    24488773.3674
  21906608.618   -17637880.595 9 -13720101.16249  21906608.700    21906616.4874
  24940987.297    -3338430.445 9  -2371312.56549  24940986.994    24940997.2854
  22485439.762     7384627.746 9   5742628.14149  22485439.674    22485447.5684
  21314145.712     1262418.559 9    983310.09849  21314145.174    21314151.4984
  24612593.377    22490227.965 9  17508944.83549  24612596.734    24612610.6264
  24261134.995     6957926.927 9   5418997.49149  24261134.836    24261146.3854
  22148703.992   -18310571.373 9 -14034081.03949  22148704.301    22148710.8514
 99  4 14 18  1 30.0010000  0  8 24 04 05 02 07 27 26 09
  24466017.942    -3055189.417 9  -2360855.47649  24466017.978    24466031.2764
  21889887.143   -17725752.398 9 -13788572.64349  21889886.817    21889894.6194
  24923173.333    -3432041.775 9  -2444256.37549  24923171.198    24923182.4554
  22492587.663     7422189.608 9   5771897.02949  22492587.865    22492595.7644
  21321447.710     1300790.587 9   1013210.32649  21321447.099    21321453.8994
  24632998.315    22597454.885 9  17592497.80849  24632999.649    24633014.8324
  24272895.432     7019728.459 9   5467154.40149  24272897.163    24272907.1544
  22135610.057   -18379380.824 9 -14087698.78649  22135610.086    22135616.9004
 99  4 14 18  2  0.0010000  0  8 24 04 05 02 07 27 26 09
  24443271.422    -3174722.397 9  -2453997.81849  24443270.566    24443285.0794
  21873232.487   -17813273.155 9 -13856770.59149  21873232.596    21873240.0854
  24905348.625    -3525710.745 9  -2517245.14349  24905347.427    24905357.3764
  22499779.167     7459980.752 9   5801344.56649  22499778.507    22499786.9644
  21328785.124     1339348.908 9   1043255.71349  21328784.520    21328791.1254
  24653408.602    22704709.428 9  17676072.31249  24653408.710    24653424.3274
  24284678.325     7081647.143 9   5515402.49149  24284679.906    24284687.7134
  22122588.326   -18447809.763 9 -14141020.03449  22122588.241    22122594.6814
 99  4 14 18  2 30.0010000  0  8 24 04 05 02 07 27 26 09
  24420507.290    -3294347.762 9  -2547212.16949  24420506.635    24420520.7364
  21856631.219   -17900513.017 9 -13924749.65049  21856631.319    21856638.7524
  24887499.870    -3619506.235 9  -2590332.46649  24887498.833    24887510.0704
  22507002.128     7497937.307 9   5830921.00449  22507001.917    22507009.9124
  21336144.612     1378023.177 9   1073391.45749  21336143.885    21336150.7604
  24673807.972    22811907.413 9  17759602.73149  24673809.497    24673824.8984
  24296473.342     7143629.029 9   5563699.85649  24296474.251    24296484.5824
  22109626.065   -18515927.122 9 -14194098.48049  22109625.994    22109632.5904
 99  4 14 18  3  0.0010000  0  8 24 04 05 02 07 27 26 09
  24397730.461    -3414039.897 9  -2640478.54749  24397729.573    24397743.0374
  21840085.863   -17987458.834 9 -13992499.58849  21840085.743    21840093.1504
  24869635.070    -3713385.041 9  -2663484.69649  24869631.862    24869643.6624
  22514257.245     7536062.961 9   5860629.20349  22514256.894    22514265.2214
  21343531.508     1416841.315 9   1103639.30049  21343531.011    21343537.6224
  24694204.696    22919091.786 9  17843122.55849  24694205.427    24694222.6024
  24308286.808     7205708.663 9   5612073.43549  24308287.093    24308296.0004
  22096725.458   -18583720.376 9 -14246924.39349  22096725.445    22096732.2514
 99  4 14 18  3 30.0010000  0  8 24 04 05 02 07 27 26 09
  24374950.720    -3533746.899 9  -2733756.48449  24374949.364    24374963.6224
  21823606.175   -18074059.803 9 -14059980.81049  21823606.422    21823613.5384
  24851761.405    -3807310.612 9  -2736673.39449  24851760.094    24851769.6864
  22521549.372     7574382.696 9   5890488.62849  22521548.956    22521556.8134
  21350953.042     1455841.478 9   1134028.98749  21350952.433    21350959.1304
  24714609.468    23026317.544 9  17926674.62749  24714609.932    24714626.5824
  24320125.193     7267919.171 9   5660548.93549  24320125.627    24320136.3614
  22083898.146   -18651128.804 9 -14299450.43649  22083898.075    22083904.8254
 99  4 14 18  4  0.0010000  0  8 24 04 05 02 07 27 26 09
  24352172.046    -3653447.899 9  -2827029.77149  24352170.653    24352185.2184
  21807198.181   -18160284.464 9 -14127168.80449  21807198.091    21807205.8724
  24833879.295    -3901281.784 9  -2809897.64949  24833878.943    24833889.0244
  22528875.350     7612880.286 9   5920486.64449  22528875.194    22528882.8934
  21358409.895     1495027.344 9   1164563.37349  21358409.351    21358416.3314
  24735025.105    23133599.924 9  18010270.83449  24735025.048    24735042.9974
  24331990.803     7330272.619 9   5709135.87249  24331993.601    24332003.3034
  22071147.088   -18718135.777 9 -14351663.65849  22071146.943    22071154.1464
 99  4 14 18  4 30.0010000  0  7 24 04 05 02 07 26 09
  24329395.942    -3773136.095 9  -2920293.01349  24329394.760    24329408.8764
  21790861.652   -18246133.198 9 -14194063.87149  21790861.680    21790869.3204
  24815989.478    -3995293.891 9  -2883153.78349  24815988.109    24816000.4194
  22536231.304     7651535.588 9   5950607.55049  22536230.812    22536239.1404
  21365901.296     1534394.862 9   1195239.30049  21365900.865    21365907.5554
  24343880.970     7392754.548 9   5757822.84449  24343882.501    24343891.2154
  22058472.307   -18784742.398 9 -14403564.92049  22058472.138    22058479.0294
 99  4 14 18  5  0.0010000  0  7 24 04 05 02 07 26 09
  24306621.942    -3892812.663 9  -3013547.30149  24306620.847    24306635.3134
  21774600.335   -18331586.944 9 -14260651.15749  21774600.368    21774607.7124
  24798089.348    -4089358.495 9  -2956450.80949  24798089.180    24798100.2384
  22543615.918     7690341.438 9   5980845.76649  22543615.570    22543623.9064
  21373427.064     1573943.059 9   1226056.02249  21373426.375    21373433.4284
  24355792.056     7455347.376 9   5806596.25449  24355791.636    24355801.9564
  22045875.224   -18850940.305 9 -14455147.69949  22045875.278    22045881.9934
 99  4 14 18  5 30.0010000  0  7 24 04 05 02 07 26 09
  24283855.090    -4012451.551 9  -3106772.08149  24283854.248    24283868.2814
  21758422.679   -18416600.935 9 -14326895.77149  21758422.637    21758430.0314
  24780182.393    -4183460.087 9  -3029776.66649  24780181.287    24780191.9864
  22551035.636     7729332.156 9   6011228.04349  22551035.493    22551043.1374
  21380991.937     1613696.313 9   1257032.52849  21380991.488    21380998.4634
  24367726.875     7518065.296 9   5855467.20249  24367727.753    24367737.5344
  22033363.004   -18916692.920 9 -14506383.50049  22033362.660    22033369.4984
 99  4 14 18  6  0.0010000  0  7 24 04 05 02 07 26 09
  24261094.465    -4132058.224 9  -3199971.93749  24261092.805    24261109.1964
  21742324.527   -18501196.924 9 -14392814.67349  21742324.892    21742332.1324
  24762266.894    -4277607.296 9  -3103138.05349  24762265.360    24762277.7604
  22558491.061     7768510.331 9   6041756.38049  22558490.912    22558498.6494
  21388594.751     1653649.333 9   1288164.69049  21388594.014    21388600.9934
  24379684.901     7580903.885 9   5904432.13049  24379685.215    24379695.3124
  22020930.679   -18982025.143 9 -14557291.72349  22020930.177    22020937.1854
 99  4 14 18  6 30.0010000  0  7 24 04 05 02 07 26 09
  24238336.660    -4251647.514 9  -3293158.00649  24238336.129    24238350.6724
  21726302.754   -18585391.536 9 -14458420.81249  21726302.244    21726310.4034
  24744339.385    -4371816.522 9  -3176547.79449  24744338.401    24744349.8274
  22565985.420     7807892.650 9   6072443.79549  22565985.363    22565993.4824
  21396233.228     1693790.174 9   1319443.20849  21396232.696    21396239.5564
  24391659.602     7643831.150 9   5953466.15249  24391660.365    24391670.8264
  22008578.046   -19046938.474 9 -14607873.53149  22008577.439    22008584.7054
 99  4 14 18  7  0.0010000  0  7 24 04 05 02 07 26 09
  24215585.409    -4371203.969 9  -3386318.63249  24215584.130    24215598.2264
  21710362.139   -18669159.435 9 -14523694.45649  21710362.549    21710369.6214
  24726401.036    -4466082.575 9  -3250001.79249  24726399.210    24726410.6814
  22573523.529     7847505.229 9   6103310.63149  22573523.345    22573532.2024
  21403910.934     1734136.826 9   1350882.10049  21403910.411    21403917.1334
  24403651.996     7706850.456 9   6002571.86649  24403652.723    24403664.0504
  21996309.842   -19111407.648 9 -14658109.24249  21996309.332    21996316.5414
 99  4 14 18  7 30.0010000  0  7 24 04 05 02 07 26 09
  24192843.906    -4490711.073 9  -3479440.71449  24192844.302    24192858.4594
  21694500.145   -18752514.523 9 -14588646.41949  21694499.990    21694507.7284
  24708454.592    -4560392.674 9  -3323490.11149  24708453.633    24708464.7494
  22581106.199     7887352.324 9   6134360.19649  22581105.876    22581113.9284
  21411630.084     1774700.990 9   1382490.48249  21411629.677    21411636.7804
  24415664.275     7769973.227 9   6051758.28749  24415665.047    24415676.3594
  21984127.776   -19175424.782 9 -14707992.71749  21984127.625    21984134.4594
 99  4 14 18  8  0.0010000  0  7 24 04 05 02 07 26 09
  24170115.607    -4610148.923 9  -3572508.92849  24170114.908    24170128.4714
  21678719.917   -18835440.200 9 -14653263.78849  21678719.934    21678727.5834
  24690503.847    -4654724.297 9  -3396995.20049  24690503.230    24690514.5744
  22588737.696     7927455.754 9   6165609.51249  22588737.722    22588746.3044
  21419393.957     1815499.996 9   1414281.85849  21419393.612    21419400.6834
  24427700.553     7833223.048 9   6101043.62749  24427700.994    24427712.4454
  21972034.330   -19238976.514 9 -14757513.54449  21972034.117    21972041.3124
 99  4 14 18  8 30.0010000  0  7 24 04 05 02 07 26 09
  24147395.289    -4729545.064 9  -3665544.60749  24147393.637    24147408.6254
  21663019.553   -18917945.776 9 -14717553.80049  21663019.474    21663026.9154
  24672545.863    -4749093.405 9  -3470529.51649  24672544.973    24672555.4664
  22596411.394     7967781.057 9   6197031.70949  22596410.880    22596419.4154
  21427196.970     1856504.571 9   1446233.41649  21427196.550    21427203.5734
  24439754.500     7896566.828 9   6150402.20249  24439755.260    24439766.5224
  21960026.845   -19302076.245 9 -14806682.15649  21960026.770    21960033.6594
 99  4 14 18  9  0.0010000  0  7 24 04 05 02 07 26 09
  24124695.840    -4848830.621 9  -3758494.09549  24124695.631    24124708.7654
  21647411.935   -18999964.163 9 -14781464.18949  21647412.248    21647419.5204
  24654595.450    -4843423.991 9  -3544033.80949  24654594.989    24654606.1284
  22604137.255     8008380.454 9   6228667.49849  22604137.012    22604145.6844
  21435050.512     1897774.819 9   1478391.99349  21435050.333    21435057.1794
  24451843.122     7960091.283 9   6199901.55849  24451842.771    24451854.6024
  21948115.944   -19364668.547 9 -14855455.37449  21948115.836    21948122.9314
 99  4 14 18  9 30.0010000  0  8 24 04 05 08 02 07 26 09
  24102005.924    -4968066.069 9  -3851404.56649  24102004.879    24102018.7664
  21631885.622   -19081555.662 9 -14845041.93149  21631885.877    21631893.2744
  24636641.636    -4937771.493 9  -3617551.25849  24636640.988    24636651.8414
  24605735.935    -1634399.672 9  -1246018.32049  24605736.103    24605744.8634
  22611903.715     8049193.134 9   6260469.47149  22611903.135    22611911.5864
  21442939.713     1939232.754 9   1510696.81849  21442939.102    21442946.0794
  24463956.919     8023749.069 9   6249504.82149  24463957.625    24463968.8224
  21936289.079   -19426819.611 9 -14903884.77049  21936289.083    21936295.8064
 99  4 14 18 10  0.0010000  0  8 24 04 05 08 02 07 26 09
  24079341.433    -5087167.936 9  -3944210.93349  24079340.599    24079353.6474
  21616458.347   -19162626.702 9 -14908214.12549  21616458.557    21616465.4924
  24618697.778    -5032066.516 9  -3691027.85349  24618696.431    24618707.4344
  24583345.975    -1752060.341 9  -1337701.92049  24583346.403    24583357.1634
  22619727.327     8090305.927 9   6292505.29749  22619727.179    22619735.5324
  21450876.449     1980940.071 9   1543195.96549  21450876.018    21450882.8754
  24476108.364     8087605.027 9   6299262.50149  24476107.913    24476119.5864
  21924561.637   -19488448.046 9 -14951906.92149  21924561.592    21924568.3554
 99  4 14 18 10 30.0010000  0  8 24 04 05 08 02 07 26 09
  24056687.406    -5206215.077 9  -4036974.68949  24056687.562    24056700.0394
  21601111.371   -19243275.250 9 -14971057.10949  21601111.312    21601118.7694
  24600742.990    -5126420.056 9  -3764550.04249  24600743.270    24600752.7364
  24560981.461    -1869587.364 9  -1429281.39049  24560982.186    24560991.9114
  22627590.911     8131628.730 9   6324704.76649  22627590.525    22627599.8434
  21458842.907     2022803.826 9   1575817.00949  21458842.582    21458849.3744
  24488277.700     8151554.569 9   6349093.11249  24488278.827    24488289.4904
  21912917.063   -19549640.588 9 -14999589.41649  21912916.753    21912923.4124
 99  4 14 18 11  0.0010000  0  8 24 04 05 08 02 07 26 09
  24034051.892    -5325163.979 9  -4129661.81149  24034051.163    24034063.4034
  21585850.415   -19323472.097 9 -15033548.10849  21585850.527    21585857.6414
  24582781.892    -5220806.391 9  -3838097.78649  24582781.295    24582792.1344
  24538649.716    -1986942.611 9  -1520726.99449  24538648.637    24538659.2974
  22635502.103     8173201.980 9   6357099.39349  22635501.628    22635510.3514
  21466845.320     2064855.995 9   1608584.87449  21466845.362    21466851.9954
  24500471.215     8215629.858 9   6399021.67649  24500472.286    24500481.6754
  21901361.644   -19610364.464 9 -15046906.71749  21901361.553    21901368.1224
 99  4 14 18 11 30.0010000  0  8 24 04 05 08 02 07 26 09
  24011436.954    -5444005.808 9  -4222265.57149  24011435.989    24011449.5514
  21570676.412   -19403211.741 9 -15095682.84949  21570676.322    21570683.8024
  24564814.181    -5315226.964 9  -3911672.22149  24564812.634    24564823.5364
  24516353.799    -2104109.376 9  -1612025.77049  24516353.881    24516363.8734
  22643462.209     8215032.473 9   6389694.46349  22643461.508    22643470.9284
  21474884.178     2107099.746 9   1641502.02149  21474883.907    21474890.6764
  24512686.800     8279821.394 9   6449040.86149  24512687.959    24512699.0074
  21889897.784   -19670607.449 9 -15093849.30449  21889897.939    21889904.1214
 99  4 14 18 12  0.0010000  0  8 24 04 05 08 02 07 26 09
  23988842.354    -5562740.457 9  -4314785.88149  23988841.501    23988854.1524
  21555588.094   -19482501.335 9 -15157466.90849  21555588.247    21555595.5014
  24546841.547    -5409672.985 9  -3985266.45649  24546840.856    24546850.8784
  24494090.909    -2221100.919 9  -1703187.97749  24494089.585    24494100.5524
  22651467.664     8257101.383 9   6422475.31849  22651467.465    22651475.7284
  21482960.668     2149541.627 9   1674573.55949  21482959.956    21482967.2254
  24524923.457     8344124.593 9   6499147.02249  24524923.659    24524935.0054
  21878523.613   -19730379.179 9 -15140424.66849  21878523.813    21878529.9464
 99  4 14 18 12 30.0010000  0  8 24 04 05 08 02 07 26 09
  23966265.094    -5681383.021 9  -4407234.31249  23966263.981    23966277.0814
  21540584.564   -19561345.488 9 -15218903.87349  21540584.773    21540591.9804
  24528867.784    -5504125.522 9  -4058865.77449  24528867.788    24528877.3544
  24471860.963    -2337919.456 9  -1794215.38149  24471859.404    24471870.4784
  22659516.175     8299396.543 9   6455432.45949  22659516.143    22659524.8574
  21491075.853     2192187.126 9   1707803.75249  21491075.428    21491082.5354
  24537182.524     8408545.304 9   6549344.77449  24537183.521    24537193.5264
  21867237.188   -19789689.738 9 -15186640.69449  21867237.197    21867243.4534
 99  4 14 18 13  0.0010000  0  8 24 04 05 08 02 07 26 09
  23943701.463    -5799954.473 9  -4499627.42649  23943700.491    23943713.7004
  21525665.663   -19639744.659 9 -15279994.10149  21525665.722    21525672.9274
  24510895.713    -5598570.332 9  -4132459.06349  24510894.301    24510905.4084
  24449663.977    -2454564.018 9  -1885107.21949  24449662.381    24449673.5004
  22667604.712     8341901.276 9   6488552.89449  22667604.214    22667613.3014
  21499226.031     2235016.175 9   1741176.96949  21499225.526    21499232.5834
  24549462.939     8473079.016 9   6599630.56049  24549463.410    24549474.8634
  21856036.685   -19848548.769 9 -15232504.87349  21856036.681    21856043.3914
 99  4 14 18 13 30.0010000  0  8 24 04 05 08 02 07 26 09
  23921153.775    -5918441.809 9  -4591955.01349  23921152.141    23921165.8254
  21510834.449   -19717683.348 9 -15340725.51249  21510834.539    21510842.2414
  24492927.354    -5692994.224 9  -4206036.03149  24492926.360    24492937.3864
  24427500.528    -2571033.684 9  -1975862.78549  24427500.104    24427511.0584
  22675734.300     8384621.467 9   6521841.24149  22675734.226    22675742.2854
  21507413.599     2278041.969 9   1774703.49649  21507413.158    21507420.0964
  24561766.770     8537735.128 9   6650011.74849  24561767.462    24561778.0084
  21844924.238   -19906945.556 9 -15278008.85649  21844923.884    21844930.7814
 99  4 14 18 14  0.0010000  0  8 24 04 05 08 02 07 26 09
  23898623.307    -6036838.853 9  -4684212.20649  23898622.648    23898635.4494
  21496092.524   -19795152.738 9 -15401091.22349  21496092.125    21496099.7934
  24474964.031    -5787391.763 9  -4279592.46449  24474963.545    24474973.8774
  24405368.831    -2687335.218 9  -2066487.31249  24405368.855    24405379.0174
  22683905.987     8427563.430 9   6555302.38949  22683905.849    22683914.5034
  21515637.925     2321260.993 9   1808380.59949  21515637.274    21515644.3124
  24574091.459     8602502.341 9   6700479.46149  24574091.930    24574103.8124
  21833899.801   -19964879.247 9 -15323151.99249  21833899.436    21833906.3764
 99  4 14 18 14 30.0010000  0  8 24 04 05 08 02 07 26 09
  23876109.971    -6155146.405 9  -4776399.72049  23876108.714    23876122.4394
  21481444.088   -19872130.422 9 -15461073.81049  21481444.026    21481451.2674
  24457002.830    -5881779.387 9  -4353141.16249  24457001.660    24457012.3304
  24383273.114    -2803448.947 9  -2156965.51549  24383271.602    24383281.9324
  22692124.391     8470751.246 9   6588955.09649  22692123.550    22692133.2084
  21523897.985     2364667.721 9   1842203.95349  21523897.336    21523904.3244
  24586435.744     8667371.317 9   6751026.50849  24586436.934    24586447.3564
  21822966.483   -20022333.905 9 -15367921.86449  21822966.155    21822973.0354
 99  4 14 18 15  0.0010000  0  8 24 04 05 08 02 07 26 09
  23853616.640    -6273348.782 9  -4868505.28449  23853614.716    23853629.8064
  21466890.632   -19948609.216 9 -15520667.64449  21466890.721    21466897.5054
  24439039.885    -5976174.122 9  -4426695.39449  24439038.606    24439049.7004
  24361214.629    -2919366.752 9  -2247291.04449  24361213.653    24361224.6494
  22700390.735     8514190.748 9   6622803.92849  22700390.057    22700399.0794
  21532192.886     2408257.567 9   1876170.00249  21532192.413    21532199.2884
  24598797.808     8732334.193 9   6801646.66949  24598799.715    24598809.1924
  21812126.670   -20079297.610 9 -15412309.17649  21812126.409    21812133.3624
 99  4 14 18 15 30.0010000  0  8 24 04 05 08 02 07 26 09
  23831142.971    -6391448.041 9  -4960530.47649  23831140.685    23831154.0624
  21452430.888   -20024595.510 9 -15579877.70849  21452430.861    21452438.0654
  24421071.606    -6070595.567 9  -4500270.42949  24421070.485    24421082.2174
  24339190.314    -3035105.031 9  -2337476.70349  24339189.670    24339199.4494
  22708703.770     8557875.773 9   6656844.09049  22708703.242    22708712.2074
  21540523.496     2452034.833 9   1910282.09849  21540523.196    21540530.0514
  24611172.984     8797365.011 9   6852319.87249  24611172.540    24611185.9174
  21801378.790   -20135778.251 9 -15456320.06149  21801378.490    21801385.1444
 99  4 14 18 16  0.0010000  0  8 24 04 05 08 02 07 26 09
  23808685.808    -6509459.714 9  -5052487.37849  23808685.840    23808698.4774
  21438064.439   -20100091.582 9 -15638705.78149  21438064.657    21438071.2904
  24403097.032    -6165052.146 9  -4573872.84849  24403096.008    24403107.1734
  24317202.534    -3150651.732 9  -2427513.08649  24317201.782    24317212.2364
  22717063.834     8601807.781 9   6691076.68849  22717064.064    22717072.3944
  21548886.984     2495984.779 9   1944528.74449  21548886.596    21548893.5634
  24623558.040     8862448.626 9   6903034.10549  24623558.495    24623570.5434
  21790720.172   -20191789.269 9 -15499965.01549  21790720.028    21790726.6924
 99  4 14 18 16 30.0010000  0  8 24 04 05 08 02 07 26 09
  23786246.123    -6627381.288 9  -5144374.15449  23786245.355    23786259.2554
  21423790.330   -20175102.351 9 -15697155.69749  21423790.219    21423797.4504
  24385115.422    -6259544.789 9  -4647503.37849  24385115.116    24385124.8224
  24295252.973    -3265998.174 9  -2517393.44249  24295253.496    24295262.9324
  22725471.399     8645988.928 9   6725503.42249  22725470.964    22725480.4284
  21557285.915     2540121.356 9   1978920.81649  21557285.402    21557292.4134
  24635954.500     8927592.004 9   6953794.94449  24635954.494    24635968.0984
  21780151.122   -20247330.146 9 -15543243.62549  21780151.055    21780157.6554
 99  4 14 18 17  0.0010000  0  8 24 04 05 08 02 07 26 09
  23763829.440    -6745181.558 9  -5236166.40049  23763828.104    23763840.8804
  21409607.617   -20249632.963 9 -15755231.46749  21409607.817    21409614.9284
  24367131.189    -6354051.779 9  -4721145.08349  24367130.836    24367141.1724
  24273340.767    -3381148.541 9  -2607120.99249  24273339.657    24273350.9904
  22733928.295     8690429.805 9   6760132.55249  22733927.779    22733936.8924
  21565725.119     2584469.530 9   2013477.76849  21565724.829    21565731.7894
  24648364.159     8992804.265 9   7004609.48049  24648364.882    24648377.3204
  21769675.568   -20302379.606 9 -15586139.31449  21769675.587    21769681.7624
 99  4 14 18 17 30.0010000  0  8 24 04 05 08 02 07 26 09
  23741437.519    -6862850.537 9  -5327856.26449  23741436.216    23741448.6264
  21395516.788   -20323680.652 9 -15812930.93349  21395516.582    21395523.9174
  24349146.251    -6448563.465 9  -4794790.46349  24349146.856    24349155.4494
  24251464.807    -3496108.095 9  -2696699.86349  24251464.670    24251473.1654
  22742435.611     8735135.227 9   6794967.80649  22742435.739    22742444.0244
  21574204.075     2629026.425 9   2048197.37249  21574203.200    21574210.5924
  24660788.404     9058092.643 9   7055483.30649  24660789.001    24660800.0834
  21759292.574   -20356942.674 9 -15628655.99249  21759292.395    21759299.1854
 99  4 14 18 18  0.0010000  0  8 24 04 05 08 02 07 26 09
  23719069.197    -6980396.158 9  -5419450.08249  23719068.670    23719080.7164
  21381515.706   -20397256.565 9 -15870262.77549  21381515.435    21381522.6884
  24331159.844    -6543083.207 9  -4868442.11149  24331160.298    24331169.5254
  24229623.004    -3610886.304 9  -2786137.41149  24229621.822    24229632.9994
  22750990.510     8780091.402 9   6829998.45649  22750990.227    22750999.1474
  21582717.194     2673763.161 9   2083057.10149  21582716.346    21582723.8994
  24673229.066     9123467.666 9   7106424.62649  24673229.549    24673242.5464
  21749002.845   -20411015.837 9 -15670790.92849  21749002.829    21749009.3984
 99  4 14 18 18 30.0010000  0  8 24 04 05 08 02 07 26 09
  23696726.968    -7097805.562 9  -5510937.77449  23696726.608    23696739.2974
  21367603.480   -20470365.703 9 -15927230.90049  21367603.296    21367610.4814
  24313173.163    -6637604.598 9  -4942095.07149  24313172.361    24313182.8834
  24207811.943    -3725503.666 9  -2875449.61349  24207811.891    24207822.3814
  22759591.361     8825288.855 9   6865217.11849  22759591.033    22759599.5844
  21591265.335     2718684.004 9   2118060.29649  21591264.868    21591271.6934
  24685687.664     9188936.211 9   7157438.85549  24685688.983    24685701.3084
  21738811.145   -20464573.867 9 -15712524.46549  21738810.724    21738817.0554
 99  4 14 18 19  0.0010000  0  8 24 04 05 08 02 07 26 09
  23674412.592    -7215067.461 9  -5602310.54049  23674411.976    23674425.2744
  21353782.889   -20542993.058 9 -15983823.61449  21353782.834    21353790.1504
  24295188.389    -6732115.109 9  -5015739.54149  24295187.752    24295196.1724
  24186034.705    -3839943.046 9  -2964623.12449  24186033.437    24186044.1004
  22768237.725     8870725.137 9   6900621.87849  22768237.707    22768246.8144
  21599845.989     2763775.290 9   2153196.29349  21599845.468    21599852.5124
  24698165.624     9254507.390 9   7208533.00949  24698165.896    24698178.2404
  21728718.989   -20517608.182 9 -15753849.91149  21728718.631    21728725.2984
 99  4 14 18 19 30.0010000  0  8 24 04 05 08 02 07 26 09
  23652122.974    -7332199.671 9  -5693582.26349  23652121.567    23652136.0784
  21340055.998   -20615127.861 9 -16040032.52349  21340055.997    21340063.2824
  24277207.562    -6826604.394 9  -5089367.48849  24277206.320    24277216.4394
  24164293.126    -3954195.612 9  -3053651.05349  24164292.279    24164302.4844
  22776926.502     8916384.001 9   6936200.08849  22776926.442    22776935.2084
  21608456.911     2809025.417 9   2188456.07049  21608456.167    21608463.2554
  24710662.818     9320180.111 9   7259706.35549  24710663.164    24710675.3504
  21718724.059   -20570131.705 9 -15794777.34549  21718723.581    21718730.3524
 99  4 14 18 20  0.0010000  0  8 24 04 05 08 02 07 26 09
  23629855.924    -7449213.218 9  -5784761.44449  23629854.302    23629867.1184
  21326423.590   -20686766.543 9 -16095854.84049  21326423.384    21326430.6894
  24259230.645    -6921072.155 9  -5162978.64549  24259228.815    24259238.9804
  24142588.524    -4068253.795 9  -3142527.53849  24142587.754    24142598.1124
  22785658.443     8962270.167 9   6971955.39649  22785658.077    22785667.6674
  21617098.812     2854439.062 9   2223843.26049  21617098.044    21617105.3534
  24723175.944     9385936.080 9   7310944.50949  24723177.071    24723189.3624
  21708828.358   -20622133.986 9 -15835298.61249  21708828.211    21708835.0154
 99  4 14 18 20 30.0010000  0  8 24 04 05 08 02 07 26 09
  23607613.165    -7566098.067 9  -5875840.33249  23607612.850    23607622.2824
  21312889.260   -20757889.700 9 -16151275.45349  21312889.224    21312896.7094
  24241258.082    -7015516.965 9  -5236571.92549  24241257.307    24241268.0324
  24120927.143    -4182085.358 9  -3231227.41949  24120926.310    24120937.2874
  22794437.128     9008401.440 9   7007901.70249  22794437.259    22794446.0054
  21625776.419     2900040.343 9   2259376.65849  21625775.627    21625783.0244
  24735702.345     9451760.987 9   7362236.40649  24735703.509    24735715.4704
  21699031.839   -20673614.975 9 -15875413.67849  21699031.503    21699038.5934
 99  4 14 18 21  0.0010000  0  8 24 04 05 08 02 07 26 09
  23585394.662    -7682856.372 9  -5966820.65849  23585394.751    23585406.5984
  21299455.647   -20828483.795 9 -16206283.81149  21299455.644    21299462.7614
  24223289.070    -7109943.673 9  -5310151.09449  24223289.096    24223298.0894
  24099313.041    -4295668.344 9  -3319733.59949  24099312.143    24099323.5624
  22803263.379     9054783.017 9   7044043.04949  22803263.089    22803272.4434
  21634489.945     2945830.400 9   2295057.15449  21634489.185    21634496.7664
  24748238.754     9517638.557 9   7413569.35649  24748237.831    24748251.5764
  21689333.294   -20724581.054 9 -15915127.52149  21689333.307    21689340.1944
 99  4 14 18 21 30.0010000  0  8 24 04 05 08 02 07 26 09
  23563193.677    -7799523.634 9  -6057730.02649  23563192.241    23563205.5214
  21286115.269   -20898587.930 9 -16260910.38749  21286115.299    21286122.5224
  24205315.262    -7204396.024 9  -5383750.23949  24205315.129    24205325.3244
  24077736.682    -4409052.812 9  -3408085.08849  24077736.530    24077746.1524
  22812131.479     9101384.938 9   7080356.09049  22812130.561    22812140.2284
  21643233.805     2991779.235 9   2330861.37449  21643233.471    21643240.7954
  24760774.562     9583514.340 9   7464900.87549  24760774.433    24760787.9784
  21679725.125   -20775072.378 9 -15954471.41649  21679725.019    21679731.7024
 99  4 14 18 22  0.0010000  0  8 24 04 05 08 02 07 26 09
  23541021.553    -7916038.871 9  -6148520.92349  23541018.962    23541033.7344
  21272878.561   -20968147.348 9 -16315112.50749  21272879.012    21272885.9134
  24187344.866    -7298831.168 9  -5457335.98249  24187344.070    24187354.4904
  24056210.046    -4522175.417 9  -3496232.50749  24056209.213    24056220.1174
  22821053.391     9148269.636 9   7116889.50049  22821052.564    22821062.2974
  21652017.895     3037939.396 9   2366830.25649  21652017.390    21652024.8254
  24773319.554     9649438.073 9   7516269.74249  24773319.848    24773332.1234
  21670216.997   -20825037.624 9 -15993405.38049  21670216.891    21670223.6394
 99  4 14 18 22 30.0010000  0  8 24 04 05 08 02 07 26 09
  23518880.446    -8032391.056 9  -6239184.76449  23518878.869    23518893.1104
  21259743.158   -21037174.277 9 -16368899.69349  21259743.426    21259750.4544
  24169376.028    -7393258.170 9  -5530915.39149  24169374.420    24169385.7174
  24034731.419    -4635045.880 9  -3584183.46749  24034731.392    24034740.9584
  22830024.665     9195413.333 9   7153624.68849  22830024.333    22830034.0514
  21660841.813     3084309.073 9   2402962.39749  21660841.571    21660848.5244
  24785874.976     9715416.634 9   7567681.34049  24785875.425    24785889.2294
  21660805.688   -20874494.658 9 -16031943.33449  21660805.536    21660812.3134
 99  4 14 18 23  0.0010000  0  8 24 04 05 08 02 07 26 09
  23496774.373    -8148558.047 9  -6329704.28649  23496773.852    23496785.9314
  21246708.571   -21105671.573 9 -16422274.18549  21246708.480    21246715.4124
  24151411.296    -7487663.059 9  -5604477.54849  24151411.126    24151420.9154
  24013298.439    -4747677.185 9  -3671948.06349  24013297.700    24013308.1454
  22839044.571     9242812.553 9   7190558.98049  22839045.178    22839053.6384
  21669703.315     3130876.109 9   2439248.32549  21669702.807    21669710.1224
  24798443.322     9781463.027 9   7619145.81049  24798442.785    24798456.6504
  21651491.873   -20923439.374 9 -16070082.08649  21651491.704    21651498.4494
 99  4 14 18 23 30.0010000  0  8 24 04 05 08 02 07 26 09
  23474694.691    -8264586.366 9  -6420115.75049  23474694.617    23474705.8434
  21233765.632   -21173686.878 9 -16475273.10449  21233765.540    21233772.7814
  24133441.439    -7582095.389 9  -5678061.10149  24133440.637    24133450.9974
  23991902.140    -4860115.215 9  -3759562.06349  23991901.722    23991911.7624
  22848103.211     9290415.737 9   7227652.22849  22848103.227    22848113.2204
  21678592.097     3177586.692 9   2475646.10049  21678591.833    21678598.9254
  24811017.661     9847540.210 9   7670634.25049  24811019.469    24811031.2824
  21642265.878   -20971922.552 9 -16107861.20049  21642265.921    21642272.3464
 99  4 14 18 24  0.0010000  0  8 24 04 05 08 02 07 26 09
  23452646.974    -8380447.376 9  -6510396.87249  23452647.100    23452658.3684
  21220923.030   -21241175.005 9 -16527861.23149  21220923.031    21220930.2834
  24115473.889    -7676515.998 9  -5751635.51149  24115472.606    24115483.2614
  23970552.362    -4972308.014 9  -3846984.98449  23970551.822    23970562.1994
  22857207.304     9338257.807 9   7264931.62049  22857207.265    22857216.5814
  21687515.143     3224476.992 9   2512183.92549  21687514.676    21687521.9224
  24823607.259     9913697.400 9   7722185.06449  24823607.094    24823620.7564
  21633137.786   -21019891.048 9 -16145239.25949  21633137.870    21633144.5064
 99  4 14 18 24 30.0010000  0  8 24 04 05 08 02 07 26 09
  23430629.775    -8496147.804 9  -6600552.88549  23430627.884    23430640.6954
  21208177.253   -21308154.562 9 -16580053.07049  21208177.504    21208184.3364
  24097505.086    -7770941.757 9  -5825213.94749  24097504.275    24097512.9624
  23949245.990    -5084273.497 9  -3934230.77249  23949245.572    23949256.4204
  22866354.622     9386326.512 9   7302387.60749  22866354.832    22866364.1474
  21696466.356     3271515.035 9   2548836.88049  21696465.759    21696472.8974
  24836207.270     9979910.121 9   7773779.16049  24836208.211    24836221.0054
  21624107.638   -21067345.002 9 -16182216.37849  21624107.552    21624114.0954
 99  4 14 18 25  0.0010000  0  8 24 04 05 08 02 07 26 09
  23408631.110    -8611750.439 9  -6690632.63949  23408627.374    23408640.8274
  21195519.391   -21374672.136 9 -16631884.91749  21195519.247    21195526.4814
  24079527.183    -7865415.701 9  -5898829.91049  24079527.100    24079536.7824
  23927976.523    -5196045.431 9  -4021325.73149  23927976.557    23927986.5684
  22875539.677     9434593.305 9   7339997.93549  22875538.944    22875548.3034
  21705433.744     3318638.896 9   2585556.69149  21705432.881    21705440.3824
  24848805.899    10046115.493 9   7825367.48049  24848806.779    24848820.2224
  21615168.566   -21114320.187 9 -16218820.42649  21615168.220    21615175.4544
 99  4 14 18 25 30.0010000  0  8 24 04 05 08 02 07 26 09
  23386662.837    -8727193.377 9  -6780587.97449  23386661.161    23386672.8964
  21182963.944   -21440651.280 9 -16683297.21549  21182964.059    21182971.1784
  24061553.865    -7959866.255 9  -5972427.66649  24061553.943    24061563.6804
  23906762.549    -5307525.611 9  -4108193.38549  23906761.623    23906772.6674
  22884779.267     9483146.770 9   7377831.65749  22884778.667    22884789.1944
  21714433.931     3365934.988 9   2622410.71649  21714433.221    21714440.9494
  24861415.984    10112381.132 9   7877002.74949  24861416.350    24861428.3754
  21606335.271   -21160739.789 9 -16254991.56449  21606335.016    21606341.8844
 99  4 14 18 26  0.0010000  0  8 24 04 05 08 02 07 26 09
  23364716.821    -8842518.596 9  -6870451.60949  23364716.443    23364727.4334
  21170498.894   -21506155.619 9 -16734339.53349  21170498.749    21170505.7654
  24043574.742    -8054346.650 9  -6046048.65449  24043574.790    24043584.2654
  23885593.151    -5418771.891 9  -4194878.75549  23885592.319    23885603.2334
  22894064.542     9531941.607 9   7415853.44649  22894063.570    22894073.8114
  21723456.099     3413346.879 9   2659354.96449  21723455.745    21723462.9304
  24874025.523    10178643.412 9   7928635.47049  24874025.081    24874038.9314
  21597598.844   -21206650.336 9 -16290766.03449  21597598.644    21597605.3344
 99  4 14 18 26 30.0010000  0  8 24 04 05 08 02 07 26 09
  23342796.536    -8957709.230 9  -6960210.38749  23342796.518    23342806.3124
  21158123.984   -21571185.997 9 -16785012.53249  21158123.766    21158131.0164
  24025591.954    -8148847.047 9  -6119685.24749  24025591.319    24025600.4894
  23864467.281    -5529789.516 9  -4281385.96649  23864466.843    23864476.4674
  22903396.529     9580980.536 9   7454065.43449  22903396.349    22903406.0524
  21732500.506     3460875.225 9   2696389.97049  21732500.213    21732507.6224
  24886633.177    10244896.523 9   7980260.96249  24886634.172    24886646.6954
  21588959.075   -21252052.569 9 -16326144.40949  21588958.745    21588965.6854
 99  4 14 18 27  0.0010000  0  8 24 04 05 08 02 07 26 09
  23320902.131    -9072764.639 9  -7049863.79649  23320900.547    23320911.8594
  21145841.667   -21635729.740 9 -16835306.33649  21145841.628    21145848.8504
  24007608.867    -8243349.452 9  -6193323.40049  24007607.939    24007618.8884
  23843386.780    -5640568.258 9  -4367707.00949  23843386.307    23843397.1224
  22912774.312     9630260.646 9   7492465.35549  22912774.666    22912783.5704
  21741571.084     3508540.995 9   2733532.05049  21741570.734    21741578.0724
  24899243.344    10311161.431 9   8031895.66249  24899244.732    24899257.9074
  21580417.082   -21296940.847 9 -16361122.30249  21580416.818    21580423.5454
 99  4 14 18 27 30.0010000  0  8 24 04 05 08 02 07 26 09
  23299033.413    -9187685.260 9  -7139412.13549  23299030.867    23299044.6614
  21133654.016   -21699776.095 9 -16885212.56349  21133653.776    21133660.9004
  23989624.225    -8337859.004 9  -6266967.12149  23989623.509    23989633.2184
  23822347.921    -5751127.428 9  -4453856.95849  23822347.322    23822357.9164
  22922193.745     9679759.582 9   7531035.79849  22922193.516    22922203.3744
  21750665.720     3556333.303 9   2770772.72849  21750665.088    21750672.3114
  24911852.714    10377422.862 9   8083527.71349  24911853.523    24911864.2324
  21571972.603   -21341316.915 9 -16395701.07149  21571972.444    21571979.1184
 99  4 14 18 28  0.0010000  0  8 24 04 05 08 02 07 26 09
  23277196.772    -9302437.224 9  -7228829.09449  23277196.382    23277208.4664
  21121567.884   -21763289.066 9 -16934703.16749  21121567.883    21121574.9564
  23971644.894    -8432340.461 9  -6340588.93149  23971644.206    23971654.7254
  23801352.043    -5861461.643 9  -4539831.61249  23801350.998    23801361.4024
  22931657.762     9729492.833 9   7569788.82349  22931657.034    22931667.0224
  21759787.276     3604267.276 9   2808123.80349  21759786.813    21759794.1024
  24924467.160    10443710.771 9   8135180.36849  24924467.320    24924480.0824
  21563630.728   -21385153.723 9 -16429859.64149  21563630.839    21563637.2304
 99  4 14 18 28 30.0010000  0  8 24 04 05 08 02 07 26 09
  23255387.001    -9417047.488 9  -7318135.66349  23255387.290    23255398.4434
  21109579.055   -21826290.897 9 -16983795.47249  21109579.482    21109586.0524
  23953666.513    -8526816.322 9  -6414206.40249  23953665.562    23953676.6314
  23780394.594    -5971594.094 9  -4625649.06449  23780394.066    23780404.5174
  22941160.016     9779427.019 9   7608698.40449  22941160.005    22941169.3644
  21768929.997     3652311.926 9   2845561.11849  21768929.883    21768937.4184
  24937080.095    10509991.398 9   8186827.34249  24937080.608    24937094.3604
  21555383.699   -21428492.292 9 -16463629.97049  21555383.698    21555390.1834
 99  4 14 18 29  0.0010000  0  8 24 04 05 08 02 07 26 09
  23233611.224    -9531478.734 9  -7407302.67649  23233608.388    23233622.2054
  21097692.957   -21888752.978 9 -17032467.19649  21097692.831    21097700.0304
  23935689.842    -8621284.746 9  -6487818.08249  23935689.167    23935699.8394
  23759482.159    -6081488.980 9  -4711281.40249  23759481.713    23759491.3284
  22950707.993     9829601.439 9   7647795.17949  22950707.496    22950718.2654
  21778099.193     3700495.742 9   2883106.87649  21778098.736    21778106.3934
  24949695.387    10576284.392 9   8238483.94849  24949695.815    24949709.7394
  21547234.936   -21471314.646 9 -16496998.05749  21547234.800    21547241.5294
 99  4 14 18 29 30.0010000  0  8 24 04 05 08 02 07 26 09
  23211870.118    -9645727.939 9  -7496327.86349  23211869.447    23211881.1274
  21085907.483   -21950686.004 9 -17080726.67249  21085907.570    21085914.5124
  23917709.276    -8715772.846 9  -6561445.09349  23917708.275    23917717.7274
  23738612.715    -6191158.144 9  -4796737.84549  23738611.391    23738621.6444
  22960301.156     9880013.075 9   7687076.79749  22960300.944    22960311.6864
  21787292.842     3748808.371 9   2920752.99649  21787292.112    21787299.3334
  24962308.326    10642564.845 9   8290130.77649  24962309.253    24962321.3354
  21539179.657   -21513645.742 9 -16529983.34349  21539179.466    21539186.4604
 99  4 14 18 30  0.0010000  0  8 24 04 05 08 02 07 26 09
  23190159.820    -9759815.330 9  -7585227.01549  23190159.617    23190172.3854
  21074214.613   -22012132.084 9 -17128606.70849  21074214.675    21074221.6294
  23899718.557    -8810314.453 9  -6635113.80749  23899718.059    23899728.0454
  23717782.328    -6300622.650 9  -4882034.81449  23717780.822    23717790.9764
  22969934.504     9930635.386 9   7726522.58149  22969934.056    22969944.5314
  21796507.897     3797233.590 9   2958486.85949  21796507.282    21796515.1164
  24974915.791    10708817.097 9   8341755.63149  24974916.395    24974928.9584
  21531211.030   -21555521.135 9 -16562613.53549  21531210.833    21531217.4524
 99  4 14 18 30 30.0010000  0  8 24 04 05 08 02 07 26 09
  23168488.374    -9873699.188 9  -7673967.54249  23168486.660    23168500.0144
  21062620.809   -22073057.754 9 -17176081.23649  21062620.741    21062627.6194
  23881722.357    -8904883.246 9  -6708803.68849  23881721.069    23881731.5664
  23697000.606    -6409831.777 9  -4967132.79149  23697000.408    23697009.8934
  22979612.521     9981492.980 9   7766151.69849  22979612.016    22979622.5204
  21805752.648     3845815.055 9   2996342.46749  21805752.162    21805760.0254
  24987521.778    10775061.035 9   8393374.03349  24987523.028    24987536.1704
  21523336.696   -21596901.028 9 -16594857.62949  21523336.454    21523343.1624
 99  4 14 18 31  0.0000000  0  8 24 04 05 08 02 07 26 09
  23146851.273    -9987402.446 9  -7762567.35049  23146851.088    23146862.7054
  21051126.167   -22133462.630 9 -17223149.94249  21051126.368    21051133.2014
  23863719.796    -8999486.788 9  -6782520.65749  23863718.951    23863729.1314
  23676266.047    -6518792.374 9  -5052037.10349  23676265.712    23676275.0944
  22989329.711    10032556.543 9   7805941.30449  22989330.298    22989339.7554
  21815023.332     3894532.703 9   3034304.18449  21815023.304    21815030.5064
  25000122.296    10841276.293 9   8444970.09349  25000123.275    25000136.1394
  21515555.377   -21637792.073 9 -16626720.79549  21515555.521    21515561.9464
 99  4 14 18 31 30.0000000  0  8 24 04 05 08 02 07 26 09
  23125242.801   -10100955.841 9  -7851050.37849  23125241.478    23125253.1434
  21039729.933   -22193350.382 9 -17269815.69549  21039730.058    21039737.0224
  23845715.715    -9094098.965 9  -6856244.34549  23845715.125    23845725.4204
  23655577.493    -6627511.172 9  -5136752.99049  23655575.866    23655587.1814
  22999080.941    10083798.848 9   7845870.19149  22999081.197    22999090.4444
  21824319.204     3943382.266 9   3072368.71449  21824318.609    21824326.1244
  25012715.552    10907452.732 9   8496535.87549  25012716.717    25012729.6114
  21507866.752   -21678196.260 9 -16658204.59449  21507866.624    21507873.6394
 99  4 14 18 32  0.0000000  0  8 24 04 05 08 02 07 26 09
  23103666.859   -10214337.933 9  -7939399.87749  23103666.195    23103675.3874
  21028435.828   -22252701.097 9 -17316062.98149  21028436.037    21028442.9354
  23827716.495    -9188685.811 9  -6929948.31649  23827716.305    23827724.7324
  23634940.270    -6735959.737 9  -5221258.32949  23634939.442    23634950.0654
  23008868.009    10135229.024 9   7885945.48449  23008866.543    23008877.6094
  21833641.977     3992373.243 9   3110543.42149  21833641.495    21833649.1874
  25025302.655    10973596.109 9   8548075.88049  25025304.043    25025317.3964
  21500274.869   -21718091.870 9 -16689292.09849  21500274.590    21500281.4184
 99  4 14 18 32 30.0000000  0  8 24 04 05 08 02 07 26 09
  23082125.835   -10327535.940 9  -8027606.03749  23082125.807    23082135.0254
  21017247.142   -22311497.883 9 -17361878.64049  21017247.362    21017254.0394
  23809725.381    -9283230.422 9  -7003619.34649  23809725.160    23809734.5534
  23614358.201    -6844117.595 9  -5305537.12749  23614357.041    23614368.1234
  23018695.124    10186870.729 9   7926185.58349  23018695.269    23018705.7594
  21842991.437     4041504.527 9   3148827.45049  21842990.792    21842998.3464
  25037883.915    11039710.449 9   8599593.25749  25037884.353    25037898.3434
  21492781.017   -21757472.051 9 -16719977.97749  21492780.588    21492787.6074
 99  4 14 18 33  0.0000000  0  8 24 04 05 08 02 07 26 09
  23060620.119   -10440549.094 9  -8115668.09949  23060616.807    23060631.4214
  21006164.951   -22369735.153 9 -17407258.30249  21006164.935    21006171.8214
  23791742.381    -9377731.470 9  -7077256.44049  23791741.300    23791751.0964
  23593832.193    -6951981.803 9  -5389587.10749  23593832.200    23593841.9034
  23028566.537    10238744.678 9   7966606.66649  23028566.415    23028577.0674
  21852365.557     4090765.814 9   3187212.79349  21852364.853    21852372.5724
  25050461.458    11105804.913 9   8651095.17349  25050461.187    25050475.4674
  21485385.496   -21796335.677 9 -16750261.34049  21485385.247    21485391.9944
 99  4 14 18 33 30.0000000  0  8 24 04 05 08 02 07 26 09
  23039154.894   -10553348.995 9  -8203563.97349  23039155.894    23039166.0084
  20995187.818   -22427420.322 9 -17452207.76449  20995187.884    20995194.6744
  23773767.271    -9472190.688 9  -7150860.97649  23773766.434    23773775.9784
  23573363.607    -7059546.400 9  -5473403.62349  23573363.270    23573372.7424
  23038487.335    10290877.727 9   8007229.62449  23038487.957    23038496.7064
  21861765.893     4140164.757 9   3225705.39849  21861765.475    21861773.3204
  25063037.809    11171892.839 9   8702592.00249  25063037.810    25063054.0334
  21478089.645   -21834676.008 9 -16780136.94249  21478089.468    21478096.0854
 99  4 14 18 34  0.0000000  0  8 24 04 05 08 02 07 26 09
  23017733.852   -10665916.538 9  -8291278.79649  23017732.545    23017745.5314
  20984315.581   -22484554.275 9 -17496727.70749  20984315.371    20984322.5224
  23755795.135    -9566634.500 9  -7224453.46249  23755794.656    23755803.9084
  23552951.235    -7166815.672 9  -5556990.03649  23552950.732    23552960.5044
  23048461.148    10343289.912 9   8048070.09649  23048460.823    23048471.7364
  21871190.488     4189690.550 9   3264296.84349  21871189.990    21871197.4704
  25075614.825    11237985.196 9   8754092.26849  25075615.752    25075630.3024
  21470894.778   -21872485.677 9 -16809599.04549  21470894.539    21470901.3344
 99  4 14 18 34 30.0000000  0  8 24 04 05 08 02 07 26 09
  22996353.663   -10778268.152 9  -8378825.34449  22996353.865    22996364.9734
  20973546.671   -22541145.200 9 -17540824.51149  20973546.556    20973553.4414
  23737823.855    -9661074.197 9  -7298042.76549  23737822.727    23737832.1224
  23532594.559    -7273790.759 9  -5640347.18249  23532593.984    23532603.0084
  23058486.894    10395974.636 9   8089122.95449  23058486.362    23058496.7474
  21880635.985     4239326.786 9   3302974.34549  21880635.791    21880643.0274
  25088190.251    11304067.611 9   8805584.76649  25088190.487    25088204.5794
  21463802.417   -21909756.533 9 -16838641.28549  21463802.229    21463809.0674
 99  4 14 18 35  0.0000000  0  8 24 04 05 08 02 07 26 09
  22975014.120   -10890407.352 9  -8466206.43049  22975011.311    22975022.5674
  20962880.091   -22597198.030 9 -17584502.02849  20962880.150    20962887.1354
  23719853.401    -9755508.674 9  -7371628.01949  23719852.838    23719862.9834
  23512294.307    -7380469.586 9  -5723473.50249  23512293.658    23512303.0294
  23068562.519    10448921.855 9   8130380.33249  23068562.566    23068572.6464
  21890101.461     4289068.001 9   3341733.65549  21890101.048    21890108.8184
  25100761.514    11370129.042 9   8857060.90049  25100762.434    25100776.9174
  21456815.143   -21946475.196 9 -16867253.25649  21456815.026    21456821.4614
 99  4 14 18 35 30.0000000  0  8 24 04 05 08 02 07 26 09
  22953705.786   -11002382.638 9  -8553459.79349  22953707.219    22953715.9134
  20952307.105   -22652759.223 9 -17627796.44049  20952307.220    20952314.0764
  23701875.530    -9849982.064 9  -7445243.56149  23701875.153    23701885.6714
  23492044.107    -7486885.717 9  -5806395.10949  23492042.827    23492052.8094
  23078676.779    10502072.374 9   8171796.12849  23078676.425    23078687.3114
  21899579.881     4338876.999 9   3380545.78649  21899579.736    21899586.7044
  25113318.957    11436117.621 9   8908480.28449  25113319.780    25113334.8434
  21449926.563   -21982675.072 9 -16895460.96749  21449926.215    21449933.1024
 99  4 14 18 36  0.0000000  0  7 24 04 05 08 02 07 09
  22932438.701   -11114140.988 9  -8640544.06249  22932437.994    22932450.8304
  20941841.106   -22707758.527 9 -17670653.03049  20941841.465    20941848.1874
  23683904.751    -9944419.624 9  -7518831.20249  23683904.814    23683913.8214
  23471857.826    -7592965.504 9  -5889054.60849  23471856.662    23471867.6854
  23088839.026    10555474.243 9   8213407.77949  23088839.689    23088849.3224
  21909084.306     4388822.804 9   3419464.50149  21909084.117    21909091.6214
  21443151.791   -22018276.322 9 -16923202.22649  21443151.625    21443158.4884
 99  4 14 18 36 30.0000000  0  7 24 04 05 08 02 07 09
  22911209.122   -11225702.787 9  -8727475.18549  22911208.610    22911220.7164
  20931479.502   -22762209.087 9 -17713082.02149  20931479.648    20931486.5704
  23665939.586   -10038827.689 9  -7592395.86949  23665939.571    23665949.2204
  23451733.124    -7698721.272 9  -5971461.66049  23451732.553    23451741.5774
  23099043.748    10609099.164 9   8255193.24449  23099042.975    23099054.0394
  21918614.716     4438904.967 9   3458489.47649  21918614.429    21918621.8884
  21436486.917   -22053300.481 9 -16950493.79549  21436486.729    21436493.5784
 99  4 14 18 37  0.0000000  0  7 24 04 05 08 02 07 09
  22890001.466   -11337149.955 9  -8814316.98549  22890000.632    22890011.5224
  20921205.497   -22816199.308 9 -17755152.31049  20921205.491    20921212.6124
  23647960.418   -10133308.794 9  -7666017.43849  23647959.878    23647969.9394
  23431650.391    -7804255.651 9  -6053696.17849  23431648.527    23431658.5074
  23109273.425    10662855.832 9   8297081.35949  23109273.723    23109284.7674
  21928155.342     4489041.124 9   3497556.52949  21928154.724    21928162.8214
  21429911.890   -22087852.313 9 -16977417.32049  21429911.471    21429918.4894
 99  4 14 18 37 30.0000000  0  7 24 04 05 08 02 07 09
  22868841.244   -11448347.811 9  -8900964.52149  22868840.051    22868850.4484
  20911042.999   -22869603.595 9 -17796766.03049  20911043.246    20911050.2584
  23629989.475   -10227746.700 9  -7739605.34649  23629989.719    23629999.1084
  23411629.940    -7909462.383 9  -6135675.40549  23411629.496    23411638.8234
  23119549.703    10716857.409 9   8339160.30149  23119548.719    23119560.4304
  21937730.948     4539361.099 9   3536766.81449  21937730.695    21937738.5134
  21423447.212   -22121824.330 9 -17003889.04449  21423446.986    21423453.9644
 99  4 14 18 38  0.0000000  0  7 24 04 05 08 02 07 09
  22847721.832   -11559331.208 9  -8987444.94349  22847721.112    22847732.3624
  20900985.589   -22922455.644 9 -17837949.42849  20900985.539    20900992.6474
  23612019.529   -10322178.675 9  -7813188.63749  23612018.750    23612028.1714
  23391660.757    -8014400.008 9  -6217444.92349  23391659.271    23391670.7654
  23129866.593    10771072.225 9   8381405.41249  23129866.617    23129876.6034
  21947330.981     4589809.121 9   3576076.87949  21947330.469    21947338.6794
  21417080.580   -22155281.056 9 -17029959.23649  21417080.354    21417087.4164
 99  4 14 18 38 30.0000000  0  7 24 04 05 08 02 07 09
  22826650.227   -11670062.705 9  -9073729.08149  22826651.308    22826661.5584
  20891039.830   -22974720.989 9 -17878675.66149  20891040.074    20891046.6804
  23594055.128   -10416582.192 9  -7886749.76149  23594054.256    23594064.5514
  23371749.291    -8119035.491 9  -6298979.01649  23371748.675    23371758.7984
  23140232.136    10825542.500 9   8423849.57749  23140232.181    23140242.1924
  21956957.993     4640399.216 9   3615497.64249  21956957.764    21956965.3794
  21410814.902   -22188207.312 9 -17055616.08849  21410815.021    21410821.8014
 99  4 14 18 39  0.0000000  0  7 24 04 05 08 02 07 09
  22805617.279   -11780591.796 9  -9159855.47549  22805615.741    22805629.1944
  20881197.218   -23026444.025 9 -17918979.30849  20881197.348    20881204.0824
  23576088.815   -10510995.136 9  -7960318.21149  23576088.444    23576097.4884
  23351887.639    -8223408.828 9  -6380308.82749  23351886.795    23351896.6604
  23150639.623    10880232.926 9   8466465.29349  23150639.416    23150650.0994
  21966599.913     4691067.654 9   3654979.45549  21966599.630    21966607.6384
  21404641.071   -22220651.277 9 -17080897.11849  21404641.125    21404647.9264
 99  4 14 18 39 30.0000000  0  7 24 04 05 08 02 07 09
  22784624.189   -11890910.777 9  -9245818.20849  22784624.842    22784636.3044
  20871462.096   -23077602.386 9 -17958842.94949  20871462.247    20871469.1444
  23558124.566   -10605398.043 9  -8033878.84249  23558123.470    23558133.3254
  23332080.644    -8327493.868 9  -6461414.00449  23332081.006    23332090.4774
  23161092.630    10935163.218 9   8509267.91949  23161092.939    23161104.0364
  21976257.525     4741818.434 9   3694525.43749  21976256.814    21976265.2434
  21398563.792   -22252587.924 9 -17105782.83549  21398563.703    21398570.6234
 99  4 14 18 40  0.0000000  0  7 24 04 05 08 02 07 09
  22763671.071   -12001020.193 9  -9331617.62849  22763669.320    22763680.5104
  20861836.182   -23128186.768 9 -17998259.34049  20861836.301    20861843.2384
  23540163.242   -10699784.970 9  -8107427.03149  23540162.724    23540171.4524
  23312333.015    -8431268.264 9  -6542277.12049  23312332.238    23312342.8214
  23171593.237    10990344.222 9   8552265.88649  23171593.530    23171603.4804
  21985930.885     4792651.831 9   3734135.78849  21985930.427    21985938.3344
  21392587.700   -22283992.690 9 -17130254.10449  21392587.370    21392594.2574
 99  4 14 18 40 30.0000000  0  7 24 04 05 08 02 07 09
  22742756.880   -12110923.706 9  -9417256.62549  22742756.817    22742765.8164
  20852317.166   -23178209.326 9 -18037237.94549  20852317.321    20852324.1754
  23522205.420   -10794154.271 9  -8180961.48849  23522204.766    23522214.2734
  23292646.981    -8534718.971 9  -6622888.02049  23292646.846    23292657.0854
  23182140.525    11045769.667 9   8595454.35249  23182139.269    23182151.1474
  21995622.577     4843581.236 9   3773820.94849  21995622.358    21995629.9114
  21386715.386   -22314851.942 9 -17154300.29949  21386715.275    21386722.0674
 99  4 14 18 41  0.0000000  0  7 24 04 05 08 02 07 09
  22721882.337   -12220619.203 9  -9502733.48949  22721879.690    22721893.8164
  20842905.245   -23227669.429 9 -18075778.27749  20842905.277    20842912.3134
  23504250.310   -10888509.618 9  -8254485.06149  23504249.717    23504259.0944
  23273020.853    -8637854.573 9  -6703253.38049  23273020.753    23273030.4344
  23192733.293    11101433.773 9   8638828.74849  23192733.844    23192744.5744
  22005334.811     4894618.779 9   3813590.37649  22005334.434    22005341.9874
  21380948.069   -22345159.554 9 -17177916.64649  21380947.928    21380954.8724
 99  4 14 18 41 30.0000000  0  7 24 04 05 08 02 07 09
  22701043.209   -12330128.557 9  -9588065.35249  22701044.684    22701054.8104
  20833592.095   -23276610.337 9 -18113914.03449  20833592.134    20833599.0044
  23486291.666   -10982882.265 9  -8328022.11649  23486290.829    23486300.4534
  23253447.622    -8740712.739 9  -6783402.56749  23253447.483    23253456.7654
  23203362.075    11157286.973 9   8682350.50549  23203362.027    23203372.8104
  22015062.352     4945736.934 9   3853422.61849  22015062.310    22015069.5264
  21375281.003   -22374940.052 9 -17201122.24649  21375280.771    21375287.6844
 99  4 14 18 42  0.0000000  0  7 24 04 05 08 02 07 09
  22680252.201   -12439386.004 9  -9673200.87449  22680252.608    22680263.6074
  20824385.643   -23324990.545 9 -18151612.89049  20824385.538    20824392.7074
  23468344.077   -11077196.763 9  -8401513.86449  23468342.555    23468353.6834
  23233938.106    -8843236.783 9  -6863291.39049  23233938.309    23233948.4364
  23214036.332    11213380.130 9   8726059.24649  23214035.208    23214047.6044
  22024816.928     4996997.529 9   3893365.86049  22024815.877    22024824.3754
  21369723.607   -22404144.199 9 -17223878.74649  21369723.608    21369730.4784
 99  4 14 18 42 30.0000000  0  7 24 04 05 08 02 07 09
  22659509.124   -12548391.397 9  -9758140.03949  22659508.619    22659518.3004
  20815281.610   -23372832.503 9 -18188892.32549  20815281.530    20815288.5674
  23450406.971   -11171455.495 9  -8474962.16049  23450405.552    23450415.8634
  23214490.265    -8945435.901 9  -6942927.00349  23214489.004    23214499.0664
  23224756.393    11269714.170 9   8769955.68449  23224755.846    23224767.2704
  22034596.286     5048388.184 9   3933410.43649  22034595.767    22034603.5384
  21364271.523   -22432795.483 9 -17246204.43849  21364271.463    21364278.2344
 99  4 14 18 43  0.0000000  0  7 24 04 05 08 02 07 09
  22638814.675   -12657141.089 9  -9842879.94049  22638814.125    22638823.8814
  20806278.641   -23420143.394 9 -18225757.94249  20806278.613    20806285.6564
  23432478.359   -11265670.091 9  -8548376.06149  23432477.333    23432486.8564
  23195102.472    -9047319.769 9  -7022316.99049  23195102.475    23195111.5204
  23235520.254    11326278.710 9   8814031.72049  23235519.984    23235532.3314
  22044395.174     5099881.338 9   3973534.89349  22044394.273    22044402.3104
  21358922.875   -22460903.013 9 -17268106.43149  21358922.566    21358929.1794
 99  4 14 18 43 30.0000000  0  7 24 04 05 08 02 07 09
  22618175.397   -12765600.387 9  -9927393.55549  22618175.933    22618184.3064
  20797380.797   -23466901.935 9 -18262193.16049  20797381.073    20797387.7934
  23414565.354   -11359803.783 9  -8621726.92049  23414563.955    23414573.8754
  23175781.357    -9148853.276 9  -7101433.96149  23175779.921    23175789.7934
  23246332.516    11383096.480 9   8858305.08049  23246333.318    23246344.2064
  22054216.164     5151491.087 9   4013750.19649  22054216.134    22054223.5364
  21353681.598   -22488446.493 9 -17289568.90549  21353681.654    21353688.1864
 99  4 14 18 44  0.0000000  0  7 24 04 05 08 02 07 09
  22597569.189   -12873886.143 9 -10011771.95449  22597567.480    22597579.0294
  20788568.115   -23513213.125 9 -18298279.78849  20788568.194    20788574.9564
  23396642.163   -11453990.446 9  -8695119.06749  23396641.372    23396650.8784
  23156507.442    -9250137.753 9  -7180356.87249  23156506.444    23156516.6554
  23257173.937    11440067.124 9   8902697.56549  23257174.113    23257184.8234
  22064034.825     5203088.238 9   4053955.69849  22064034.217    22064042.4204
  21348522.624   -22515557.112 9 -17310694.08049  21348522.316    21348529.1474
 99  4 14 18 44 30.0000000  0  7 24 04 05 08 02 07 09
  22577028.652   -12981827.061 9 -10095881.66849  22577028.548    22577037.7524
  20779878.593   -23558876.848 9 -18333861.90349  20779878.469    20779885.4214
  23378738.445   -11548074.335 9  -8768431.12349  23378737.017    23378746.7864
  23137314.421    -9350997.451 9  -7258948.80449  23137314.031    23137322.9304
  23268077.673    11497364.955 9   8947345.00349  23268076.606    23268088.9854
  22073882.925     5254840.235 9   4094281.84049  22073882.249    22073890.5414
  21343479.819   -22542057.339 9 -17331343.63349  21343479.537    21343486.6454
 99  4 14 18 45  0.0000000  0  7 24 04 05 08 02 07 09
  22556520.295   -13089598.421 9 -10179859.20349  22556520.016    22556530.2334
  20771285.118   -23604035.525 9 -18369050.47349  20771285.099    20771291.9734
  23360822.303   -11642223.522 9  -8841794.06149  23360821.450    23360831.8114
  23118172.133    -9451590.411 9  -7337332.89349  23118170.634    23118180.4334
  23279010.973    11554819.412 9   8992114.47749  23279010.486    23279022.3334
  22083729.866     5306585.855 9   4134603.01649  22083729.352    22083737.8544
  21338521.655   -22568112.576 9 -17351646.44049  21338521.389    21338528.2954
 99  4 14 18 45 30.0000000  0  7 24 04 05 08 02 07 09
  22536070.497   -13197062.207 9 -10263597.10449  22536068.924    22536078.8014
  20762816.136   -23648539.976 9 -18403729.25649  20762816.411    20762823.0714
  23342919.705   -11736301.922 9  -8915101.83649  23342918.894    23342928.0994
  23099107.816    -9551773.672 9  -7415397.73449  23099106.621    23099116.3094
  23290000.517    11612570.076 9   9037114.78449  23290000.278    23290013.1594
  22093604.104     5358475.279 9   4175036.25049  22093603.227    22093611.6774
  21333674.987   -22593582.102 9 -17371492.85449  21333674.824    21333681.6154
 99  4 14 18 46  0.0000000  0  7 24 04 05 08 02 07 09
  22515664.649   -13304294.599 9 -10347154.72749  22515664.630    22515674.6054
  20754461.172   -23692445.758 9 -18437941.54149  20754461.285    20754468.1784
  23325018.074   -11830376.407 9  -8988406.58449  23325016.787    23325027.0034
  23080108.715    -9651615.076 9  -7493196.19949  23080107.784    23080117.7644
  23301034.432    11670552.573 9   9082295.69749  23301033.450    23301045.8804
  22103495.054     5410452.138 9   4215537.61649  22103494.279    22103502.7744
  21328928.935   -22618522.970 9 -17390927.32049  21328928.870    21328935.6984
 99  4 14 18 46 30.0000000  0  7 24 04 05 08 02 07 09
  22495305.072   -13411285.098 9 -10430523.82549  22495304.405    22495315.3454
  20746219.537   -23735755.870 9 -18471689.66949  20746219.571    20746226.2644
  23307122.068   -11924419.433 9  -9061686.81049  23307122.175    23307131.6434
  23061173.735    -9751119.240 9  -7570731.86049  23061172.443    23061182.0424
  23312110.424    11728756.435 9   9127649.13549  23312110.452    23312121.9384
  22113403.996     5462523.980 9   4256112.99049  22113403.589    22113411.7504
  21324286.291   -22642920.474 9 -17409938.39449  21324286.164    21324293.0654
 99  4 14 18 47  0.0000000  0  7 24 04 05 08 02 07 09
  22474998.940   -13517993.988 9 -10513673.48449  22474997.603    22475008.4194
  20738091.873   -23778467.117 9 -18504971.14749  20738091.808    20738098.6824
  23289237.044   -12018405.631 9  -9134922.75049  23289236.287    23289245.7444
  23042307.065    -9850264.790 9  -7647988.08149  23042305.904    23042315.7134
  23323230.495    11787191.268 9   9173182.55049  23323229.724    23323242.1054
  22123334.258     5514707.405 9   4296775.31049  22123334.035    22123342.2154
  21319750.091   -22666758.397 9 -17428513.42649  21319749.644    21319756.6314
 99  4 14 18 47 30.0000000  0  7 24 04 05 08 02 07 09
  22454747.279   -13624417.205 9 -10596600.56149  22454747.042    22454757.1294
  20730074.519   -23820598.400 9 -18537800.70949  20730074.428    20730081.5764
  23271362.089   -12112339.830 9  -9208118.17449  23271361.342    23271371.1484
  23023505.861    -9949065.729 9  -7724975.77149  23023505.349    23023514.8474
  23334390.647    11845838.079 9   9218881.12749  23334390.757    23334402.8624
  22133282.195     5566983.613 9   4337509.93349  22133281.388    22133290.2994
  21315319.302   -22690042.231 9 -17446656.70049  21315319.401    21315326.1274
 99  4 14 18 48  0.0000000  0  7 24 04 05 08 02 07 09
  22434548.164   -13730563.773 9 -10679312.07249  22434546.607    22434558.5974
  20722166.653   -23862154.727 9 -18570182.25549  20722166.922    20722173.7964
  23253498.295   -12206215.136 9  -9281267.69649  23253498.448    23253507.4334
  23004769.688   -10047524.936 9  -7801697.16049  23004767.721    23004778.3134
  23345590.898    11904694.622 9   9264743.13349  23345590.974    23345602.9494
  22143245.958     5619342.940 9   4378309.31149  22143245.800    22143254.0334
  21310992.739   -22712778.935 9 -17464373.64249  21310992.617    21310999.5814
 99  4 14 18 48 30.0000000  0  7 24 04 05 08 02 07 09
  22414403.702   -13836423.655 9 -10761800.19349  22414403.072    22414413.8564
  20714367.674   -23903138.689 9 -18602117.79749  20714367.762    20714374.3684
  23235643.760   -12300041.587 9  -9354379.14649  23235643.499    23235652.1414
  22986099.679   -10145635.898 9  -7878147.20649  22986098.745    22986108.1604
  23356830.841    11963759.916 9   9310767.78949  23356830.912    23356843.3464
  22153224.249     5671778.678 9   4419168.23549  22153223.343    22153232.4104
  21306770.686   -22734965.817 9 -17481662.14749  21306770.550    21306777.4464
 99  4 14 18 49  0.0000000  0  7 24 04 05 08 02 07 09
  22394312.488   -13942003.309 9 -10844069.93049  22394311.641    22394321.7994
  20706678.107   -23943547.622 9 -18633605.27049  20706678.325    20706685.1564
  23217795.301   -12393835.643 9  -9427465.37549  23217794.096    23217804.3284
  22967496.752   -10243393.645 9  -7954322.02649  22967496.353    22967505.4264
  23368112.505    12023043.386 9   9356962.47349  23368112.582    23368124.4384
  22163219.574     5724304.276 9   4460097.19249  22163219.023    22163227.4854
  21302652.956   -22756604.843 9 -17498523.75549  21302652.930    21302659.6034
 99  4 14 18 49 30.0000000  0  7 24 04 05 08 02 07 09
  22374268.697   -14047333.778 9 -10926145.52749  22374267.367    22374278.6244
  20699094.614   -23983399.104 9 -18664658.36149  20699094.715    20699101.5864
  23199949.900   -12487614.137 9  -9500539.46049  23199948.920    23199958.7294
  22948959.513   -10340806.674 9  -8030228.22949  22948959.826    22948967.3924
  23379433.586    12082536.144 9   9403320.20949  23379433.495    23379445.2824
  22173230.326     5776910.609 9   4501089.03949  22173229.423    22173238.3704
  21298638.724   -22777700.271 9 -17514961.77549  21298638.499    21298645.2694
 99  4 14 18 50  0.0000000  0  7 24 04 05 08 02 07 09
  22354273.217   -14152409.903 9 -11008022.92249  22354272.259    22354282.7904
  20691617.296   -24022692.880 9 -18695276.88249  20691617.591    20691624.4144
  23182108.275   -12581371.213 9  -9573596.85149  23182107.551    23182116.8694
  22930491.809   -10437855.849 9  -8105850.92149  22930490.692    22930500.8064
  23390795.843    12142243.995 9   9449845.58349  23390796.229    23390808.2374
  22183258.390     5829608.132 9   4542151.95449  22183257.630    22183266.4564
  21294730.215   -22798239.707 9 -17530966.56449  21294729.835    21294736.7514
 99  4 14 18 50 30.0000000  0  7 24 04 05 08 02 07 09
  22334328.961   -14257217.101 9 -11089690.75449  22334328.596    22334338.9674
  20684244.988   -24061434.845 9 -18725465.41849  20684245.125    20684251.9684
  23164270.401   -12675109.677 9  -9646639.75249  23164269.780    23164279.3074
  22912093.842   -10534538.205 9  -8181187.77349  22912094.107    22912102.4994
  23402198.063    12202161.981 9   9496534.68549  23402198.235    23402210.8954
  22193303.771     5882396.816 9   4583285.89449  22193303.196    22193311.5404
  21290926.040   -22818230.626 9 -17546543.93049  21290925.469    21290932.8184
 99  4 14 18 51  0.0000000  0  7 24 04 05 08 02 07 09
  22314436.698   -14361751.553 9 -11171146.06249  22314436.287    22314446.3604
  20676978.231   -24099621.758 9 -18755221.44549  20676978.186    20676985.2834
  23146439.253   -12768813.124 9  -9719655.36149  23146439.294    23146446.6424
  22893765.518   -10630853.910 9  -8256238.91249  22893765.336    22893774.2674
  23413639.161    12262284.366 9   9543383.05849  23413639.065    23413651.6964
  22203366.976     5935279.377 9   4624493.00949  22203366.509    22203375.1264
  21287224.738   -22837680.797 9 -17561699.93349  21287224.471    21287231.5534
 99  4 14 18 51 30.0000000  0  7 24 04 05 08 02 07 09
  22294599.185   -14465998.361 9 -11252377.21849  22294598.601    22294608.5134
  20669819.222   -24137242.220 9 -18784536.07749  20669819.472    20669826.0704
  23128618.946   -12862460.106 9  -9792626.96649  23128618.461    23128627.9584
  22875508.562   -10726794.799 9  -8330997.98549  22875507.646    22875517.9124
  23425120.620    12322618.646 9   9590396.53149  23425120.966    23425132.2034
  22213445.500     5988242.095 9   4665762.56949  22213445.292    22213453.2414
  21283628.798   -22856577.442 9 -17576424.61749  21283628.461    21283635.7614
 99  4 14 18 52  0.0000000  0  7 24 04 05 08 02 07 09
  22274817.808   -14569950.225 9 -11333378.55049  22274816.795    22274827.8114
  20662771.605   -24174277.839 9 -18813394.99249  20662771.591    20662778.3514
  23110812.765   -12956031.692 9  -9865539.81749  23110810.939    23110820.9484
  22857321.513   -10822368.150 9  -8405470.66949  22857320.556    22857331.4934
  23436644.920    12383177.910 9   9637585.33149  23436644.808    23436656.9494
  22223538.181     6041279.153 9   4707090.04849  22223538.015    22223546.2474
  21280137.118   -22874926.301 9 -17590722.45549  21280137.108    21280144.1034
 99  4 14 18 52 30.0000000  0  7 24 04 05 08 02 07 09
  22255091.040   -14673614.748 9 -11414155.99949  22255090.212    22255100.1104
  20655838.472   -24210711.477 9 -18841784.83049  20655838.381    20655845.3304
  23093019.956   -13049532.443 9  -9938397.48449  23093019.395    23093028.5384
  22839203.416   -10917579.475 9  -8479661.25449  22839202.779    22839212.2084
  23448215.035    12443978.346 9   9684962.04249  23448214.909    23448227.5594
  22233644.291     6094386.413 9   4748472.24349  22233644.258    22233652.6244
  21276750.852   -22892721.358 9 -17604588.76349  21276751.102    21276757.8724
 99  4 14 18 53  0.0000000  0  7 24 04 05 08 02 07 09
  22235417.039   -14777001.517 9 -11494717.00349  22235416.182    22235426.6184
  20649020.433   -24246540.357 9 -18869703.43349  20649020.740    20649027.5604
  23075239.563   -13142968.635 9 -10011204.82549  23075238.585    23075248.3954
  22821156.759   -11012415.102 9  -8553559.09349  22821156.172    22821165.0794
  23459832.627    12505027.958 9   9732532.92049  23459833.425    23459845.0664
  22243762.268     6147556.363 9   4789903.27949  22243761.924    22243770.9174
  21273473.311   -22909945.523 9 -17618010.22349  21273473.291    21273480.4804
 99  4 14 18 53 30.0000000  0  7 24 04 05 08 02 07 09
  22215795.548   -14880111.980 9 -11575062.72349  22215795.695    22215805.1774
  20642316.722   -24281768.679 9 -18897154.06749  20642316.811    20642323.4764
  23057469.615   -13236349.481 9 -10083969.04849  23057469.046    23057478.2864
  22803182.570   -11106870.023 9  -8627160.27749  22803182.895    22803191.5594
  23471498.649    12566331.789 9   9780301.87249  23471499.669    23471510.8474
  22253890.684     6200780.992 9   4831376.93249  22253890.352    22253898.3904
  21270304.200   -22926599.786 9 -17630987.60249  21270304.215    21270311.5064
 99  4 14 18 54  0.0000000  0  7 24 04 05 08 02 07 09
  22196227.403   -14982942.765 9 -11655190.50049  22196226.772    22196236.6774
  20635725.371   -24316406.383 9 -18924144.47349  20635725.245    20635732.4664
  23039706.117   -13329697.193 9 -10156707.44149  23039705.534    23039714.8294
  22785282.803   -11200933.526 9  -8700456.47349  22785282.497    22785291.0294
  23483211.835    12627884.438 9   9828264.73449  23483211.181    23483224.1584
  22264032.349     6254075.439 9   4872904.98649  22264031.462    22264040.6934
  21267242.591   -22942689.057 9 -17643524.72549  21267242.434    21267249.3194
 99  4 14 18 54 30.0000000  0  7 24 04 05 08 02 07 09
  22176715.833   -15085476.615 9 -11735086.90049  22176715.589    22176725.5934
  20629242.332   -24350474.801 9 -18950691.28449  20629242.383    20629249.0954
  23021944.823   -13423033.299 9 -10229436.79549  23021944.240    23021952.9954
  22767461.314   -11294585.914 9  -8773432.28249  22767460.795    22767469.2854
  23494969.751    12689671.786 9   9876410.46349  23494970.211    23494981.1744
  22274189.945     6307454.063 9   4914498.63049  22274189.420    22274198.3834
  21264286.392   -22958224.280 9 -17655630.12449  21264286.151    21264292.9654
 99  4 14 18 55  0.0000000  0  7 24 04 05 08 02 07 09
  22157267.456   -15187678.636 9 -11814724.74149  22157266.374    22157276.1104
  20622867.376   -24383975.592 9 -18976795.79449  20622867.686    20622874.0734
  23004190.313   -13516333.438 9 -10302138.12449  23004189.121    23004199.3184
  22749719.685   -11387818.481 9  -8846080.98949  22749719.407    22749728.3384
  23506770.267    12751682.704 9   9924730.37549  23506770.521    23506782.6534
  22284366.503     6360931.826 9   4956169.52549  22284366.234    22284374.7504
  21261434.343   -22973211.804 9 -17667308.75649  21261434.075    21261441.2024
 99  4 14 18 55 30.0000000  0  7 24 04 05 08 02 07 09
  22137883.779   -15289540.408 9 -11894097.44749  22137882.333    22137893.0874
  20616599.705   -24416912.918 9 -19002461.23549  20616599.775    20616606.4824
  22986443.493   -13609593.560 9 -10374808.27949  22986443.386    22986452.3714
  22732056.407   -11480639.943 9  -8918409.33749  22732055.635    22732064.5944
  23518612.379    12813912.692 9   9973221.02449  23518611.334    23518624.3994
  22294563.990     6414519.467 9   4997926.03249  22294564.064    22294572.5964
  21258684.835   -22987660.581 9 -17678567.57849  21258684.799    21258691.7604
 99  4 14 18 56  0.0000000  0  7 24 04 05 08 02 07 09
  22118565.363   -15391058.894 9 -11973202.66749  22118565.086    22118575.2314
  20610440.117   -24449281.573 9 -19027683.56149  20610440.119    20610446.9204
  22968706.192   -13702803.206 9 -10447439.09849  22968705.356    22968714.2944
  22714473.670   -11573037.018 9  -8990406.99749  22714472.958    22714481.2654
  23530496.822    12876365.509 9  10021885.28849  23530496.336    23530508.5964
  22304783.632     6468223.297 9   5039773.08449  22304783.300    22304792.0414
  21256038.829   -23001565.350 9 -17689402.50149  21256038.681    21256045.7264
 99  4 14 18 56 30.0000000  0  7 24 04 05 08 02 07 09
  22099311.465   -15492237.794 9 -12052043.28449  22099310.526    22099320.9544
  20604390.346   -24481072.949 9 -19052456.05649  20604390.337    20604397.2284
  22950982.943   -13795939.416 9 -10520012.68549  22950982.465    22950990.6394
  22696969.161   -11665023.833 9  -9062084.99049  22696967.776    22696977.2934
  23542422.810    12939035.714 9  10070718.95849  23542423.459    23542435.3294
  22315019.799     6522014.366 9   5081688.12049  22315019.713    22315028.4614
  21253494.304   -23014937.306 9 -17699822.23949  21253494.372    21253501.0674
 99  4 14 18 57  0.0000000  0  7 24 04 05 08 02 07 09
  22080119.301   -15593092.052 9 -12130630.93149  22080118.352    22080129.4234
  20598452.496   -24512276.523 9 -19076770.52849  20598452.648    20598459.3534
  22933275.531   -13888991.727 9 -10592520.91349  22933275.224    22933284.3714
  22679540.706   -11756610.216 9  -9133450.94249  22679539.821    22679549.9244
  23554393.013    13001938.566 9  10119733.89449  23554393.573    23554404.6924
  22325267.010     6575863.151 9   5123648.11149  22325266.560    22325275.3644
  21251053.022   -23027766.633 9 -17709819.15249  21251053.042    21251059.9834
 99  4 14 18 57 30.0000000  0  7 24 04 05 08 02 07 09
  22060986.533   -15693634.399 9 -12208975.53349  22060986.047    22060996.4944
  20592626.647   -24542891.479 9 -19100626.33249  20592626.691    20592633.3934
  22915581.090   -13981976.293 9 -10664976.34249  22915580.454    22915589.9614
  22662188.723   -11847795.000 9  -9204503.96449  22662187.744    22662196.9024
  23566409.228    13065083.366 9  10168937.37549  23566409.914    23566421.4984
  22335521.163     6629748.850 9   5165636.87049  22335520.571    22335528.9674
  21248716.126   -23040046.994 9 -17719388.29049  21248715.650    21248723.0124
 99  4 14 18 58  0.0000000  0  7 24 04 05 08 02 07 09
  22041913.637   -15793862.924 9 -12287075.60649  22041913.701    22041923.8304
  20586915.746   -24572902.376 9 -19124011.44549  20586915.915    20586922.7214
  22897901.071   -14074885.450 9 -10737373.01449  22897900.853    22897909.1944
  22644913.442   -11938576.808 9  -9275242.99249  22644913.313    22644921.7684
  23578472.499    13128475.176 9  10218333.31649  23578472.963    23578483.5344
  22345782.442     6683671.719 9   5207654.60549  22345782.227    22345790.5344
  21246484.654   -23051773.512 9 -17728525.86949  21246484.535    21246491.7924
 99  4 14 18 58 30.0000000  0  7 24 04 05 08 02 07 09
  22022898.567   -15893788.430 9 -12364939.55249  22022898.195    22022907.6094
  20581318.654   -24602315.481 9 -19146930.74749  20581318.849    20581325.3254
  22880232.649   -14167733.038 9 -10809721.71649  22880232.375    22880240.9964
  22627710.221   -12028980.339 9  -9345687.23849  22627709.393    22627718.5354
  23590580.240    13192100.976 9  10267911.58049  23590580.231    23590592.1414
  22356048.964     6737622.164 9   5249693.80849  22356049.009    22356057.4074
  21244357.794   -23062950.280 9 -17737235.07249  21244357.567    21244364.7134
 99  4 14 18 59  0.0000000  0  7 24 04 05 08 02 07 09
  22003939.626   -15993418.331 9 -12442573.16549  22003940.219    22003948.6504
  20575835.265   -24631131.010 9 -19169384.39749  20575835.196    20575842.2184
  22862573.059   -14260534.755 9 -10882034.66549  22862571.451    22862581.5384
  22610580.011   -12119000.365 9  -9415832.66049  22610578.322    22610588.1174
  23602731.320    13255954.216 9  10317667.06849  23602731.869    23602744.1514
  22366323.347     6791613.579 9   5291764.94549  22366322.237    22366331.4094
  21242339.088   -23073558.870 9 -17745501.53249  21242338.975    21242346.0024
 99  4 14 18 59 30.0000000  0  7 24 04 05 08 02 07 09
  21985037.153   -16092751.724 9 -12519975.73049  21985036.656    21985046.4504
  20570467.302   -24659340.082 9 -19191365.49449  20570467.562    20570474.1184
  22844922.111   -14353291.641 9 -10954312.69449  22844921.350    22844930.6444
  22593525.023   -12208624.879 9  -9485669.89549  22593524.269    22593533.3544
  23614921.832    13320014.003 9  10367583.51249  23614922.150    23614934.7004
  22376610.289     6845672.241 9   5333888.46949  22376609.945    22376618.9614
  21240429.199   -23083595.543 9 -17753322.35649  21240429.147    21240436.0184
 99  4 14 19  0  0.0000000  0  7 24 04 05 08 02 07 09
  21966189.413   -16191796.974 9 -12597153.77949  21966189.963    21966198.7944
  20565213.826   -24686947.347 9 -19212877.65049  20565214.059    20565220.5124
  22827281.174   -14445995.366 9 -11026549.29849  22827281.382    22827289.1224
  22576546.258   -12297849.045 9  -9555195.16549  22576545.103    22576555.3184
  23627150.893    13384276.432 9  10417657.84549  23627150.534    23627164.0994
  22386911.940     6899807.737 9   5376071.87349  22386912.163    22386920.7534
  21238625.350   -23093075.218 9 -17760709.14849  21238625.416    21238632.2574
 99  4 14 19  0 30.0000000  0  7 24 04 05 08 02 07 09
  21947397.616   -16290548.398 9 -12674102.85449  21947396.783    21947406.8434
  20560072.525   -24713965.299 9 -19233930.59849  20560072.648    20560079.3364
  22809651.576   -14538639.207 9 -11098739.23549  22809651.037    22809659.2554
  22559645.720   -12386661.397 9  -9624399.55249  22559644.723    22559653.7194
  23639416.247    13448730.827 9  10467881.75249  23639415.733    23639430.5434
  22397224.815     6954001.128 9   5418300.37249  22397223.945    22397232.5844
  21236926.450   -23102003.429 9 -17767666.22749  21236926.252    21236933.5104
 99  4 14 19  1  0.0000000  0  7 24 04 05 08 02 07 09
  21928667.396   -16388975.906 9 -12750799.52949  21928667.010    21928676.2674
  20555042.834   -24740396.288 9 -19254526.16849  20555042.910    20555049.7444
  22792035.919   -14631208.866 9 -11170871.36749  22792035.262    22792043.8404
  22542830.500   -12475026.106 9  -9693255.12649  22542830.053    22542837.6804
  23651719.953    13513385.838 9  10518261.97649  23651720.325    23651734.4354
  22407548.659     7008252.185 9   5460573.82349  22407547.777    22407556.9784
  21235332.539   -23110379.504 9 -17774193.07549  21235332.465    21235339.5364
 99  4 14 19  1 30.0000000  0  7 24 04 05 08 02 07 09
  21910001.603   -16487065.131 9 -12827232.62049  21910001.062    21910010.4894
  20550122.144   -24766254.609 9 -19274675.50949  20550122.146    20550129.1074
  22774435.492   -14723699.489 9 -11242941.91949  22774435.077    22774444.6344
  22526100.711   -12562941.525 9  -9761760.59549  22526100.525    22526109.0854
  23664061.933    13578243.057 9  10568799.77349  23664061.551    23664075.7034
  22417883.310     7062561.083 9   5502892.34349  22417882.703    22417892.2724
  21233838.411   -23118231.422 9 -17780311.49249  21233838.210    21233845.4004
 99  4 14 19  2  0.0000000  0  7 24 04 05 08 02 07 09
  21891404.527   -16584793.433 9 -12903384.46949  21891404.036    21891413.5954
  20545309.552   -24791544.946 9 -19294382.26449  20545309.398    20545316.4044
  22756853.432   -14816093.417 9 -11314937.12749  22756853.328    22756861.2344
  22509457.164   -12650404.271 9  -9829913.33249  22509456.468    22509465.0434
  23676446.349    13643322.917 9  10619511.03249  23676446.847    23676459.1524
  22428227.445     7116919.834 9   5545249.69149  22428226.742    22428235.7214
  21232446.288   -23125546.904 9 -17786011.90749  21232445.974    21232453.3284
 99  4 14 19  2 30.0000000  0  7 24 04 05 08 02 07 09
  21872875.241   -16682165.516 9 -12979258.73249  21872874.644    21872884.1214
  20540603.189   -24816276.702 9 -19313653.75749  20540603.136    20540609.8644
  22739285.178   -14908414.707 9 -11386875.71949  22739285.041    22739293.2274
  22492896.148   -12737432.257 9  -9897727.30449  22492895.872    22492905.1914
  23688866.607    13708589.971 9  10670368.18449  23688866.769    23688879.5884
  22438576.591     7171304.753 9   5587627.43249  22438575.517    22438585.7744
  21231156.034   -23132327.297 9 -17791295.37049  21231155.787    21231163.1914
 99  4 14 19  3  0.0000000  0  7 24 04 05 08 02 07 09
  21854411.927   -16779190.367 9 -13054862.43349  21854411.656    21854420.8274
  20536003.552   -24840447.990 9 -19332488.51649  20536003.660    20536010.4474
  22721728.790   -15000674.115 9 -11458766.09249  22721728.295    22721737.5714
  22476416.200   -12824035.403 9  -9965210.21949  22476415.112    22476425.5684
  23701323.788    13774051.859 9  10721377.13049  23701323.595    23701336.6904
  22448934.944     7225738.049 9   5630042.88049  22448934.126    22448943.7024
  21229967.342   -23138574.284 9 -17796163.19149  21229967.289    21229974.5264
 99  4 14 19  3 30.0000000  0  7 24 04 05 08 02 07 09
  21836010.270   -16875891.094 9 -13130213.56849  21836009.675    21836019.2534
  20531512.408   -24864049.102 9 -19350878.98449  20531512.470    20531519.1714
  22704183.446   -15092875.498 9 -11530611.24849  22704183.091    22704192.0614
  22460013.787   -12910230.773 9 -10032375.39649  22460012.357    22460022.1264
  23713818.695    13839711.734 9  10772540.36049  23713819.334    23713831.9304
  22459304.811     7280231.629 9   5672505.28249  22459304.277    22459313.4194
  21228881.852   -23144279.021 9 -17800608.47949  21228881.651    21228888.7824
 99  4 14 19  4  0.0000000  0  7 24 04 05 08 02 07 09
  21817665.784   -16972291.227 9 -13205330.47549  21817664.985    21817674.8784
  20527129.845   -24887079.605 9 -19368824.82449  20527129.774    20527136.4944
  22686648.593   -15185021.453 9 -11602413.24149  22686648.380    22686657.9074
  22443688.947   -12996017.916 9 -10099222.47649  22443688.328    22443697.1524
  23726349.385    13905558.573 9  10823849.26849  23726349.490    23726363.7064
  22469682.417     7334765.745 9   5714999.29349  22469681.113    22469691.1574
  21227900.433   -23149436.692 9 -17804627.48349  21227900.280    21227907.4524
 99  4 14 19  4 30.0000000  0  7 24 04 05 08 02 07 09
  21799380.619   -17068380.297 9 -13280205.00049  21799380.703    21799389.7504
  20522859.199   -24909521.875 9 -19386312.29849  20522859.170    20522865.9004
  22669126.772   -15277098.977 9 -11674161.88749  22669126.410    22669135.2304
  22427445.849   -13081375.075 9 -10165734.49049  22427444.074    22427454.5644
  23738918.563    13971608.565 9  10875316.46749  23738918.439    23738933.3434
  22480069.910     7389351.760 9   5757533.73649  22480069.492    22480078.3094
  21227021.790   -23154054.150 9 -17808225.54349  21227021.619    21227028.7974
 99  4 14 19  5  0.0000000  0  7 24 04 05 08 02 07 09
  21781154.721   -17164157.830 9 -13354836.75749  21781154.191    21781164.0824
  20518698.725   -24931385.334 9 -19403348.75449  20518698.890    20518705.5834
  22651618.523   -15369105.080 9 -11745854.89149  22651617.691    22651627.0064
  22411284.911   -13166299.962 9 -10231909.69549  22411284.421    22411292.7514
  23751530.797    14037886.135 9  10926961.01349  23751530.827    23751544.4894
  22490469.406     7444000.757 9   5800117.25849  22490468.273    22490477.3754
  21226244.742   -23158137.601 9 -17811407.49449  21226244.317    21226251.8554
 99  4 14 19  5 30.0000000  0  7 24 04 05 08 02 07 09
  21762991.170   -17259607.884 9 -13429213.35049  21762991.325    21763000.3674
  20514650.190   -24952660.395 9 -19419926.72549  20514650.463    20514657.0554
  22634126.104   -15461028.497 9 -11817483.45949  22634125.911    22634134.1994
  22395208.936   -13250779.723 9 -10297738.04949  22395208.530    22395217.3874
  23764184.195    14104380.277 9  10978774.30649  23764184.407    23764198.8754
  22500878.417     7498700.253 9   5842740.13449  22500877.457    22500886.9024
  21225569.265   -23161687.128 9 -17814173.40249  21225569.154    21225576.5154
 99  4 14 19  6  0.0000000  0  7 24 04 05 08 02 07 09
  21744897.055   -17354692.593 9 -13503305.24749  21744896.571    21744905.9104
  20510714.975   -24973340.028 9 -19436040.71849  20510714.997    20510721.8744
  22616653.434   -15552847.250 9 -11889030.47849  22616652.567    22616662.1114
  22379222.524   -13334788.875 9 -10363199.66749  22379222.247    22379230.2364
  23776882.452    14171107.606 9  11030769.29749  23776883.646    23776896.8374
  22511298.932     7553460.111 9   5885410.02449  22511298.183    22511307.4794
  21224995.480   -23164702.418 9 -17816523.01449  21224995.172    21225002.6254
 99  4 14 19  6 30.0000000  0  7 24 04 05 08 02 07 09
  21726872.867   -17449409.749 9 -13577110.75849  21726872.299    21726881.5314
  20506890.160   -24993439.734 9 -19451702.82649  20506890.185    20506896.8044
  22599195.634   -15644588.333 9 -11960516.98649  22599194.723    22599203.1014
  22363321.187   -13418350.924 9 -10428312.91549  22363320.535    22363329.0414
  23789623.235    14238059.723 9  11082939.40249  23789622.877    23789637.8314
  22521732.658     7608289.433 9   5928134.06449  22521732.309    22521741.5264
  21224522.666   -23167186.973 9 -17818459.07649  21224522.519    21224529.8224
 99  4 14 19  7  0.0000000  0  7 24 04 05 08 02 07 09
  21708915.610   -17543775.572 9 -13650642.48949  21708915.121    21708924.8824
  20503173.449   -25012971.145 9 -19466922.10649  20503173.838    20503180.2624
  22581749.647   -15736267.070 9 -12031954.91549  22581749.830    22581757.4944
  22347503.077   -13501475.184 9 -10493085.02449  22347501.687    22347510.6914
  23802401.183    14305206.957 9  11135261.59849  23802402.220    23802415.8604
  22532178.700     7663183.861 9   5970908.81549  22532178.877    22532187.4464
  21224151.503   -23169137.436 9 -17819978.95849  21224151.466    21224158.8004
 99  4 14 19  7 30.0000000  0  7 24 04 05 08 02 07 09
  21691032.177   -17637753.374 9 -13723871.87049  21691031.721    21691041.2664
  20499570.784   -25031903.545 9 -19481674.62649  20499570.962    20499577.5444
  22564322.646   -15827846.365 9 -12103315.34449  22564321.845    22564331.0504
  22331776.303   -13584119.994 9 -10557483.55349  22331775.414    22331783.9024
  23815218.810    14372562.478 9  11187746.07349  23815218.617    23815233.1294
  22542638.536     7718149.541 9   6013739.11649  22542637.497    22542647.0764
  21223887.515   -23170524.978 9 -17821060.19349  21223887.528    21223894.7284
 99  4 14 19  8  0.0000000  0  7 24 04 05 08 02 07 09
  21673222.763   -17731342.521 9 -13796798.39749  21673222.370    21673231.4524
  20496080.497   -25050245.152 9 -19495966.78549  20496080.629    20496087.3754
  22546912.833   -15919335.524 9 -12174605.54749  22546911.908    22546920.8784
  22316139.287   -13666292.682 9 -10621514.18249  22316137.969    22316147.3724
  23828077.789    14440135.529 9  11240400.05949  23828077.765    23828092.1884
  22553109.824     7773175.948 9   6056616.72949  22553109.667    22553118.6434
  21223732.012   -23171342.547 9 -17821697.29749  21223731.666    21223739.3544
 99  4 14 19  8 30.0000000  0  7 24 04 05 08 02 07 09
  21655490.110   -17824528.018 9 -13869410.40749  21655489.497    21655498.7754
  20492708.316   -25067966.189 9 -19509775.39149  20492708.413    20492715.1214
  22529522.856   -16010720.295 9 -12245814.41049  22529522.446    22529531.1904
  22300594.061   -13747984.039 9 -10685169.75649  22300593.460    22300602.0584
  23840978.284    14507926.055 9  11293223.48949  23840978.554    23840992.0714
  22563592.435     7828261.607 9   6099540.50149  22563592.270    22563601.1554
  21223688.821   -23171569.720 9 -17821874.35649  21223688.676    21223696.1984
 99  4 14 19  9  0.0000000  0  7 24 04 05 08 02 07 09
  21637828.366   -17917340.679 9 -13941731.88749  21637827.824    21637837.6284
  20489448.396   -25085096.994 9 -19523124.07349  20489448.560    20489455.3134
  22512148.662   -16102021.766 9 -12316958.36649  22512147.704    22512156.8184
  22285134.563   -13829224.400 9 -10748473.90249  22285133.823    22285142.4694
  23853913.598    14575900.063 9  11346189.91649  23853914.029    23853928.2514
  22574074.539     7883345.393 9   6142462.81049  22574074.124    22574082.6324
  21223747.857   -23171259.626 9 -17821632.76649  21223747.735    21223754.8044
 99  4 14 19  9 30.0000000  0  7 24 04 05 08 02 07 09
  21620242.328   -18009755.714 9 -14013743.53049  21620241.728    21620251.0544
  20486303.294   -25101624.554 9 -19536002.68649  20486303.197    20486309.8224
  22494791.764   -16193232.874 9 -12388031.90649  22494791.160    22494799.9904
  22269762.543   -13910004.566 9 -10811419.46849  22269762.624    22269770.8254
  23866888.882    14644084.526 9  11399320.30949  23866889.916    23866904.1814
  22584557.025     7938430.590 9   6185386.23749  22584556.427    22584566.0094
  21223910.270   -23170406.445 9 -17820967.98249  21223910.313    21223917.1254
 99  4 14 19 10  0.0000000  0  7 24 04 05 08 02 07 09
  21602734.097   -18101761.698 9 -14085436.43049  21602733.309    21602742.5144
  20483278.055   -25117522.098 9 -19548390.38549  20483278.112    20483284.9574
  22477455.015   -16284338.400 9 -12459023.17149  22477454.492    22477463.0984
  22254480.748   -13990310.515 9 -10873995.49149  22254480.284    22254488.6834
  23879911.926    14712519.562 9  11452645.96749  23879912.511    23879926.4424
  22595048.802     7993565.141 9   6228348.11649  22595049.013    22595057.6394
  21224179.975   -23168989.429 9 -17819863.86149  21224179.856    21224187.0554
 99  4 14 19 10 30.0000000  0  7 24 04 05 08 02 07 09
  21585303.556   -18193359.143 9 -14156811.00349  21585303.256    21585312.6624
  20480373.464   -25132785.793 9 -19560284.17749  20480373.662    20480380.3394
  22460141.325   -16375321.965 9 -12529919.40149  22460140.848    22460148.9144
  22239292.546   -14070124.429 9 -10936188.13349  22239292.948    22239301.2134
  23892985.409    14781220.455 9  11506178.77749  23892984.601    23893000.8044
  22605555.890     8048780.213 9   6271372.72149  22605556.109    22605565.3514
  21224558.393   -23167001.159 9 -17818314.60449  21224558.554    21224565.6524
 99  4 14 19 11  0.0000000  0  7 24 04 05 08 02 07 09
  21567944.783   -18284579.780 9 -14227891.94549  21567944.223    21567954.1334
  20477582.685   -25147451.566 9 -19571712.05849  20477582.834    20477589.4484
  22442845.294   -16466213.029 9 -12600743.56649  22442844.892    22442853.5674
  22224197.490   -14149449.749 9 -10998000.04549  22224196.839    22224206.6084
  23906107.140    14850174.569 9  11559908.89549  23906107.296    23906122.8104
  22616076.011     8104063.472 9   6314450.48049  22616074.987    22616084.2284
  21225043.295   -23164453.179 9 -17816329.20949  21225043.228    21225050.5254
 99  4 14 19 11 30.0000000  0  7 24 04 05 08 02 07 09
  21550655.202   -18375436.988 9 -14298689.70749  21550654.682    21550664.4264
  20474902.284   -25161537.172 9 -19582687.85849  20474902.300    20474909.0094
  22425565.901   -16557016.682 9 -12671499.59949  22425565.244    22425573.7374
  22209194.191   -14228292.918 9 -11059436.25049  22209193.695    22209202.7634
  23919273.727    14919364.538 9  11613822.80449  23919274.301    23919287.5964
  22626609.848     8159417.701 9   6357583.52649  22626609.514    22626618.3934
  21225635.386   -23161341.994 9 -17813904.95149  21225635.378    21225642.5514
 99  4 14 19 12  0.0000000  0  7 24 04 05 08 02 07 09
  21533441.077   -18465897.591 9 -14369178.42549  21533440.359    21533450.1704
  20472337.594   -25175014.508 9 -19593189.68349  20472337.726    20472344.2924
  22408313.855   -16647676.823 9 -12742143.81649  22408313.627    22408322.2484
  22194289.132   -14306619.354 9 -11120469.81649  22194288.194    22194297.3164
  23932489.584    14988811.902 9  11667937.27149  23932491.941    23932505.5724
  22637165.696     8214888.332 9   6400807.28149  22637165.446    22637173.9314
  21226343.789   -23157619.437 9 -17811004.30449  21226343.368    21226351.1474
 99  4 14 19 12 30.0000000  0  7 24 04 05 08 02 07 09
  21516304.792   -18555949.165 9 -14439348.41449  21516303.893    21516313.6104
  20469887.732   -25187888.861 9 -19603221.65249  20469887.911    20469894.6924
  22391091.425   -16738181.348 9 -12812666.77349  22391091.390    22391099.9584
  22179484.228   -14384419.636 9 -11181093.38549  22179483.693    22179492.2074
  23945747.730    15058481.546 9  11722224.93349  23945747.744    23945761.6384
  22647738.956     8270450.640 9   6444102.46949  22647738.587    22647747.5514
  21227168.977   -23153283.118 9 -17807625.40549  21227168.727    21227176.1284
 99  4 14 19 13  0.0000000  0  7 24 04 05 08 02 07 09
  21499248.992   -18645577.878 9 -14509188.90249  21499248.670    21499258.0774
  20467553.477   -25200155.676 9 -19612780.21449  20467553.697    20467560.3974
  22373900.221   -16828521.644 9 -12883061.75149  22373898.742    22373907.9474
  22164779.522   -14461693.234 9 -11241306.55749  22164778.453    22164788.1604
  23959043.425    15128351.029 9  11776668.30849  23959042.160    23959059.0994
  22658325.191     8326082.349 9   6487451.71849  22658324.348    22658335.0764
  21228109.885   -23148338.852 9 -17803772.78049  21228109.805    21228117.2074
 99  4 14 19 13 30.0000000  0  7 24 04 05 08 02 07 09
  21482277.526   -18734763.404 9 -14578684.05749  21482277.359    21482286.4834
  20465336.537   -25211805.763 9 -19621858.20749  20465336.762    20465343.1734
  22356746.182   -16918666.326 9 -12953304.30449  22356745.727    22356753.9144
  22150173.548   -14538447.789 9 -11301115.26549  22150173.044    22150181.1304
  23972379.042    15198429.193 9  11831274.26949  23972379.387    23972395.7064
  22668926.472     8381792.439 9   6530862.05449  22668926.629    22668935.6464
  21229164.215   -23142798.634 9 -17799455.77749  21229164.205    21229171.5474
 99  4 14 19 14  0.0000000  0  7 24 04 05 08 02 07 09
  21465386.271   -18823526.946 9 -14647850.39149  21465385.883    21465395.4004
  20463235.052   -25222849.203 9 -19630463.49049  20463235.157    20463241.8194
  22339623.966   -17008643.677 9 -13023416.45949  22339623.650    22339632.2724
  22135664.434   -14614693.427 9 -11360527.41849  22135663.839    22135672.7204
  23985750.698    15268696.526 9  11886027.67349  23985751.390    23985767.1294
  22679536.758     8437548.998 9   6574308.59649  22679536.823    22679545.8464
  21230324.636   -23136700.898 9 -17794704.34149  21230324.762    21230332.1244
 99  4 14 19 14 30.0000000  0  7 24 04 05 08 02 07 09
  21448575.325   -18911868.635 9 -14716688.01249  21448575.080    21448584.3254
  20461251.419   -25233273.301 9 -19638586.17249  20461251.670    20461258.2464
  22322530.512   -17098470.771 9 -13093411.54249  22322529.784    22322539.1074
  22121254.832   -14690416.523 9 -11419532.40249  22121254.434    22121263.2874
  23999161.273    15339167.913 9  11940940.04249  23999160.027    23999177.5024
  22690152.561     8493334.371 9   6617777.56649  22690152.654    22690163.0364
  21231587.101   -23130066.788 9 -17789534.95749  21231587.038    21231594.3224
 99  4 14 19 15  0.0000000  0  7 24 04 05 08 02 07 09
  21431852.903   -18999745.578 9 -14785163.48749  21431852.867    21431861.9974
  20459396.348   -25243021.920 9 -19646182.50249  20459396.644    20459403.3554
  22305473.699   -17188104.737 9 -13163256.13449  22305473.302    22305481.6164
  22106952.511   -14765576.240 9 -11478098.38849  22106951.906    22106960.8604
  24012627.174    15409929.282 9  11996078.39049  24012627.874    24012643.7634
  22700786.614     8549215.655 9   6661321.31749  22700784.914    22700795.2204
  21232960.157   -23122851.144 9 -17783912.43149  21232959.788    21232967.7074
 99  4 14 19 15 30.0000000  0  7 24 04 05 08 02 07 09
  21415210.939   -19087199.628 9 -14853309.43449  21415210.308    21415219.8704
  20457663.175   -25252130.056 9 -19653279.75749  20457663.065    20457669.9704
  22288443.384   -17277599.681 9 -13232992.40049  22288442.542    22288450.6504
  22092749.389   -14840213.560 9 -11536257.30849  22092748.578    22092758.0174
  24026144.098    15480959.560 9  12051426.23849  24026144.077    24026160.2734
  22711434.460     8605170.614 9   6704922.43049  22711434.471    22711443.3874
  21234436.300   -23115093.964 9 -17777867.92749  21234436.026    21234443.6374
 99  4 14 19 16  0.0000000  0  7 24 04 05 08 02 07 09
  21398633.344   -19174314.947 9 -14921191.43849  21398632.775    21398642.1624
  20456038.009   -25260670.297 9 -19659934.49549  20456037.980    20456044.8664
  22271420.930   -17367052.560 9 -13302695.88449  22271420.117    22271428.9194
  22078633.577   -14914392.417 9 -11594058.98949  22078632.251    22078642.0804
  24039696.608    15552176.697 9  12106919.69349  24039696.734    24039711.9394
  22722081.946     8661122.126 9   6748520.87349  22722082.620    22722090.9104
  21236004.900   -23106851.062 9 -17771444.93649  21236004.810    21236012.2304
 99  4 14 19 16 30.0000000  0  7 24 04 05 08 02 07 09
  21382130.768   -19261035.953 9 -14988766.17849  21382130.039    21382139.7924
  20454527.770   -25268606.438 9 -19666118.50549  20454527.745    20454534.5954
  22254416.144   -17456412.598 9 -13372327.02149  22254415.649    22254424.4054
  22064612.092   -14988075.964 9 -11651474.69449  22064611.647    22064619.9524
  24053294.709    15623632.984 9  12162599.50049  24053295.920    24053311.5244
  22732739.789     8717128.999 9   6792162.48249  22732737.993    22732748.6034
  21237676.882   -23098064.776 9 -17764598.52849  21237676.872    21237684.3324
 99  4 14 19 17  0.0000000  0  7 24 04 05 08 02 07 09
  21365713.904   -19347306.492 9 -15055989.91349  21365713.704    21365722.7064
  20453139.462   -25275902.028 9 -19671803.39149  20453139.676    20453146.3704
  22237440.292   -17545621.311 9 -13441840.24849  22237439.781    22237448.1454
  22050693.701   -15061217.272 9 -11708467.89549  22050692.733    22050702.2094
  24066945.081    15695364.001 9  12218493.37949  24066945.171    24066962.4134
  22743420.654     8773257.648 9   6835898.95149  22743420.618    22743430.3654
  21239464.571   -23088670.764 9 -17757278.57649  21239464.445    21239472.0244
 99  4 14 19 17 30.0000000  0  7 24 04 05 08 02 07 09
  21349363.570   -19433227.856 9 -15122941.56049  21349362.964    21349372.4634
  20451852.787   -25282663.780 9 -19677072.29649  20451852.937    20451859.6864
  22220475.747   -17634770.872 9 -13511307.37849  22220474.975    22220483.2744
  22036863.263   -15133896.771 9 -11765101.23049  22036862.587    22036871.3644
  24080624.110    15767246.727 9  12274505.47449  24080624.431    24080641.1554
  22754102.500     8829390.262 9   6879638.52549  22754101.893    22754111.3654
  21241347.868   -23078774.195 9 -17749567.00949  21241347.681    21241355.4044
 99  4 14 19 18  0.0000000  0  7 24 04 05 08 02 07 09
  21333111.799   -19518631.301 9 -15189489.63249  21333111.394    21333120.5654
  20450698.079   -25288731.865 9 -19681800.68149  20450698.406    20450705.0434
  22203558.034   -17723673.742 9 -13580582.28649  22203557.717    22203566.3584
  22023154.976   -15205934.107 9 -11821234.19449  22023154.308    22023162.9784
  24094362.867    15839443.043 9  12330761.95149  24094362.480    24094380.5594
  22764815.218     8885685.632 9   6923504.92949  22764813.687    22764823.7094
  21243358.377   -23068209.166 9 -17741334.57149  21243358.479    21243365.8874
 99  4 14 19 18 30.0000000  0  7 24 04 05 08 02 07 09
  21316923.884   -19603698.953 9 -15255776.05249  21316923.531    21316932.7304
  20449638.070   -25294302.606 9 -19686141.52649  20449637.980    20449644.7224
  22186653.516   -17812507.453 9 -13649803.30749  22186652.900    22186660.9564
  22009533.831   -15277513.765 9 -11877010.51549  22009533.237    22009542.1544
  24108125.294    15911763.728 9  12387115.30149  24108125.922    24108142.9964
  22775522.175     8941950.848 9   6967347.82149  22775521.944    22775533.1674
  21245456.687   -23057182.891 9 -17732742.72549  21245456.457    21245464.1034
 99  4 14 19 19  0.0000000  0  7 24 04 05 08 02 07 09
  21300827.132   -19688287.723 9 -15321689.31049  21300826.864    21300836.2894
  20448702.072   -25299221.076 9 -19689974.10949  20448702.118    20448708.7224
  22169792.150   -17901114.066 9 -13718847.36249  22169791.822    22169799.8334
  21996029.925   -15348477.136 9 -11932306.60749  21996028.756    21996038.0434
  24121937.964    15984347.527 9  12443673.65149  24121939.699    24121955.0224
  22786250.925     8998330.210 9   7011279.63849  22786250.227    22786260.8974
  21247669.608   -23045553.894 9 -17723681.22549  21247669.524    21247677.1964
 99  4 14 19 19 30.0000000  0  7 24 04 05 08 02 07 09
  21284813.131   -19772442.194 9 -15387264.15649  21284812.581    21284821.6924
  20447882.810   -25303526.331 9 -19693328.86749  20447882.785    20447889.3674
  22152966.323   -17989534.284 9 -13787746.17949  22152965.701    22152974.0744
  21982632.239   -15418882.204 9 -11987167.67749  21982631.511    21982639.8194
  24135792.605    16057152.532 9  12500404.42449  24135792.389    24135810.2554
  22796991.377     9054771.350 9   7055259.60449  22796991.131    22797001.0074
  21249986.230   -23033380.142 9 -17714195.24449  21249986.261    21249993.9444
 99  4 14 19 20  0.0000000  0  7 24 04 05 08 02 07 09
  21268879.927   -19856171.802 9 -15452507.94449  21268879.331    21268888.7544
  20447173.526   -25307253.528 9 -19696233.19849  20447173.776    20447180.3324
  22136169.008   -18077804.724 9 -13856528.29549  22136168.120    22136176.2944
  21969332.333   -15488773.433 9 -12041628.35049  21969332.268    21969340.8804
  24149686.223    16130162.578 9  12557294.91149  24149686.300    24149701.6914
  22807740.163     9111255.526 9   7099273.12849  22807739.950    22807748.9404
  21252402.214   -23020684.435 9 -17704302.54149  21252402.378    21252409.7744
 99  4 14 19 20 30.0000000  0  7 24 04 05 08 02 07 09
  21253037.714   -19939422.714 9 -15517378.71749  21253037.189    21253046.5454
  20446582.789   -25310357.969 9 -19698652.25149  20446582.885    20446589.5624
  22119404.359   -18165903.512 9 -13925176.64049  22119403.426    22119412.2614
  21956135.589   -15558122.496 9 -12095666.55449  21956134.594    21956144.0584
  24163625.690    16203414.736 9  12614374.09349  24163625.420    24163642.9674
  22818505.134     9167825.488 9   7143353.52149  22818503.789    22818514.2824
  21254925.994   -23007422.413 9 -17693968.55249  21254925.821    21254933.3524
 99  4 14 19 21  0.0000000  0  7 24 04 05 08 02 07 09
  21237272.522   -20022268.990 9 -15581934.19649  21237272.003    21237281.0394
  20446095.192   -25312920.543 9 -19700649.08449  20446095.153    20446101.9034
  22102657.517   -18253908.426 9 -13993751.85149  22102656.869    22102664.7544
  21943025.601   -15627015.736 9 -12149349.57649  21943025.510    21943033.7954
  24177597.981    16276838.647 9  12671587.08749  24177596.888    24177614.9264
  22829269.545     9224392.907 9   7187431.87949  22829268.676    22829278.0764
  21257545.435   -22993657.014 9 -17683242.32649  21257545.378    21257552.8984
 99  4 14 19 21 30.0000000  0  7 24 04 05 08 02 07 09
  21221604.316   -20104605.729 9 -15646092.63249  21221603.769    21221613.1324
  20445725.153   -25314864.986 9 -19702164.25049  20445725.209    20445732.0424
  22085943.464   -18341741.432 9 -14062193.09949  22085942.510    22085951.1504
  21930019.639   -15695361.687 9 -12202606.13649  21930019.344    21930028.3104
  24191620.134    16350523.477 9  12729003.40349  24191621.719    24191638.0334
  22840048.484     9281034.999 9   7231568.45649  22840048.823    22840055.7724
  21260278.517   -22979294.841 9 -17672051.08149  21260278.406    21260286.1094
 99  4 14 19 22  0.0000000  0  7 24 04 05 08 02 07 09
  21206010.553   -20186551.420 9 -15709946.35449  21206009.975    21206019.1364
  20445450.485   -25316308.264 9 -19703288.89549  20445450.569    20445457.2504
  22069238.198   -18429527.740 9 -14130597.96749  22069237.715    22069246.3654
  21917099.649   -15763256.987 9 -12255511.53449  21917098.948    21917107.4634
  24205669.859    16424352.578 9  12786532.15649  24205669.694    24205687.3604
  22850818.002     9337628.158 9   7275666.90149  22850818.358    22850825.8534
  21263104.587   -22964443.946 9 -17660479.01249  21263104.549    21263112.0104
 99  4 14 19 22 30.0000000  0  7 24 04 05 08 02 07 09
  21190518.252   -20267963.772 9 -15773384.48849  21190517.780    21190526.8404
  20445303.567   -25317080.324 9 -19703890.51349  20445303.761    20445310.3904
  22052572.512   -18517106.054 9 -14198840.75149  22052572.222    22052580.1504
  21904299.025   -15830524.715 9 -12307927.92149  21904298.440    21904307.3634
  24219775.522    16498476.537 9  12844290.64749  24219776.068    24219794.3234
  22861606.920     9394323.702 9   7319845.15649  22861605.880    22861614.3164
  21266053.357   -22948948.508 9 -17648404.70249  21266053.128    21266060.6774
 99  4 14 19 23  0.0000000  0  7 24 04 05 08 02 07 09
  21175097.809   -20348998.288 9 -15836528.20849  21175097.385    21175106.4444
  20445257.096   -25317324.740 9 -19704080.98149  20445257.173    20445264.0874
  22035921.248   -18604609.301 9 -14267025.06049  22035920.430    22035928.9044
  21891592.484   -15897298.208 9 -12359959.20049  21891591.736    21891600.5284
  24233908.581    16572745.113 9  12902161.83449  24233908.314    24233926.7204
  22872388.625     9450982.180 9   7363994.49349  22872388.815    22872397.6014
  21269095.824   -22932960.701 9 -17635946.73449  21269095.542    21269103.1894
 99  4 14 19 23 30.0000000  0  7 24 04 05 08 02 07 09
  21159760.726   -20429595.056 9 -15899330.82749  21159760.153    21159769.2594
  20445326.032   -25316962.652 9 -19703798.85049  20445325.975    20445332.9794
  22019295.859   -18691976.011 9 -14335102.96549  22019294.989    22019303.2044
  21878994.701   -15963500.201 9 -12411545.14549  21878993.828    21879002.6944
  24248078.804    16647208.779 9  12960185.04449  24248078.035    24248097.6824
  22883180.257     9507692.269 9   7408184.04949  22883179.455    22883189.1884
  21272241.972   -22916427.714 9 -17623063.95349  21272241.654    21272249.3024
 99  4 14 19 24  0.0000000  0  7 24 04 05 08 02 07 09
  21144492.038   -20509832.236 9 -15961853.23949  21144491.843    21144500.3384
  20445500.106   -25316047.896 9 -19703086.06249  20445500.215    20445507.0704
  22002685.788   -18779262.236 9 -14403118.15449  22002685.048    22002693.2824
  21866492.980   -16029196.919 9 -12462737.37149  21866492.782    21866501.1994
  24262275.153    16721810.702 9  13018316.01149  24262273.927    24262293.4464
  22893972.397     9564405.830 9   7452376.29349  22893972.702    22893982.4914
  21275479.003   -22899417.364 9 -17609809.20149  21275478.693    21275486.3544
 99  4 14 19 24 30.0000000  0  7 24 04 05 08 02 07 09
  21129320.064   -20589561.462 9 -16023979.84949  21129319.916    21129328.6234
  20445805.464   -25314443.532 9 -19701835.91849  20445805.643    20445812.0164
  21986122.816   -18866301.545 9 -14470940.93349  21986122.294    21986130.1114
  21854111.887   -16094260.455 9 -12513436.20349  21854111.234    21854119.5224
  24276523.930    16796686.575 9  13076660.38449  24276524.622    24276542.5894
  22904794.676     9621276.183 9   7496690.74649  22904794.581    22904805.1804
  21278832.688   -22881793.571 9 -17596076.43449  21278832.471    21278840.1904
 99  4 14 19 25  0.0000000  0  7 24 04 05 08 02 07 09
  21114210.021   -20668965.177 9 -16085852.81149  21114209.717    21114218.4394
  20446204.292   -25312347.795 9 -19700202.88449  20446204.307    20446210.9884
  21969573.843   -18953267.125 9 -14538706.27149  21969573.121    21969581.1124
  21841812.387   -16158895.220 9 -12563800.93449  21841811.978    21841820.3494
  24290787.687    16871640.657 9  13135065.74149  24290789.227    24290806.3074
  22915608.572     9678102.898 9   7540971.15049  22915609.863    22915617.9554
  21282266.448   -22863749.179 9 -17582015.92749  21282266.324    21282274.2344
 99  4 14 19 25 30.0000000  0  7 24 04 05 08 02 07 09
  21099190.745   -20747891.738 9 -16147353.96649  21099190.534    21099199.2394
  20446724.361   -25309614.843 9 -19698073.31949  20446724.447    20446731.0394
  21953068.678   -19040001.822 9 -14606291.69249  21953067.687    21953076.1914
  21829623.300   -16222949.454 9 -12613713.29949  21829622.717    21829631.1854
  24305097.776    16946838.583 9  13193661.06949  24305098.920    24305115.2164
  22926438.806     9735014.880 9   7585318.07049  22926438.577    22926448.4154
  21285808.830   -22845134.256 9 -17567510.84949  21285808.851    21285816.3684
 99  4 14 19 26  0.0000000  0  7 24 04 05 08 02 07 09
  21084247.368   -20826419.761 9 -16208544.57249  21084247.020    21084256.0904
  20447344.739   -25306354.731 9 -19695532.97749  20447344.718    20447351.4854
  21936594.414   -19126574.604 9 -14673750.93549  21936593.492    21936601.5894
  21817526.617   -16286517.457 9 -12663246.79149  21817525.881    21817534.4774
  24319438.770    17022199.475 9  13252383.39049  24319440.362    24319458.6204
  22937263.137     9791896.177 9   7629641.00949  22937262.254    22937272.8184
  21289442.669   -22826038.650 9 -17552631.22049  21289442.666    21289450.1784
 99  4 14 19 26 30.0000000  0  7 24 04 05 08 02 07 09
  21069390.832   -20904491.043 9 -16269379.27349  21069390.385    21069399.4774
  20448074.152   -25302521.751 9 -19692546.25149  20448074.383    20448081.0454
  21920160.684   -19212934.267 9 -14741044.12849  21920159.919    21920167.9054
  21805534.516   -16349535.825 9 -12712352.00049  21805533.283    21805542.6074
  24333818.987    17097766.948 9  13311266.69349  24333820.057    24333838.2004
  22948087.763     9848779.159 9   7673965.27249  22948088.719    22948097.1394
  21293179.005   -22806404.245 9 -17537331.74149  21293178.859    21293186.4214
 99  4 14 19 27  0.0000000  0  7 24 04 05 08 02 07 09
  21054625.094   -20982085.215 9 -16329842.20549  21054624.946    21054633.8274
  20448917.547   -25298089.632 9 -19689092.66149  20448917.489    20448924.4034
  21903766.092   -19299087.595 9 -14808176.53249  21903765.469    21903773.4784
  21793656.402   -16411955.258 9 -12760990.49149  21793655.986    21793664.3314
  24348243.308    17173564.766 9  13370329.48249  24348245.590    24348264.0044
  22958915.489     9905679.442 9   7718303.00949  22958915.993    22958924.5164
  21297022.309   -22786207.573 9 -17521594.13949  21297022.288    21297030.1534
 99  4 14 19 27 30.0000000  0  7 24 04 05 08 02 07 09
  21039930.855   -21059303.872 9 -16390012.52949  21039930.439    21039939.1754
  20449853.975   -25293168.791 9 -19685258.24749  20449853.921    20449860.7694
  21887388.044   -19385154.648 9 -14875241.70849  21887386.967    21887395.1644
  21781874.682   -16473868.500 9 -12809234.56549  21781874.322    21781883.2674
  24362691.655    17249489.536 9  13429491.22049  24362691.390    24362708.6514
  22969731.471     9962517.143 9   7762591.99949  22969730.017    22969740.2374
  21300952.154   -22765556.409 9 -17505502.37849  21300951.968    21300959.8484
 99  4 14 19 28  0.0000000  0  7 24 04 05 08 02 07 09
  21025339.957   -21135979.299 9 -16449759.55649  21025339.480    21025348.5504
  20450911.511   -25287611.286 9 -19680927.73649  20450911.499    20450918.2934
  21871053.557   -19470992.136 9 -14942128.00449  21871052.835    21871061.6754
  21770218.879   -16535120.159 9 -12856963.11649  21770218.451    21770226.7244
  24377189.861    17325676.560 9  13488857.28049  24377191.152    24377210.2274
  22980568.583    10019466.413 9   7806967.91249  22980569.253    22980577.3434
  21304996.124   -22744305.541 9 -17488943.32849  21304996.138    21305003.7734
 99  4 14 19 28 30.0000000  0  6 24 04 05 08 07 09
  21010821.261   -21212275.339 9 -16509210.95249  21010820.562    21010829.7304
  20452064.205   -25281553.743 9 -19676207.57749  20452064.081    20452070.8184
  21854727.509   -19556785.451 9 -15008979.87849  21854726.797    21854734.7274
  21758659.537   -16595864.717 9 -12904296.52449  21758658.664    21758667.6344
  22991400.044    10076386.012 9   7851320.71649  22991400.095    22991411.0424
  21309121.788   -22722625.387 9 -17472049.75849  21309121.792    21309129.5114
 99  4 14 19 29  0.0000000  0  6 24 04 05 08 07 09
  20996405.774   -21288028.951 9 -16568239.68049  20996405.251    20996414.1024
  20453343.074   -25274833.008 9 -19670970.65349  20453343.115    20453349.9714
  21838444.266   -19642354.453 9 -15075656.96149  21838443.480    21838451.6624
  21747225.773   -16655949.295 9 -12951115.65649  21747225.029    21747233.5564
  23002260.873    10133459.346 9   7895793.32649  23002260.466    23002271.7034
  21313358.836   -22700359.940 9 -17454700.11949  21313358.819    21313366.6494
 99  4 14 19 29 30.0000000  0  6 24 04 05 08 07 09
  20982078.297   -21363319.999 9 -16626907.97049  20982077.780    20982086.6094
  20454728.236   -25267553.951 9 -19665298.67049  20454728.366    20454735.2614
  21822190.877   -19727766.150 9 -15142211.47849  21822190.892    21822198.3594
  21735897.221   -16715481.177 9 -12997504.12749  21735897.042    21735905.3704
  23013133.406    10190595.120 9   7940314.56349  23013132.890    23013145.5414
  21317689.606   -22677601.568 9 -17436966.38549  21317689.681    21317697.2724
 99  4 14 19 30  0.0000000  0  6 24 04 05 08 07 09
  20967826.583   -21438213.139 9 -16685266.20749  20967826.036    20967834.8434
  20456208.910   -25259773.063 9 -19659235.65249  20456208.891    20456215.7354
  21805957.531   -19813072.915 9 -15208684.22749  21805956.890    21805964.7894
  21724660.948   -16774528.699 9 -13043515.17449  21724660.281    21724668.6284
  23024003.883    10247719.213 9   7984826.70149  23024004.953    23024013.2484
  21322103.096   -22654408.804 9 -17418894.16349  21322102.865    21322110.9474
 99  4 14 19 30 30.0000000  0  6 24 04 05 08 07 09
  20953671.869   -21512596.363 9 -16743227.10649  20953671.395    20953680.0614
  20457810.386   -25251357.288 9 -19652677.92249  20457810.502    20457817.4164
  21789772.516   -19898125.738 9 -15274959.10549  21789771.965    21789780.0134
  21713540.709   -16832966.067 9 -13089050.76849  21713540.229    21713548.5684
  23034896.254    10304957.170 9   8029427.55549  23034896.533    23034904.5224
  21326629.316   -22630623.521 9 -17400360.24549  21326629.192    21326636.9294
 99  4 14 19 31  0.0000000  0  6 24 04 05 08 07 09
  20939598.376   -21586552.848 9 -16800855.47949  20939598.118    20939606.7874
  20459511.000   -25242420.599 9 -19645714.27549  20459511.255    20459517.7674
  21773621.628   -19982999.212 9 -15341094.21949  21773620.706    21773628.7144
  21702519.272   -16890882.897 9 -13134180.75049  21702518.629    21702527.8134
  23045791.496    10362211.766 9   8074041.38949  23045789.612    23045800.1794
  21331254.523   -22606318.012 9 -17381420.94949  21331254.390    21331262.5004
 99  4 14 19 31 30.0000000  0  6 24 04 05 08 07 09
  20925611.959   -21660051.851 9 -16858127.36749  20925611.780    20925620.3834
  20461314.395   -25232943.972 9 -19638329.90549  20461314.687    20461321.2294
  21757503.168   -20067701.823 9 -15407096.20549  21757502.425    21757510.9254
  21691602.012   -16948253.156 9 -13178884.83349  21691601.567    21691610.5044
  23056691.697    10419492.321 9   8118675.44049  23056688.447    23056702.8544
  21335981.554   -22581477.856 9 -17362065.05149  21335981.547    21335988.9954
 99  4 14 19 32  0.0000000  0  6 24 04 05 08 07 09
  20911724.487   -21733031.117 9 -16914994.27849  20911724.075    20911732.4004
  20463235.509   -25222848.497 9 -19630463.31349  20463235.787    20463242.2424
  21741429.495   -20152169.371 9 -15472915.01849  21741428.692    21741436.4574
  21680802.154   -17005007.118 9 -13223108.68249  21680801.933    21680810.2914
  23067608.350    10476859.576 9   8163377.03749  23067607.638    23067617.6934
  21340822.751   -22556037.443 9 -17342241.41849  21340822.506    21340830.5914
 99  4 14 19 32 30.0000000  0  7 24 04 05 08 16 07 09
  20897911.714   -21805617.560 9 -16971555.08449  20897911.137    20897919.8254
  20465247.477   -25212275.638 9 -19622224.73049  20465247.484    20465254.2634
  21725374.674   -20236537.809 9 -15538656.60149  21725373.967    21725381.8574
  21670094.167   -17061277.924 9 -13266956.02549  21670093.796    21670102.4504
  24490311.534      -27515.64359                  24490314.238    24490324.9024
  23078514.770    10534171.745 9   8208035.75749  23078513.907    23078525.9674
  21345751.574   -22530136.591 9 -17322058.99949  21345751.484    21345759.5244
 99  4 14 19 33  0.0000000  0  7 24 04 05 08 16 07 09
  20884198.541   -21877680.675 9 -17027708.10649  20884197.911    20884206.5554
  20467371.323   -25201114.756 9 -19613527.95249  20467371.334    20467378.0004
  21709357.738   -20320707.615 9 -15604243.40549  21709356.895    21709365.0784
  21659502.065   -17116939.932 9 -13310329.00049  21659501.619    21659509.9884
  24487770.487      -50606.002 9    -37923.66749  24487769.720    24487781.7864
  23089430.379    10591533.047 9   8252732.74149  23089429.860    23089440.6274
  21350783.383   -22503694.459 9 -17301454.81049  21350783.230    21350791.2124
 99  4 14 19 33 30.0000000  0  7 24 04 05 08 16 07 09
  20870574.010   -21949277.866 9 -17083498.07149  20870573.812    20870582.3054
  20469598.903   -25189408.688 9 -19604406.35249  20469599.211    20469605.8394
  21693370.065   -20404723.219 9 -15669710.05449  21693369.233    21693377.4784
  21649016.385   -17172042.903 9 -13353266.35849  21649016.288    21649024.5554
  24485321.594      -63475.615 9    -47951.87649  24485319.876    24485333.9944
  23100343.991    10648883.242 9   8297421.06549  23100342.306    23100355.6914
  21355903.820   -22476786.439 9 -17280487.59049  21355903.596    21355911.7474
 99  4 14 19 34  0.0000000  0  7 24 04 05 08 16 07 09
  20857037.873   -22020410.567 9 -17138926.09549  20857037.583    20857045.9114
  20471934.084   -25177137.666 9 -19594844.53049  20471934.355    20471940.9444
  21677420.497   -20488538.962 9 -15735020.96849  21677419.884    21677427.5724
  21638639.637   -17226573.307 9 -13395757.55549  21638638.912    21638647.3634
  24482966.343      -75851.836 9    -57595.66249  24482965.965    24482979.9714
  23111256.518    10706229.431 9   8342106.24449  23111255.051    23111265.1224
  21361114.980   -22449401.415 9 -17259148.68149  21361114.708    21361122.9484
 99  4 14 19 34 30.0000000  0  7 24 04 05 08 16 07 09
  20843580.803   -22091127.692 9 -17194030.29349  20843580.290    20843589.0024
  20474368.017   -25164347.302 9 -19584878.02149  20474368.190    20474374.5614
  21661499.946   -20572201.484 9 -15800212.48449  21661499.166    21661507.1034
  21628364.536   -17280569.674 9 -13437832.62049  21628364.065    21628372.1324
  24480694.041      -87792.636 9    -66900.16349  24480692.909    24480705.2684
  23122161.501    10763534.942 9   8386759.72349  23122160.541    23122172.1704
  21366407.003   -22421592.188 9 -17237479.22349  21366407.244    21366414.6434
 99  4 14 19 35  0.0000000  0  7 24 04 05 08 16 07 09
  20830216.272   -22161358.322 9 -17248755.40049  20830215.782    20830224.2874
  20476917.637   -25150949.000 9 -19574437.79349  20476917.745    20476924.1864
  21645622.669   -20655636.935 9 -15865227.06249  21645622.158    21645630.0934
  21618206.305   -17333951.655 9 -13479428.94049  21618205.358    21618214.4414
  24478520.054      -99216.444 9    -75801.73949  24478518.244    24478533.0154
  23133074.481    10820881.670 9   8431445.35549  23133072.597    23133086.7334
  21371794.847   -22393279.504 9 -17215417.46249  21371794.664    21371802.7854
 99  4 14 19 35 30.0000000  0  7 24 04 05 08 16 07 09
  20816934.978   -22231151.331 9 -17303139.51249  20816934.586    20816943.2544
  20479575.367   -25136982.548 9 -19563554.85049  20479575.525    20479582.3444
  21629782.746   -20738876.111 9 -15930088.70249  21629782.263    21629789.8484
  21608154.045   -17386776.701 9 -13520591.29549  21608153.557    21608161.9804
  24476435.846     -110168.064 9    -84335.38949  24476435.107    24476448.6494
  23143989.153    10878237.793 9   8476138.30949  23143986.811    23144000.3294
  21377273.683   -22364487.976 9 -17192982.57549  21377273.881    21377281.6354
 99  4 14 19 36  0.0000000  0  7 24 04 05 08 16 07 09
  20803742.767   -22300476.776 9 -17357159.28549  20803742.519    20803751.2054
  20482343.730   -25122434.763 9 -19552218.91949  20482343.778    20482350.4694
  21613981.558   -20821911.949 9 -15994791.89949  21613980.443    21613988.6604
  21598212.170   -17439022.093 9 -13561301.95649  21598211.749    21598220.0584
  24474448.222     -120613.205 9    -92474.43349  24474447.842    24474461.6264
  23154912.091    10935638.088 9   8520865.65549  23154911.189    23154920.8094
  21382851.181   -22335178.663 9 -17170144.21749  21382851.100    21382859.3734
 99  4 14 19 36 30.0000000  0  7 24 04 05 08 16 07 09
  20790641.398   -22369324.897 9 -17410807.11349  20790641.079    20790649.6544
  20485219.653   -25107321.633 9 -19540442.46249  20485219.658    20485226.5324
  21598215.753   -20904761.348 9 -16059349.80849  21598214.807    21598222.6684
  21588380.573   -17490687.212 9 -13601560.46449  21588379.786    21588388.6124
  24472558.314     -130544.848 9   -100213.33949  24472557.891    24472570.9924
  23165845.254    10993093.012 9   8565635.58149  23165844.380    23165855.2504
  21388529.116   -22305341.070 9 -17146894.21849  21388529.109    21388537.2794
 99  4 14 19 37  0.0000000  0  7 24 04 05 08 16 07 09
  20777627.917   -22437710.824 9 -17464094.79149  20777627.508    20777636.0554
  20488196.817   -25091676.610 9 -19528251.53849  20488196.806    20488203.7864
  21582482.826   -20987437.580 9 -16123772.79549  21582482.089    21582489.8484
  21578655.971   -17541789.854 9 -13641380.68049  21578655.358    21578663.9434
  24470764.905     -139969.070 9   -107556.80249  24470764.682    24470777.8134
  23176785.046    11050580.997 9   8610431.27449  23176786.265    23176796.6634
  21394305.082   -22274988.470 9 -17123242.90849  21394305.121    21394313.1914
 99  4 14 19 37 30.0000000  0  7 24 04 05 08 16 07 09
  20764703.945   -22505626.446 9 -17517016.00049  20764703.635    20764712.1474
  20491272.869   -25075511.592 9 -19515655.42749  20491272.857    20491279.8324
  21566786.229   -21069923.214 9 -16188047.26149  21566785.735    21566793.8884
  21569039.783   -17592322.828 9 -13680757.00149  21569039.275    21569047.4414
  24469069.792     -148876.274 9   -114497.42449  24469069.296    24469082.5944
  23187732.383    11108108.326 9   8655257.63449  23187733.066    23187742.8194
  21400177.242   -22244130.731 9 -17099197.98849  21400177.216    21400185.1724
 99  4 14 19 37 59.9990000  0  7 24 04 05 08 16 07 09
  20751870.422   -22573066.905 9 -17569566.95649  20751870.119    20751878.4684
  20494446.761   -25058832.703 9 -19502658.89649  20494447.060    20494453.8254
  21551128.437   -21152205.747 9 -16252163.46849  21551127.905    21551135.6134
  21559535.004   -17642270.991 9 -13719677.62449  21559534.385    21559543.0424
  24467476.406     -157249.272 9   -121021.76849  24467475.209    24467489.7304
  23198685.762    11165668.500 9   8700109.58849  23198686.224    23198696.8474
  21406143.530   -22212777.884 9 -17074767.27249  21406143.625    21406151.2204
 99  4 14 19 38 29.9990000  0  7 24 04 05 08 16 07 09
  20739128.923   -22640023.688 9 -17621741.01249  20739128.490    20739137.0584
  20497722.545   -25041618.315 9 -19489245.09349  20497722.532    20497729.5704
  21535514.636   -21234256.834 9 -16316099.32849  21535514.204    21535521.9044
  21550143.481   -17691623.552 9 -13758134.14049  21550142.727    21550151.4844
  24465984.992     -165086.576 9   -127128.71749  24465984.072    24465997.4134
  23209646.831    11223267.925 9   8744992.11349  23209646.186    23209657.5594
  21412203.252   -22180933.896 9 -17049953.84749  21412202.850    21412211.1224
 99  4 14 19 38 59.9990000  0  7 24 04 05 08 16 07 09
  20726483.539   -22706475.583 9 -17673521.65949  20726483.364    20726491.5244
  20501103.570   -25023850.926 9 -19475400.38049  20501103.591    20501110.2284
  21519948.829   -21316055.657 9 -16379838.62049  21519948.440    21519956.2864
  21540868.857   -17740361.558 9 -13796111.78349  21540868.497    21540876.4314
  24464597.639     -172376.484 9   -132809.10149  24464597.592    24464609.3844
  23220615.523    11280907.919 9   8789906.24749  23220615.412    23220625.2694
  21418356.089   -22148600.486 9 -17024759.05849  21418356.031    21418363.9564
 99  4 14 19 39 29.9990000  0  7 24 04 05 08 16 07 09
  20713935.180   -22772417.399 9 -17724904.83949  20713934.801    20713943.2724
  20504591.749   -25005520.468 9 -19461116.91849  20504592.126    20504598.5464
  21504429.369   -21397610.903 9 -16443388.11349  21504428.664    21504436.2884
  21531711.872   -17788481.511 9 -13833607.83349  21531711.456    21531719.4204
  24463313.739     -179123.660 9   -138066.59049  24463312.531    24463326.4674
  23231590.960    11338584.874 9   8834849.19649  23231592.823    23231603.0304
  21424601.575   -22115780.477 9 -16999185.10649  21424601.787    21424609.6514
 99  4 14 19 39 59.9990000  0  8 24 04 05 08 16 07 30 09
  20701482.262   -22837857.392 9 -17775896.98749  20701481.782    20701490.5594
  20508185.924   -24986632.981 9 -19446399.39849  20508186.158    20508192.9004
  21488950.601   -21478952.200 9 -16506770.88249  21488949.900    21488957.4684
  21522671.476   -17835989.598 9 -13870627.09349  21522670.975    21522679.7794
  24462131.427     -185336.632 9   -142907.84749  24462130.839    24462144.2154
  23242569.170    11396275.417 9   8879802.75449  23242568.345    23242579.2434
  24563946.630    -3871483.499 9  -2991607.03349  24563946.204    24563956.7554
  21430939.720   -22082473.766 9 -16973231.89449  21430939.909    21430948.0114
 99  4 14 19 40 29.9990000  0  8 24 04 05 08 16 07 30 09
  20689126.167   -22902788.877 9 -17826492.89649  20689125.686    20689134.3904
  20511888.642   -24967175.309 9 -19431237.58749  20511888.565    20511895.4664
  21473510.262   -21560091.022 9 -16569995.88949  21473509.119    21473517.2274
  21513749.472   -17882874.944 9 -13907161.10249  21513748.882    21513757.1754
  24461050.968     -191014.008 9   -147331.73649  24461049.698    24461064.2984
  23253549.248    11453975.610 9   8924763.79549  23253549.113    23253557.4614
  24542630.979    -3983496.863 9  -3078890.05149  24542629.941    24542642.3714
  21437372.044   -22048672.059 9 -16946892.97949  21437371.626    21437380.1924
 99  4 14 19 40 59.9990000  0  8 24 04 05 08 16 07 30 09
  20676863.685   -22967228.582 9 -17876705.60249  20676863.275    20676871.8914
  20515698.688   -24947153.204 9 -19415635.96149  20515698.777    20515705.7504
  21458106.657   -21641037.183 9 -16633070.77349  21458106.022    21458113.8094
  21504945.378   -17929140.418 9 -13943212.09449  21504944.247    21504953.0284
  24460073.117     -196151.803 9   -151335.18849  24460071.775    24460086.1434
  23264531.704    11511688.404 9   8969734.64349  23264532.190    23264543.8884
  24521314.863    -4095512.039 9  -3166174.45849  24521313.978    24521325.4174
  21443900.479   -22014365.459 9 -16920160.64849  21443900.417    21443908.8374
 99  4 14 19 41 29.9990000  0  8 24 04 05 08 16 07 30 09
  20664691.172   -23031195.341 9 -17926549.78649  20664690.772    20664699.2544
  20519613.673   -24926579.930 9 -19399604.85349  20519613.587    20519620.3324
  21442739.635   -21721791.214 9 -16695995.94349  21442738.901    21442746.7314
  21496257.570   -17974795.085 9 -13978787.14449  21496256.831    21496265.4594
  24459197.109     -200754.965 9   -154922.01549  24459196.411    24459209.5364
  23275515.772    11569408.820 9   9014711.48049  23275514.696    23275527.1364
  24499994.571    -4207548.613 9  -3253475.54949  24499993.997    24500006.2634
  21450522.207   -21979568.516 9 -16893046.22549  21450522.023    21450530.3504
 99  4 14 19 41 59.9990000  0  8 24 04 05 08 16 07 30 09
  20652607.835   -23094693.693 9 -17976028.96449  20652607.367    20652615.8954
  20523632.869   -24905459.103 9 -19383147.07649  20523632.935    20523639.8984
  21427413.329   -21802331.063 9 -16758754.22049  21427412.881    21427420.8474
  21487684.714   -18019845.815 9 -14013891.58049  21487684.086    21487692.6184
  24458422.096     -204826.320 9   -158094.45749  24458422.496    24458435.8684
  23286501.564    11627139.104 9   9059695.98949  23286499.302    23286511.4874
  24478669.803    -4319610.421 9  -3340796.30849  24478669.939    24478681.4094
  21457234.287   -21944296.521 9 -16865561.63549  21457234.646    21457242.5684
 99  4 14 19 42 29.9990000  0  8 24 04 05 08 16 07 30 09
  20640617.513   -23157703.157 9 -18025127.20149  20640617.198    20640625.6114
  20527757.186   -24883785.771 9 -19366258.78449  20527757.209    20527763.9794
  21412133.203   -21882629.141 9 -16821324.11449  21412132.939    21412140.5544
  21479229.589   -18064277.705 9 -14048513.81449  21479229.249    21479237.7814
  24457748.582     -208366.354 9   -160852.89749  24457747.993    24457761.4924
  23297495.864    11684913.498 9   9104714.83349  23297495.929    23297504.3714
  24457342.605    -4431685.378 9  -3428127.29949  24457342.344    24457354.0094
  21464036.030   -21908553.626 9 -16837710.10349  21464035.887    21464044.0014
 99  4 14 19 42 59.9990000  0  8 24 04 05 08 16 07 30 09
  20628722.473   -23220211.865 9 -18073835.23149  20628722.243    20628730.5104
  20531981.801   -24861585.193 9 -19348959.64749  20531981.945    20531988.8744
  21396899.979   -21962680.574 9 -16883701.81049  21396899.075    21396906.6764
  21470890.477   -18108100.087 9 -14082661.11149  21470889.682    21470898.0934
  24457174.190     -211385.245 9   -163205.25749  24457173.531    24457185.9974
  23308501.614    11742748.800 9   9149781.18049  23308502.090    23308511.5124
  24436012.449    -4543776.400 9  -3515470.81949  24436012.471    24436023.8984
  21470925.155   -21872351.337 9 -16809500.60949  21470924.788    21470933.3234
 99  4 14 19 43 29.9990000  0  8 24 04 05 08 16 07 30 09
  20616923.983   -23282213.084 9 -18122147.82349  20616923.761    20616932.1004
  20536304.153   -24838871.086 9 -19331260.35949  20536304.262    20536311.0384
  21381710.424   -22042501.824 9 -16945900.14649  21381709.760    21381717.7514
  21462665.190   -18151324.190 9 -14116342.22349  21462664.277    21462673.0374
  24456695.932     -213898.283 9   -165163.41349  24456695.662    24456708.9214
  23319516.133    11800629.649 9   9194883.00649  23319515.026    23319526.1524
  24414675.961    -4655901.010 9  -3602840.48849  24414676.271    24414687.6934
  21477897.652   -21835710.532 9 -16780949.41649  21477897.481    21477905.8314
 99  4 14 19 43 59.9990000  0  8 24 04 05 08 16 07 30 09
  20605227.457   -23343678.653 9 -18170043.01749  20605227.088    20605235.4454
  20540728.112   -24815623.231 9 -19313145.15949  20540728.270    20540735.1024
  21366567.181   -22122080.093 9 -17007909.15049  21366566.194    21366573.8984
  21454555.419   -18193940.933 9 -14149550.06149  21454554.441    21454563.0674
  24456314.969     -215899.822 9   -166723.01749  24456313.906    24456326.2714
  23330541.504    11858567.820 9   9240029.50749  23330539.594    23330553.0524
  24393340.984    -4768018.561 9  -3690204.65549  24393341.961    24393351.1374
  21484959.034   -21798603.073 9 -16752034.58749  21484958.882    21484967.2914
 99  4 14 19 44 29.9990000  0  8 24 04 05 08 16 07 30 09
  20593630.262   -23404622.124 9 -18217531.38049  20593629.857    20593638.1394
  20545247.967   -24791871.418 9 -19294637.26949  20545247.971    20545254.9054
  21351464.722   -22201443.383 9 -17069750.63349  21351463.789    21351471.5654
  21446558.099   -18235967.065 9 -14182297.69849  21446557.597    21446565.9894
  24456028.701     -217403.837 9   -167894.96549  24456028.384    24456041.8444
  23341573.336    11916540.299 9   9285202.73849  23341575.494    23341589.0774
  24372007.749    -4880125.661 9  -3777560.66349  24372006.931    24372017.3104
  21492109.815   -21761025.630 9 -16722753.53749  21492109.562    21492117.8684
 99  4 14 19 44 59.9990000  0  8 24 04 05 08 16 07 30 09
  20582128.418   -23465064.381 9 -18264629.19449  20582127.959    20582136.4794
  20549864.052   -24767613.878 9 -19275735.30849  20549864.025    20549870.8904
  21336405.194   -22280581.495 9 -17131416.65349  21336404.135    21336412.0964
  21438669.638   -18277421.163 9 -14214599.58849  21438669.068    21438676.8984
  24455838.142     -218406.079 9   -168675.90349  24455836.427    24455851.0974
  23352605.647    11974515.670 9   9330378.17549  23352605.488    23352618.7684
  24350676.157    -4992222.122 9  -3864908.40849  24350674.269    24350686.6484
  21499350.432   -21722976.236 9 -16693104.73649  21499350.240    21499358.7204
 99  4 14 19 45 29.9990000  0  8 24 04 05 08 16 07 30 09
  20570721.503   -23525007.877 9 -18311338.35849  20570721.126    20570729.3284
  20554582.174   -24742819.931 9 -19256415.36749  20554582.309    20554589.3354
  21321392.256   -22359474.553 9 -17192891.72349  21321391.728    21321399.1754
  21430891.918   -18318292.514 9 -14246447.39849  21430891.612    21430899.7594
  24455746.160     -218888.510 9   -169051.76149  24455743.221    24455760.4584
  23363637.940    12032489.827 9   9375552.70449  23363639.289    23363648.8594
  24329347.644    -5104302.920 9  -3952243.97049  24329346.704    24329356.4244
  21506682.940   -21684444.052 9 -16663079.74249  21506683.283    21506691.3864
 99  4 14 19 45 59.9990000  0  8 24 04 05 08 16 07 30 09
  20559411.715   -23584440.905 9 -18357649.75649  20559411.576    20559419.6984
  20559400.588   -24717499.189 9 -19236684.94049  20559400.633    20559407.3154
  21306429.270   -22438105.435 9 -17254162.49549  21306428.636    21306436.2144
  21423227.135   -18358570.848 9 -14277833.11749  21423226.069    21423235.2854
  24455756.179     -218835.578 9   -169010.47949  24455754.224    24455768.2954
  23374670.772    12090467.525 9   9420729.99849  23374667.814    23374686.9224
  24308025.493    -5216350.519 9  -4039553.62049  24308023.665    24308035.5044
  21514109.416   -21645418.198 9 -16632670.05049  21514109.712    21514117.7264
 99  4 14 19 46 29.9990000  0  8 24 04 05 08 16 07 30 09
  20548195.205   -23643384.030 9 -18403579.41149  20548194.901    20548203.3014
  20564315.226   -24691672.549 9 -19216560.30849  20564315.131    20564322.0254
  21291513.871   -22516486.190 9 -17315238.36349  21291513.152    21291520.6824
  21415676.860   -18398248.041 9 -14308750.41349  21415676.396    21415684.9414
  24455869.151     -218242.592 9   -168548.39649  24455869.104    24455881.8044
  23385703.489    12148444.932 9   9465907.05849  23385702.935    23385716.7574
  24286704.900    -5328388.815 9  -4126856.05249  24286705.424    24286717.1024
  21521625.010   -21605924.040 9 -16601895.45749  21521624.909    21521633.2474
 99  4 14 19 46 59.9990000  0  8 24 04 05 08 16 07 30 09
  20537071.684   -23701838.302 9 -18449128.14249  20537071.161    20537079.4574
  20569327.455   -24665332.887 9 -19196035.91649  20569327.421    20569334.2034
  21276644.536   -22594624.899 9 -17376125.62249  21276643.866    21276651.4384
  21408243.115   -18437312.865 9 -14339190.54449  21408242.742    21408251.2244
  24456085.265     -217106.688 9   -167663.18749  24456085.734    24456097.0144
  23396737.225    12206426.659 9   9511087.46449  23396737.785    23396746.9974
  24265382.633    -5440436.678 9  -4214165.92449  24265382.116    24265393.3074
  21529225.522   -21565983.392 9 -16570772.95049  21529225.727    21529233.5064
 99  4 14 19 47 29.9990000  0  8 24 04 05 08 16 07 30 09
  20526043.026   -23759794.177 9 -18494288.51649  20526042.816    20526051.0624
  20574433.879   -24638498.655 9 -19175126.15049  20574433.786    20574440.8864
  21261816.597   -22672545.986 9 -17436843.31049  21261816.161    21261823.1564
  21400928.202   -18475752.883 9 -14369143.81049  21400927.506    21400936.0604
  24456403.691     -215433.630 9   -166359.47249  24456402.855    24456414.0284
  23407773.421    12264421.205 9   9556277.90449  23407771.887    23407785.8544
  24244059.419    -5552489.486 9  -4301479.66449  24244058.807    24244070.6324
  21536910.551   -21525598.602 9 -16539304.35949  21536910.187    21536918.5554
 99  4 14 19 47 59.9990000  0  8 24 04 05 08 16 07 30 09
  20515109.118   -23817252.293 9 -18539061.02649  20515108.636    20515116.9774
  20579633.891   -24611172.459 9 -19153833.03649  20579634.226    20579640.9854
  21247030.271   -22750248.861 9 -17497390.95849  21247029.767    21247037.3584
  21393735.146   -18513552.329 9 -14398597.92949  21393734.496    21393743.0614
  24456823.502     -213227.586 9   -164640.41649  24456823.463    24456836.3434
  23418812.222    12322430.000 9   9601479.40049  23418811.714    23418824.0804
  24222737.932    -5664534.082 9  -4388787.02749  24222737.987    24222749.4864
  21544680.921   -21484765.398 9 -16507486.36549  21544681.228    21544689.4944
 99  4 14 19 48 29.9990000  0  8 24 04 05 08 16 07 30 09
  20504266.666   -23874229.427 9 -18583458.73649  20504266.312    20504274.5324
  20584929.196   -24583345.668 9 -19132149.83949  20584929.250    20584936.1524
  21232283.982   -22827741.371 9 -17557774.67749  21232283.066    21232290.5954
  21386664.190   -18550710.722 9 -14427552.52549  21386663.741    21386672.4964
  24457341.374     -210505.497 9   -162519.22649  24457341.745    24457353.5254
  23429853.906    12380454.959 9   9646693.51449  23429852.501    23429866.1724
  24201412.928    -5776596.493 9  -4476108.23449  24201412.671    24201424.1794
  21552533.451   -21443500.325 9 -16475331.84049  21552533.452    21552541.7874
